[[{"header":{"parameterUnit":"m.s-1","parameterCategory":1,"la1":30.6,"la2":28.766,"lo1":-90.7593,"lo2":-88.6598,"dy":0.0162,"dx":0.0183,"nx":116,"ny":114,"refTime":"2024-05-25T06:00:00:Z","depth":0,"parameterNumber":2,"parameterNumberName":"U-component_of_WINDS"},"data":[0.0,0.0,0.0,0.0,0.0,0.0,0.0,0.0,0.0,0.0,0.0,0.0,0.0,0.0,0.0,0.0,0.0,0.0,0.0,0.0,0.0,0.0,0.0,0.0,0.0,0.0,0.0,0.0,0.0,0.0,0.0,0.0,0.0,0.0,0.0,0.0,0.0,0.0,0.0,0.0,0.0,0.0,0.0,0.0,0.0,0.0,0.0,0.0,0.0,0.0,0.0,0.0,0.0,0.0,0.0,0.0,0.0,0.0,0.0,0.0,0.0,0.0,0.0,0.0,0.0,0.0,0.0,0.0,0.0,0.0,0.0,0.0,0.0,0.0,0.0,0.0,0.0,0.0,0.0,0.0,0.0,0.0,0.0,0.0,0.0,0.0,0.0,0.0,0.0,0.0,0.0,0.0,0.0,0.0,0.0,0.0,0.0,0.0,0.0,0.0,0.0,0.0,0.0,0.0,0.0,0.0,0.0,0.0,0.0,0.0,0.0,0.0,0.0,0.0,0.0,0.0,0.0,0.0,0.0,0.0,0.0,0.0,0.0,0.0,0.0,0.0,0.0,0.0,0.0,0.0,0.0,0.0,0.0,0.0,0.0,0.0,0.0,0.0,0.0,0.0,0.0,0.0,0.0,0.0,0.0,0.0,0.0,0.0,0.0,0.0,0.0,0.0,0.0,0.0,0.0,0.0,0.0,0.0,0.0,0.0,0.0,0.0,0.0,0.0,0.0,0.0,0.0,0.0,0.0,0.0,0.0,0.0,0.0,0.0,0.0,0.0,0.0,0.0,0.0,0.0,0.0,0.0,0.0,0.0,0.0,0.0,0.0,0.0,0.0,0.0,0.0,0.0,0.0,0.0,0.0,0.0,0.0,0.0,0.0,0.0,0.0,0.0,0.0,0.0,0.0,0.0,0.0,0.0,0.0,0.0,0.0,0.0,0.0,0.0,0.0,0.0,0.0,0.0,0.0,0.0,0.0,0.0,0.0,0.0,0.0,0.0,0.0,0.0,0.0,0.0,0.0,0.0,0.0,0.0,0.0,0.0,0.0,0.0,0.0,0.0,0.0,0.0,0.0,0.0,0.0,0.0,0.0,0.0,0.0,0.0,0.0,0.0,0.0,0.0,0.0,0.0,0.0,0.0,0.0,0.0,0.0,0.0,0.0,0.0,0.0,0.0,0.0,0.0,0.0,0.0,0.0,0.0,0.0,0.0,0.0,0.0,0.0,0.0,0.0,0.0,0.0,0.0,0.0,0.0,0.0,0.0,0.0,0.0,0.0,0.0,0.0,0.0,0.0,0.0,0.0,0.0,0.0,0.0,0.0,0.0,0.0,0.0,0.0,0.0,0.0,0.0,0.0,0.0,0.0,0.0,0.0,0.0,0.0,0.0,0.0,0.0,0.0,0.0,0.0,0.0,0.0,0.0,0.0,0.0,0.0,0.0,0.0,0.0,0.0,0.0,0.0,0.0,0.0,0.0,0.0,0.0,0.0,0.0,0.0,0.0,0.0,0.0,0.0,0.0,0.0,0.0,0.0,0.0,0.0,0.0,0.0,0.0,0.0,0.0,0.0,0.0,0.0,0.0,0.0,0.0,0.0,0.0,0.0,0.0,0.0,0.0,0.0,0.0,0.0,0.0,0.0,0.0,0.0,0.0,0.0,0.0,0.0,0.0,0.0,0.0,0.0,0.0,0.0,0.0,0.0,0.0,0.0,0.0,0.0,0.0,0.0,0.0,0.0,0.0,0.0,0.0,0.0,0.0,0.0,0.0,0.0,0.0,0.0,0.0,0.0,0.0,0.0,0.0,0.0,0.0,0.0,0.0,0.0,0.0,0.0,0.0,0.0,0.0,0.0,0.0,0.0,0.0,0.0,0.0,0.0,0.0,0.0,0.0,0.0,0.0,0.0,0.0,0.0,0.0,0.0,0.0,0.0,0.0,0.0,0.0,0.0,0.0,0.0,0.0,0.0,0.0,0.0,0.0,0.0,0.0,0.0,0.0,0.0,0.0,0.0,0.0,0.0,0.0,0.0,0.0,0.0,0.0,0.0,0.0,0.0,0.0,0.0,0.0,0.0,0.0,0.0,0.0,0.0,0.0,0.0,0.0,0.0,0.0,0.0,0.0,0.0,0.0,0.0,0.0,0.0,0.0,0.0,0.0,0.0,0.0,0.0,0.0,0.0,0.0,0.0,0.0,0.0,0.0,0.0,0.0,0.0,0.0,0.0,0.0,0.0,0.0,0.0,0.0,0.0,0.0,0.0,0.0,0.0,0.0,0.0,0.0,0.0,0.0,0.0,0.0,0.0,0.0,0.0,0.0,0.0,0.0,0.0,0.0,0.0,0.0,0.0,0.0,0.0,0.0,0.0,0.0,0.0,0.0,0.0,0.0,0.0,0.0,0.0,0.0,0.0,0.0,0.0,0.0,0.0,0.0,0.0,0.0,0.0,0.0,0.0,0.0,0.0,0.0,0.0,0.0,0.0,0.0,0.0,0.0,0.0,0.0,0.0,0.0,0.0,0.0,0.0,0.0,0.0,0.0,0.0,0.0,0.0,0.0,0.0,0.0,0.0,0.0,0.0,0.0,0.0,0.0,0.0,0.0,0.0,0.0,0.0,0.0,0.0,0.0,0.0,0.0,0.0,0.0,0.0,0.0,0.0,0.0,0.0,0.0,0.0,0.0,0.0,0.0,0.0,0.0,0.0,0.0,0.0,0.0,0.0,0.0,0.0,0.0,0.0,0.0,0.0,0.0,0.0,0.0,0.0,0.0,0.0,0.0,0.0,0.0,0.0,0.0,0.0,0.0,0.0,0.0,0.0,0.0,0.0,0.0,0.0,0.0,0.0,0.0,0.0,0.0,0.0,0.0,0.0,0.0,0.0,0.0,0.0,0.0,0.0,0.0,0.0,0.0,0.0,0.0,0.0,0.0,0.0,0.0,0.0,0.0,0.0,0.0,0.0,0.0,0.0,0.0,0.0,0.0,0.0,0.0,0.0,0.0,0.0,0.0,0.0,0.0,0.0,0.0,0.0,0.0,0.0,0.0,0.0,0.0,0.0,0.0,0.0,0.0,0.0,0.0,0.0,0.0,0.0,0.0,0.0,0.0,0.0,0.0,0.0,0.0,0.0,0.0,0.0,0.0,0.0,0.0,0.0,0.0,0.0,0.0,0.0,0.0,0.0,0.0,0.0,0.0,0.0,0.0,0.0,0.0,0.0,0.0,0.0,0.0,0.0,0.0,0.0,0.0,0.0,0.0,0.0,0.0,0.0,0.0,0.0,0.0,0.0,0.0,0.0,0.0,0.0,0.0,0.0,0.0,0.0,0.0,0.0,0.0,0.0,0.0,0.0,0.0,0.0,0.0,0.0,0.0,0.0,0.0,0.0,0.0,0.0,0.0,0.0,0.0,0.0,0.0,0.0,0.0,0.0,0.0,0.0,0.0,0.0,0.0,0.0,0.0,0.0,0.0,0.0,0.0,0.0,0.0,0.0,0.0,0.0,0.0,0.0,0.0,0.0,0.0,0.0,0.0,0.0,0.0,0.0,0.0,0.0,0.0,0.0,0.0,0.0,0.0,0.0,0.0,0.0,0.0,0.0,0.0,0.0,0.0,0.0,0.0,0.0,0.0,0.0,0.0,0.0,0.0,0.0,0.0,0.0,0.0,0.0,0.0,0.0,0.0,0.0,0.0,0.0,0.0,0.0,0.0,0.0,0.0,0.0,0.0,0.0,0.0,0.0,0.0,0.0,0.0,0.0,0.0,0.0,0.0,0.0,0.0,0.0,0.0,0.0,0.0,0.0,0.0,0.0,0.0,0.0,0.0,0.0,0.0,0.0,0.0,0.0,0.0,0.0,0.0,0.0,0.0,0.0,0.0,0.0,0.0,0.0,0.0,0.0,0.0,0.0,0.0,0.0,0.0,0.0,0.0,0.0,0.0,0.0,0.0,0.0,0.0,0.0,0.0,0.0,0.0,0.0,0.0,0.0,0.0,0.0,0.0,0.0,0.0,0.0,0.0,0.0,0.0,0.0,0.0,0.0,0.0,0.0,0.0,0.0,0.0,0.0,0.0,0.0,0.0,0.0,0.0,0.0,0.0,0.0,0.0,0.0,0.0,0.0,0.0,0.0,0.0,0.0,0.0,0.0,0.0,0.0,0.0,0.0,0.0,0.0,0.0,0.0,0.0,0.0,0.0,0.0,0.0,0.0,0.0,0.0,0.0,0.0,0.0,0.0,0.0,0.0,0.0,0.0,0.0,0.0,0.0,0.0,0.0,0.0,0.0,0.0,0.0,0.0,0.0,0.0,0.0,0.0,0.0,0.0,0.0,0.0,0.0,0.0,0.0,0.0,0.0,0.0,0.0,0.0,0.0,0.0,0.0,0.0,0.0,0.0,0.0,0.0,0.0,0.0,0.0,0.0,0.0,0.0,0.0,0.0,0.0,0.0,0.0,0.0,0.0,0.0,0.0,0.0,0.0,0.0,0.0,0.0,0.0,0.0,0.0,0.0,0.0,0.0,0.0,0.0,0.0,0.0,0.0,0.0,0.0,0.0,0.0,0.0,0.0,0.0,0.0,0.0,0.0,0.0,0.0,0.0,0.0,0.0,0.0,0.0,0.0,0.0,0.0,0.0,0.0,0.0,0.0,0.0,0.0,0.0,0.0,0.0,0.0,0.0,0.0,0.0,0.0,0.0,0.0,0.0,0.0,0.0,0.0,0.0,0.0,0.0,0.0,0.0,0.0,0.0,0.0,0.0,0.0,0.0,0.0,0.0,0.0,0.0,0.0,0.0,0.0,0.0,0.0,0.0,0.0,0.0,0.0,0.0,0.0,0.0,0.0,0.0,0.0,0.0,0.0,0.0,0.0,0.0,0.0,0.0,0.0,0.0,0.0,0.0,0.0,0.0,0.0,0.0,0.0,0.0,0.0,0.0,0.0,0.0,0.0,0.0,0.0,0.0,0.0,0.0,0.0,0.0,0.0,0.0,0.0,0.0,0.0,0.0,0.0,0.0,0.0,0.0,0.0,0.0,0.0,0.0,0.0,0.0,0.0,0.0,0.0,0.0,0.0,0.0,0.0,0.0,0.0,0.0,0.0,0.0,0.0,0.0,0.0,0.0,0.0,0.0,0.0,0.0,0.0,0.0,0.0,0.0,0.0,0.0,0.0,0.0,0.0,0.0,0.0,0.0,0.0,0.0,0.0,0.0,0.0,0.0,0.0,0.0,0.0,0.0,0.0,0.0,0.0,0.0,0.0,0.0,0.0,0.0,0.0,0.0,0.0,0.0,0.0,0.0,0.0,0.0,0.0,0.0,0.0,0.0,0.0,0.0,0.0,0.0,0.0,0.0,0.0,0.0,0.0,0.0,0.0,0.0,0.0,0.0,0.0,0.0,0.0,0.0,0.0,0.0,0.0,0.0,0.0,0.0,0.0,0.0,0.0,0.0,0.0,0.0,0.0,0.0,0.0,0.0,0.0,0.0,0.0,0.0,0.0,0.0,0.0,0.0,0.0,0.0,0.0,0.0,0.0,0.0,0.0,0.0,0.0,0.0,0.0,0.0,0.0,0.0,0.0,0.0,0.0,0.0,0.0,0.0,0.0,0.0,0.0,0.0,0.0,0.0,0.0,0.0,0.0,0.0,0.0,0.0,0.0,0.0,0.0,0.0,0.0,0.0,0.0,0.0,0.0,0.0,0.0,0.0,0.0,0.0,0.0,0.0,0.0,0.0,0.0,0.0,0.0,0.0,0.0,0.0,0.0,0.0,0.0,0.0,0.0,0.0,0.0,0.0,0.0,0.0,0.0,0.0,0.0,0.0,0.0,0.0,0.0,0.0,0.0,0.0,0.0,0.0,0.0,0.0,0.0,0.0,0.0,0.0,0.0,0.0,0.0,0.0,0.0,0.0,0.0,0.0,0.0,0.0,0.0,0.0,0.0,0.0,0.0,0.0,0.0,0.0,0.0,0.0,0.0,0.0,0.0,0.0,0.0,0.0,0.0,0.0,0.0,0.0,0.0,0.0,0.0,0.0,0.0,0.0,0.0,0.0,0.0,0.0,0.0,0.0,0.0,0.0,0.0,0.0,0.0,0.0,0.0,0.0,0.0,-6.1358,-6.0781,0.0,0.0,0.0,0.0,0.0,0.0,0.0,0.0,0.0,0.0,0.0,0.0,0.0,0.0,0.0,0.0,0.0,0.0,0.0,0.0,0.0,0.0,0.0,-5.3768,-5.547,-5.7164,-5.7405,-5.7541,-5.7585,0.0,0.0,0.0,0.0,0.0,-5.5937,-5.5078,-5.4844,-5.5234,-5.5273,-5.5312,-5.5273,-5.4883,-5.3984,-5.2734,0.0,0.0,0.0,0.0,0.0,0.0,0.0,0.0,0.0,0.0,0.0,0.0,0.0,0.0,0.0,0.0,0.0,0.0,0.0,0.0,0.0,0.0,0.0,0.0,0.0,0.0,0.0,0.0,0.0,0.0,0.0,0.0,0.0,0.0,0.0,0.0,0.0,0.0,0.0,0.0,0.0,0.0,0.0,0.0,0.0,0.0,0.0,0.0,0.0,0.0,0.0,0.0,0.0,0.0,0.0,0.0,0.0,0.0,0.0,0.0,0.0,0.0,0.0,0.0,0.0,0.0,0.0,0.0,0.0,0.0,-6.2551,-6.1781,0.0,0.0,0.0,0.0,0.0,0.0,0.0,0.0,0.0,0.0,0.0,0.0,0.0,0.0,0.0,0.0,0.0,0.0,0.0,0.0,0.0,-4.932,-5.1718,-5.3536,-5.5354,-5.7366,-5.7598,-5.7657,-5.779,-5.7268,0.0,0.0,0.0,-5.6601,-5.6601,-5.5898,-5.5898,-5.6601,-5.6015,-5.5742,-5.5742,-5.5156,-5.4375,-5.3398,-5.3828,0.0,0.0,0.0,0.0,0.0,0.0,0.0,0.0,0.0,0.0,0.0,0.0,0.0,0.0,0.0,0.0,0.0,0.0,0.0,0.0,0.0,0.0,0.0,0.0,0.0,0.0,0.0,0.0,0.0,0.0,0.0,0.0,0.0,0.0,0.0,0.0,0.0,0.0,0.0,0.0,0.0,0.0,0.0,0.0,0.0,0.0,0.0,0.0,0.0,0.0,0.0,0.0,0.0,0.0,0.0,0.0,0.0,0.0,0.0,0.0,0.0,0.0,0.0,-6.6244,-6.632,-6.632,-6.559,-6.5243,-6.5205,-6.4512,-6.3474,-6.2293,-6.2178,0.0,0.0,0.0,0.0,0.0,0.0,0.0,0.0,0.0,0.0,0.0,0.0,0.0,0.0,0.0,0.0,0.0,0.0,0.0,-4.9088,-5.0859,-5.2647,-5.4967,-5.8139,-5.8498,-5.8551,-5.8558,-5.8644,0.0,0.0,-5.6559,-5.6601,-5.6601,-5.6484,-5.6484,-5.6601,-5.7226,-5.7578,-5.7578,-5.8203,-5.7656,-5.6015,-5.4609,-5.3867,-5.3555,0.0,0.0,0.0,0.0,0.0,0.0,0.0,0.0,0.0,0.0,0.0,0.0,0.0,0.0,0.0,0.0,0.0,0.0,0.0,0.0,0.0,0.0,0.0,0.0,0.0,0.0,0.0,0.0,0.0,0.0,0.0,0.0,0.0,0.0,0.0,0.0,0.0,0.0,0.0,0.0,0.0,-6.3125,-6.3867,0.0,0.0,0.0,0.0,0.0,0.0,0.0,0.0,0.0,0.0,0.0,0.0,0.0,-6.6473,-6.6217,-6.6893,-6.7105,-6.6936,-6.7705,-6.809,-6.809,-6.7962,-6.7898,-6.7885,-6.7769,0.0,-6.3089,-6.2397,0.0,0.0,0.0,0.0,0.0,0.0,0.0,0.0,0.0,0.0,0.0,0.0,0.0,0.0,0.0,0.0,0.0,0.0,0.0,0.0,0.0,-5.3575,-5.5896,-5.838,-5.9069,-5.9188,-5.8718,-5.8861,-5.8406,-5.7228,-5.773,-5.8047,-5.8047,-5.7578,-5.7344,-5.7344,-5.8203,-5.8633,-5.8633,-5.9023,-5.8789,-5.8047,-5.7265,-5.582,-5.3945,-5.3203,0.0,0.0,0.0,0.0,0.0,0.0,0.0,0.0,0.0,0.0,0.0,0.0,0.0,0.0,0.0,0.0,0.0,0.0,0.0,0.0,0.0,0.0,0.0,0.0,0.0,0.0,0.0,0.0,0.0,0.0,0.0,0.0,0.0,0.0,0.0,0.0,0.0,0.0,0.0,-6.3594,-6.4414,-6.4297,-6.4844,-6.4805,0.0,0.0,0.0,0.0,0.0,0.0,0.0,0.0,0.0,-6.8977,-6.9318,-6.9634,-6.9951,-7.0167,-7.0162,-6.9937,-6.986,-6.9821,-6.9783,-6.936,-6.9129,-6.909,-6.8629,-6.7282,-6.5359,-6.4551,-6.3666,-6.2704,0.0,0.0,0.0,0.0,-6.055,-6.0242,0.0,0.0,0.0,0.0,0.0,0.0,0.0,0.0,0.0,0.0,0.0,0.0,-5.2036,-5.4465,-5.6708,-5.8458,-5.9184,-5.9323,-5.8699,-5.8604,-5.8207,-5.7367,-5.8118,-5.8515,-5.8515,-5.8125,-5.8008,-5.8242,-5.9101,-5.9492,-5.9492,-5.9726,-5.9726,-5.9531,-5.9726,-5.8164,-5.5312,-5.4844,-5.332,-5.1094,0.0,0.0,0.0,0.0,0.0,0.0,0.0,0.0,0.0,0.0,0.0,0.0,0.0,0.0,0.0,0.0,0.0,0.0,0.0,0.0,0.0,0.0,0.0,0.0,0.0,0.0,0.0,0.0,0.0,0.0,0.0,0.0,0.0,0.0,0.0,0.0,0.0,-6.4648,-6.543,-6.5039,-6.6484,-6.6875,0.0,0.0,0.0,0.0,0.0,0.0,-6.9414,-6.9492,-7.0194,-7.1669,-7.2129,-7.2596,-7.3035,-7.2879,-7.2723,-7.2514,-7.1898,-7.1437,-7.1206,-7.0591,-7.0206,-6.9975,-6.9321,-6.8436,-6.7359,-6.632,-6.5013,-6.3551,-6.2743,-6.2397,-6.232,-6.1666,-6.132,-6.1127,0.0,0.0,0.0,0.0,0.0,0.0,0.0,0.0,0.0,0.0,0.0,-5.1177,-5.2113,-5.4465,-5.6708,-5.8458,-5.8651,-5.8651,-5.8621,-5.8013,-5.7282,-5.6394,-5.6585,-5.6719,-5.6719,-5.75,-5.832,-5.914,-5.9922,-6.0351,-6.0351,-6.1172,-6.1133,-6.039,-6.1211,-6.0586,-5.8828,-5.7187,-5.543,-5.3672,-5.1953,0.0,0.0,0.0,0.0,0.0,0.0,0.0,0.0,0.0,0.0,0.0,0.0,0.0,0.0,0.0,0.0,0.0,0.0,0.0,0.0,0.0,0.0,0.0,0.0,0.0,0.0,0.0,0.0,0.0,0.0,0.0,0.0,0.0,0.0,0.0,0.0,0.0,0.0,-6.668,-6.8242,0.0,0.0,0.0,0.0,-6.9219,-6.9961,-7.1211,-7.2969,-7.3047,-7.3475,-7.4363,-7.4239,-7.4082,-7.3929,-7.3731,-7.3572,-7.3437,-7.3399,-7.2937,-7.2129,-7.2091,-7.1629,-7.0821,-7.0783,-6.986,-6.8205,-6.6551,-6.5359,-6.4436,-6.3589,-6.3243,-6.3243,-6.3192,-6.2704,-6.2024,0.0,0.0,0.0,0.0,0.0,-4.5898,-4.6379,-4.7794,-4.8879,-4.9204,-5.0712,-5.226,-5.373,-5.5664,-5.7559,-5.9261,-5.9455,-5.9184,-5.8651,-5.8518,-5.8299,-5.7992,-5.8655,-5.9062,-5.9062,-5.9883,-6.0234,-5.9961,-6.082,-6.125,-6.125,-6.1562,-6.1523,-6.125,-6.1562,-6.1367,-6.0703,-5.8984,-5.7265,-5.5508,-5.3789,-5.1875,0.0,0.0,0.0,0.0,0.0,0.0,0.0,0.0,0.0,0.0,0.0,0.0,0.0,0.0,0.0,0.0,0.0,0.0,0.0,0.0,0.0,0.0,0.0,0.0,0.0,0.0,0.0,0.0,0.0,0.0,0.0,0.0,0.0,0.0,0.0,0.0,0.0,-6.9258,-7.0859,0.0,-7.0273,-7.0742,-7.1328,-7.1875,-7.2187,-7.3125,-7.4883,-7.4961,-7.535,-7.6162,-7.6148,-7.5946,-7.5685,-7.5032,-7.4586,-7.4284,-7.3168,-7.2514,-7.2168,-7.1629,-7.1206,-7.0898,-7.0898,-7.0283,-6.9167,-6.7975,-6.6705,-6.5359,-6.4474,-6.4128,-6.4089,-6.3512,-6.3128,-6.2781,0.0,0.0,0.0,0.0,-4.5356,-4.6367,-4.6821,-4.8496,-4.9885,-5.048,-5.2028,-5.3614,-5.5045,-5.6979,-5.8642,-5.9803,-5.9609,-5.9211,-5.8651,-5.8231,-5.8039,-5.807,-5.9012,-5.9805,-6.039,-6.0976,-6.1133,-6.0859,-6.1406,-6.1719,-6.1719,-6.1719,-6.1719,-6.1719,-6.1719,-6.1719,-6.164,-6.0508,-5.9062,-5.7344,-5.5898,-5.4258,-5.2617,0.0,0.0,0.0,0.0,0.0,0.0,0.0,0.0,0.0,0.0,0.0,0.0,0.0,0.0,0.0,0.0,0.0,0.0,0.0,0.0,0.0,0.0,0.0,0.0,0.0,0.0,0.0,0.0,0.0,0.0,0.0,0.0,0.0,0.0,-6.8242,-7.0039,-7.0625,-7.2773,-7.3711,-7.2539,-7.2969,-7.3555,-7.414,-7.418,-7.4805,-7.625,-7.6328,-7.6561,-7.7099,-7.7099,-7.6954,-7.6618,-7.6035,-7.5552,-7.513,-7.3707,-7.2899,-7.2591,-7.1745,-7.1168,-7.0898,-7.0898,-7.0437,-6.9629,-6.8783,-6.759,-6.6205,-6.5359,-6.5051,-6.4974,-6.4397,-6.4012,-6.3589,0.0,0.0,0.0,-4.4002,-4.5235,-4.6513,-4.7369,-4.8741,-5.0286,-5.1989,-5.373,-5.5122,-5.5935,-5.8333,-5.988,-5.988,-5.9068,-5.8604,-5.8679,-5.718,-5.6386,-5.6567,-5.7496,-5.8789,-6.039,-6.043,-6.0859,-6.1719,-6.1719,-6.1719,-6.1719,-6.1719,-6.1719,-6.1719,-6.1719,-6.1719,-6.1719,-6.1719,-6.0742,-5.9219,-5.832,-5.6953,-5.5312,0.0,0.0,0.0,0.0,0.0,0.0,0.0,0.0,0.0,0.0,0.0,0.0,0.0,0.0,0.0,0.0,0.0,0.0,0.0,0.0,0.0,0.0,0.0,0.0,0.0,0.0,0.0,0.0,0.0,0.0,0.0,0.0,0.0,-6.7031,-6.918,-7.0781,-7.0859,-7.3867,-7.5273,-7.3594,-7.4961,-7.5937,-7.5976,-7.5976,-7.6367,-7.7226,-7.7265,-7.7225,-7.7138,-7.7097,-7.6911,-7.6618,-7.6609,-7.6394,-7.5976,-7.5091,-7.4245,-7.3476,-7.2552,-7.1706,-7.0898,-7.0898,-7.0437,-6.9629,-6.8783,-6.7898,-6.7013,-6.6205,-6.5897,-6.5897,-6.5897,-6.532,-6.432,0.0,0.0,-4.4064,-4.4265,-4.5886,-4.7278,-4.7733,-4.9901,-5.1672,-5.2144,-5.4233,-5.6012,-5.6854,-5.8139,-5.9223,-5.9841,-5.8526,-5.7946,-5.8654,-5.7186,-5.6956,-5.8395,-5.9882,-6.0859,-6.1328,-6.1328,-6.1445,-6.1719,-6.1719,-6.1719,-6.1719,-6.1719,-6.1719,-6.1719,-6.1719,-6.1719,-6.1719,-6.1719,-6.1445,-6.0937,-6.0078,-5.9062,-5.8047,0.0,0.0,0.0,0.0,0.0,0.0,0.0,0.0,0.0,0.0,0.0,0.0,0.0,0.0,0.0,0.0,0.0,0.0,0.0,0.0,0.0,0.0,0.0,0.0,0.0,0.0,0.0,0.0,0.0,0.0,0.0,-6.7226,-6.8984,-6.957,-7.1367,-7.3047,-7.4336,-7.5859,-7.664,-7.6172,-7.6562,-7.7109,-7.7734,-7.7773,-7.8125,-7.8984,-7.8476,-7.8124,-7.8036,-7.7341,-7.6843,-7.6618,-7.6467,-7.626,-7.5976,-7.4553,-7.3692,-7.3437,-7.1937,-7.1129,-7.0898,-7.0898,-7.0437,-6.9629,-6.8783,-6.7898,-6.7013,-6.6205,-6.5897,-6.5897,-6.5897,-6.4936,-6.3589,0.0,-4.3986,-4.4048,-4.4206,-4.6036,-4.7647,-4.8187,-5.049,-5.2437,-5.3188,-5.52,-5.6738,-5.7241,-5.841,-5.9184,-5.9339,-5.841,-5.7978,-5.8225,-5.7439,-5.7791,-5.9609,-6.0625,-6.1328,-6.168,-6.1719,-6.1719,-6.1719,-6.1719,-6.1719,-6.1719,-6.1719,-6.1719,-6.1719,-6.1719,-6.1719,-6.1719,-6.1719,-6.1679,-6.1595,-6.1127,-6.0623,-6.0156,-5.9297,-5.8633,-5.8047,-5.6836,-5.6719,-5.6992,-5.6133,0.0,0.0,0.0,0.0,0.0,0.0,0.0,0.0,0.0,0.0,0.0,0.0,0.0,0.0,0.0,0.0,0.0,0.0,0.0,0.0,0.0,0.0,0.0,0.0,-6.9062,-7.0976,-7.2187,-7.3203,-7.4375,-7.5742,-7.668,-7.7187,-7.7187,-7.7539,-7.7969,-7.8476,-7.8828,-7.9219,-7.9687,-7.9258,-7.8827,-7.8392,-7.7756,-7.7128,-7.6605,-7.6415,-7.6186,-7.5976,-7.4322,-7.3514,-7.3437,-7.1706,-7.0898,-7.0898,-7.0898,-7.0437,-6.9629,-6.8783,-6.7898,-6.7013,0.0,0.0,0.0,0.0,-6.4474,-6.3231,0.0,-4.4061,-4.4061,-4.4246,-4.6002,-4.7705,-4.8653,-5.0739,-5.2829,-5.4409,-5.6197,-5.728,-5.728,-5.8681,-5.93,-5.8526,-5.8449,-5.825,0.0,-5.8101,-5.8945,-6.0351,-6.0508,-6.0898,-6.168,-6.1719,-6.1719,-6.1719,-6.1719,-6.1719,-6.1719,-6.1719,-6.1719,-6.1719,-6.1719,-6.1719,-6.1719,-6.1719,-6.1675,-6.1612,-6.1612,-6.1627,-6.1561,-6.0818,-6.0506,-6.0351,-5.8866,-5.832,-5.8203,-5.7422,0.0,0.0,0.0,0.0,0.0,0.0,0.0,0.0,0.0,0.0,0.0,0.0,0.0,0.0,0.0,0.0,0.0,0.0,0.0,0.0,0.0,0.0,0.0,0.0,-7.1015,-7.2773,-7.4492,-7.4765,-7.5078,-7.5937,-7.6719,-7.7226,-7.7344,-7.8047,-7.8594,-7.8789,-7.9453,-7.9883,-8.0,-7.9883,0.0,0.0,0.0,-7.759,-7.6591,-7.6366,-7.6199,-7.5976,-7.4322,-7.3514,-7.3437,-7.1706,-7.0898,-7.0898,-7.0898,-7.0398,-6.9475,-6.8744,-6.7821,-6.6898,-6.6167,-6.5897,-6.5782,-6.4936,-6.4051,-6.3166,0.0,-4.4469,-4.4432,-4.5769,-4.6779,-4.7668,-4.8517,-5.1198,-5.3275,-5.3632,-5.5793,-5.728,-5.728,-5.7589,-5.7744,-5.7559,-5.7559,-5.7862,0.0,0.0,-6.073,-6.039,-6.1055,-6.1523,-6.1719,-6.1719,-6.1719,-6.1719,-6.1719,-6.1719,-6.1719,-6.1719,-6.1719,-6.1719,-6.1719,-6.1719,-6.1719,-6.1719,-6.1679,-6.1678,-6.1678,-6.158,-6.1424,-6.1268,-6.1267,-6.1344,-6.0993,-6.0929,-6.0937,-6.0781,-6.0234,-5.9687,-5.9687,-5.9219,0.0,0.0,0.0,0.0,0.0,0.0,0.0,0.0,0.0,0.0,0.0,0.0,0.0,0.0,0.0,0.0,0.0,0.0,0.0,-7.0273,-7.1914,-7.3672,-7.539,-7.5664,-7.5976,-7.6836,-7.7109,-7.7461,-7.8164,-7.8398,-7.9062,-8.039,-8.0664,-8.1054,-8.1758,-8.1133,-8.0351,-7.9484,-7.8467,-7.7524,-7.6626,-7.6248,-7.6034,-7.5976,-7.4322,0.0,-7.3437,-7.1706,-7.0898,-7.0898,-7.0898,-7.0052,-6.8629,-6.8475,-6.7513,-6.6128,-6.5974,-6.5897,-6.5782,-6.4936,-6.4051,-6.3166,-4.6327,-4.5844,-4.5509,-4.6364,-4.7339,-4.8264,-4.9138,-5.1568,-5.3522,-5.3935,-5.5912,-5.7098,-5.6703,-5.6652,-5.6467,-5.6089,-5.6474,0.0,0.0,-6.0633,-6.0998,-6.1055,-6.1484,-6.1719,-6.1719,-6.1719,-6.1719,-6.1719,-6.1719,-6.1719,-6.1719,-6.1719,-6.1719,-6.1719,-6.1719,-6.1719,-6.1719,-6.1719,-6.1635,-6.1564,-6.1564,-6.1439,-6.1253,-6.1478,-6.1564,-6.1607,-6.1627,-6.1631,-6.1672,-6.1679,-6.1406,-6.1055,-6.1055,-6.0781,-6.0351,0.0,0.0,0.0,0.0,0.0,0.0,0.0,0.0,0.0,0.0,0.0,0.0,0.0,0.0,-6.7656,-6.8086,0.0,-7.164,-7.25,-7.375,-7.4922,-7.5781,-7.6289,-7.6719,-7.7148,-7.7578,-7.8008,-7.8476,-7.9258,-8.0117,-8.0937,-8.1406,-8.1836,-8.2265,-8.1875,-8.1052,-7.9701,-7.8938,-7.7898,-7.6497,-7.616,-7.6015,-7.5976,-7.4322,-7.3514,-7.3437,-7.1706,-7.0898,-7.0898,-7.0898,-7.0206,-6.8975,-6.8129,-6.7013,-6.5897,-6.5897,-6.5897,-6.5782,-6.4936,-6.4051,-6.3166,-4.758,-4.7468,-4.7085,-4.6991,-4.7874,-4.8946,-4.9999,-5.1935,-5.361,-5.4468,-5.5943,-5.6704,-5.6048,-5.6007,-5.5887,-5.5586,0.0,0.0,0.0,-6.0847,-6.0948,-6.1873,-6.1953,-6.2031,-6.2187,-6.2226,-6.2226,-6.2226,-6.2226,-6.2109,-6.1953,-6.1953,-6.1875,-6.1719,-6.1719,-6.1679,-6.1678,-6.1678,-6.1573,-6.1412,-6.1412,-6.1298,-6.1174,-6.1507,-6.1621,-6.1557,-6.1633,-6.1633,-6.1621,-6.1678,-6.1719,-6.1719,-6.1719,-6.1719,-6.1601,-6.1055,-6.1289,0.0,0.0,0.0,0.0,0.0,0.0,0.0,0.0,-6.5604,-6.6317,-6.6371,-6.8424,-7.0428,-7.1094,-7.25,-7.3828,-7.4726,-7.543,-7.5976,-7.6133,-7.6758,-7.7265,-7.7422,-7.8086,-7.8633,-7.8945,-8.0195,-8.1054,-8.125,-8.1914,-8.2304,-8.2304,-8.2265,-8.1436,-7.9639,-7.9325,-7.8267,-7.6397,-7.6108,-7.6015,-7.5976,-7.4322,-7.3514,-7.3437,-7.1706,-7.0898,-7.0898,-7.0744,-7.0206,-6.9321,-6.7744,-6.6628,-6.5897,-6.5897,-6.5897,-6.5782,-6.4936,-6.4051,-6.3166,0.0,-4.9002,-4.9271,-4.8749,-4.8611,-4.911,-5.0716,-5.2284,-5.36,-5.441,-5.5413,-5.604,-5.6009,-5.6018,-5.6587,-5.8062,0.0,0.0,-6.1168,-6.1295,-6.1705,-6.2705,-6.2809,-6.3203,-6.3984,-6.4023,-6.4023,-6.4023,-6.4023,-6.3594,-6.2851,-6.2851,-6.2422,-6.1719,-6.1719,-6.1676,-6.1612,-6.1612,-6.1537,-6.1412,-6.1412,-6.1398,-6.1383,-6.1426,-6.1439,-6.1439,-6.1554,-6.163,-6.1679,-6.1719,-6.1719,-6.1719,-6.1719,-6.1719,-6.1836,-6.25,-6.2226,-6.2031,-6.3476,-6.3945,-6.4023,-6.414,-6.4717,-6.5663,0.0,-6.8149,-6.8973,-6.9829,-7.1443,-7.2748,-7.2968,-7.3789,-7.4726,-7.5625,-7.5859,-7.6172,-7.6953,-7.7148,-7.75,-7.8242,-7.8437,-7.9062,-8.0586,-8.0898,-8.1328,-8.2109,-8.2226,-8.2304,-8.2304,-8.2171,-8.1317,-7.958,-7.9205,-7.8173,-7.6411,-7.6133,-7.6015,-7.5976,-7.4322,-7.3514,-7.3437,-7.1706,-7.0898,-7.086,-7.0129,-6.936,-6.8475,-6.7513,-6.6628,-6.5897,-6.5897,-6.5897,-6.5782,-6.4936,-6.4051,-6.3166,0.0,-4.9589,-4.9735,-4.9476,-4.9903,-5.052,-5.1243,-5.2839,-5.4128,-5.4475,-5.5286,-5.5875,-5.5924,-5.5555,-5.5986,-5.7675,-5.783,0.0,-6.1878,-6.2135,-6.2586,-6.3552,-6.3706,-6.3945,-6.4297,-6.4297,-6.4297,-6.4297,-6.4297,-6.4101,-6.375,-6.375,-6.3281,-6.2461,-6.2922,-6.2557,-6.1642,-6.207,-6.1885,-6.1355,-6.1355,-6.1305,-6.1235,-6.1324,-6.1356,-6.1426,-6.1546,-6.1616,0.0,-6.1679,-6.1719,-6.1719,-6.1719,-6.1719,-6.1758,-6.2148,-6.1992,-6.1953,-6.3203,-6.3864,-6.4439,-6.5453,-6.6235,-6.7218,-6.8906,-6.9957,-7.0859,-7.1704,-7.3328,-7.4647,-7.4707,-7.5895,-7.6992,-7.7344,-7.7812,-7.8242,-7.8594,-7.8242,-7.8281,-7.9101,-7.8789,-7.914,-8.0859,-8.1445,-8.1914,-8.2265,-8.2304,-8.2264,-8.2171,-8.1644,-8.0731,-7.9371,-7.862,-7.7595,-7.6287,-7.6104,-7.5745,-7.5245,-7.4053,-7.3245,-7.2706,-7.1475,-7.0898,-7.0898,-7.0552,-6.9629,-6.8359,-6.8013,-6.709,-6.5897,-6.5897,-6.5897,-6.5859,-6.5474,-6.4474,-6.3231,0.0,-4.9885,-5.0038,-5.0038,-5.092,-5.1588,-5.1529,-5.3218,-5.4511,-5.4511,-5.5245,-5.5787,-5.5875,-5.543,-5.5801,-5.7494,-5.7666,-5.8936,0.0,-6.2507,-6.3124,-6.4037,-6.4444,-6.4765,-6.5,-6.5039,-6.5039,-6.5039,-6.5039,-6.4883,-6.4648,-6.4648,-6.4179,-6.3316,-6.3841,-6.3419,-6.2247,-6.2795,-6.2458,-6.1586,-6.1586,-6.1397,-6.1098,-6.1197,-6.1318,-6.1426,-6.1546,-6.1612,-6.1626,-6.1679,-6.1719,-6.1719,-6.1719,-6.1719,-6.1758,-6.1992,-6.2226,-6.25,-6.289,-6.3701,-6.4802,-6.6321,-6.7422,-6.8462,-6.9865,-7.1101,-7.2103,-7.2663,-7.4338,-7.5673,-7.5693,-7.7217,-7.8515,-7.8515,-7.918,-7.9687,-7.9687,-7.9023,-7.8789,-7.9609,-7.8984,-7.9062,-8.0508,-8.1211,-8.1679,-8.1914,-8.1953,-8.1871,-8.175,-8.1106,-8.0163,-7.8889,-7.8077,-7.7195,-7.6198,-7.5845,-7.5337,-7.4707,-7.363,-7.2822,-7.2168,-7.1283,-7.0898,-7.0898,-7.0667,-6.9744,-6.8385,-6.8129,-6.7205,-6.5897,-6.5897,-6.5897,-6.5897,-6.5897,-6.4782,-6.3308,0.0,0.0,-5.0654,-5.0654,-5.1336,-5.1813,-5.1553,-5.3218,-5.4511,-5.4511,-5.5203,-5.5735,-5.5787,-5.5885,-5.6636,-5.8307,-5.8508,-5.9309,-6.105,-6.2108,-6.3097,-6.396,-6.4983,-6.5976,-6.6797,-6.6836,-6.6836,-6.6836,-6.6836,-6.6406,-6.5547,-6.5547,-6.5034,-6.4062,-6.4099,-6.3943,-6.3719,-6.375,-6.323,-6.2365,-6.2365,-6.1853,-6.1118,-6.1089,-6.1228,-6.1426,-6.1546,0.0,-6.1719,-6.1719,-6.1719,-6.1719,-6.1719,-6.1719,-6.1875,-6.2695,-6.3555,-6.4023,-6.3203,-6.417,-6.5582,-6.6478,-6.7793,-6.9111,-6.9997,-7.1446,-7.2615,-7.2777,-7.4229,-7.5562,-7.569,-7.7219,-7.8515,-7.8515,-7.918,-7.9687,-7.9687,-7.9023,-7.8789,-7.9609,-7.8984,-7.8828,-7.9648,-7.9765,-8.0117,-8.0976,-8.1054,-8.0972,-8.0855,-8.07,-7.9792,-7.7986,-7.7716,-7.7164,-7.6198,-7.5283,-7.4777,-7.4668,-7.3014,-7.2206,-7.2168,-7.1283,-7.0898,-7.086,-7.009,-6.9244,-6.8321,-6.7475,-6.6628,-6.5897,-6.5897,-6.5897,-6.5897,-6.5897,-6.4782,-6.3308,0.0,0.0,0.0,-5.2241,-5.3079,-5.3425,-5.2777,-5.3713,-5.4716,-5.5294,-5.6564,0.0,0.0,0.0,0.0,0.0,-5.851,-5.9272,-6.1002,-6.2051,-6.3058,-6.3945,-6.4952,-6.5657,-6.6015,-6.6601,-6.6914,-6.6914,-6.6914,-6.6717,-6.6311,-6.6311,-6.5817,-6.4918,-6.54,-6.4961,-6.3813,-6.436,-6.4386,-6.4019,-6.2859,-6.2588,-6.2723,-6.1646,-6.1311,-6.1348,0.0,0.0,-6.1601,-6.1015,-6.1211,-6.1719,-6.1719,-6.1719,-6.1758,-6.2031,-6.2734,-6.3476,-6.3699,-6.4905,-6.6468,-6.7831,-6.8909,-7.0012,-7.1474,-7.2197,-7.2783,-7.3411,-7.4097,-7.4612,-7.4704,-7.6236,-7.7724,-7.8398,-7.9648,-8.0742,-8.1328,-8.0703,-8.0039,-7.9726,-7.8984,-7.8358,-7.795,-7.8981,-7.9805,-8.0117,-8.0109,-7.9996,-7.9876,-7.9208,-7.8492,-7.7771,-7.7121,-7.6597,-7.6263,-7.531,-7.4497,-7.393,-7.2195,-7.1321,-7.1321,-7.1014,-7.0898,-7.086,-7.0052,-6.9206,-6.8321,-6.7475,-6.6628,-6.5897,-6.5897,-6.5897,-6.5897,-6.5897,-6.4782,-6.3308,0.0,0.0,0.0,0.0,0.0,0.0,0.0,0.0,0.0,0.0,0.0,0.0,0.0,0.0,0.0,0.0,0.0,-5.9244,-6.0935,0.0,-6.2523,-6.3459,-6.445,-6.5017,-6.5112,-6.5663,-6.5976,-6.5976,-6.5935,-6.5886,-6.5822,-6.6073,-6.5858,-6.5277,-6.6047,-6.5732,-6.4657,-6.489,-6.4841,-6.4416,-6.2975,-6.2549,-6.2655,-6.1671,-6.1355,0.0,0.0,-6.0887,-6.1562,-6.0703,-6.0976,-6.1719,-6.1719,-6.1914,-6.2148,-6.2145,-6.2729,-6.3544,-6.4317,-6.548,-6.6847,-6.8505,-6.9439,-7.0363,-7.1794,-7.2142,-7.222,-7.2452,-7.2871,-7.3216,-7.328,-7.4835,-7.6616,-7.8242,-7.9648,-8.0937,-8.2148,-8.1521,-8.0618,-7.976,-7.9123,-7.8281,-7.7067,-7.8275,-7.9116,-7.9118,-7.9083,-7.9013,-7.889,-7.824,-7.7691,-7.726,-7.6633,-7.6326,-7.6301,-7.5054,-7.3832,-7.2661,-7.1478,-7.0898,-7.0898,-7.0898,-7.0744,-7.0437,-6.959,-6.8744,-6.7859,-6.7013,-6.6359,-6.5897,-6.5897,-6.5897,-6.5897,-6.5897,-6.4782,-6.3308,0.0,0.0,0.0,0.0,0.0,0.0,0.0,0.0,0.0,0.0,0.0,0.0,0.0,0.0,0.0,0.0,0.0,0.0,-6.0848,0.0,0.0,-6.2482,-6.3561,-6.4101,-6.4145,-6.4253,-6.4297,-6.4297,-6.4242,-6.4182,-6.4219,-6.4887,-6.5166,-6.5064,-6.5872,-6.6209,-6.6031,-6.5257,-6.4493,-6.3681,-6.2781,-6.193,-6.1253,-6.1283,0.0,0.0,0.0,-6.0885,-6.1562,-6.0703,-6.1015,-6.1758,-6.1758,-6.2343,-6.3044,-6.2976,-6.3547,-6.4353,-6.5124,-6.594,-6.6912,-6.8552,-6.9469,-7.0208,-7.1021,-7.1214,-7.0943,-7.0092,-7.0738,-7.1466,-7.1527,-7.3111,-7.5245,-7.7928,-7.9101,-8.0273,-8.2031,-8.1463,-8.0569,-7.9753,-7.9442,-7.8663,-7.7026,-7.7572,-7.8039,-7.7994,-7.8,-7.7987,-7.7831,-7.7813,-7.7409,-7.6448,-7.6397,-7.6335,-7.6236,-7.4562,-7.2802,-7.1005,-7.0939,-7.0898,-7.0898,-7.0898,-7.0475,-6.9667,-6.8783,-6.7898,-6.7051,-6.6244,-6.5897,-6.5897,-6.5897,-6.5897,-6.5897,-6.5859,-6.4743,-6.3269,0.0,0.0,0.0,0.0,0.0,0.0,0.0,0.0,0.0,0.0,0.0,0.0,0.0,0.0,0.0,0.0,0.0,0.0,-6.0075,0.0,0.0,0.0,0.0,-6.3097,-6.3245,-6.3882,-6.4249,0.0,0.0,-6.416,-6.406,-6.4148,-6.4124,-6.4066,-6.4298,-6.4386,-6.4338,-6.4106,-6.43,-6.4532,0.0,-6.2665,-6.2926,0.0,0.0,0.0,0.0,-6.087,-6.1507,-6.0663,-6.1363,-6.2594,-6.2594,-6.3112,-6.3729,-6.3705,-6.4324,-6.5158,-6.5926,-6.7184,-6.8488,-6.9479,-6.9864,-7.0054,-7.0286,-6.986,-6.9357,-6.9164,-6.9797,-7.0215,-6.9694,-7.2093,-7.4619,-7.6058,-7.8061,-8.009,-8.1767,-8.1782,-8.1293,-8.0435,-7.9784,-7.891,-7.7734,-7.7221,-7.6929,-7.6826,-7.6911,-7.6971,-7.692,-7.6855,-7.666,-7.6409,-7.6397,-7.6088,-7.5407,-7.3698,-7.2223,-7.1005,-7.0979,-7.0952,-7.0898,-7.0898,-7.0475,-6.9667,-6.8783,-6.7898,-6.7051,-6.6244,-6.5897,-6.5897,-6.5897,-6.5897,-6.582,-6.5166,-6.4243,-6.3205,0.0,0.0,0.0,0.0,0.0,0.0,0.0,0.0,0.0,0.0,0.0,0.0,0.0,0.0,0.0,0.0,0.0,0.0,0.0,0.0,0.0,0.0,0.0,-6.2088,-6.2215,-6.2753,-6.3062,0.0,0.0,0.0,0.0,-6.3097,-6.3163,-6.3129,-6.3526,-6.3719,-6.3681,-6.3284,0.0,0.0,0.0,0.0,0.0,0.0,0.0,0.0,-6.0893,-6.1329,-6.1995,-6.1562,-6.229,-6.3389,-6.3389,-6.3939,-6.4621,-6.4953,-6.568,-6.651,-6.7243,-6.8402,-6.9469,-6.9892,-6.9976,-6.9976,-6.9976,-6.9396,-6.87,-6.8313,-6.8584,-6.881,-6.8427,-7.0557,-7.306,-7.5156,-7.735,-7.9532,-8.1597,-8.1856,-8.1501,-8.0606,-8.0076,-7.9242,-7.7922,-7.7369,-7.6891,-7.6409,-7.6482,-7.6516,-7.6516,-7.6438,-7.6397,-7.6397,-7.6011,-7.5237,-7.3999,-7.3014,-7.2016,-7.1093,-7.103,-7.0979,-7.0939,-7.0912,-7.0244,-6.909,-6.8629,-6.7705,-6.6551,-6.609,-6.5897,-6.5897,-6.5897,-6.5667,-6.5282,-6.4782,-6.382,-6.2704,0.0,0.0,0.0,0.0,0.0,0.0,0.0,0.0,0.0,0.0,0.0,0.0,0.0,0.0,0.0,0.0,0.0,0.0,0.0,0.0,0.0,0.0,-6.1197,-6.1296,-6.1298,-6.1491,-6.1601,-6.1614,0.0,0.0,0.0,0.0,0.0,0.0,0.0,0.0,0.0,0.0,0.0,0.0,0.0,0.0,0.0,0.0,0.0,0.0,-6.1351,-6.1933,-6.2707,-6.2824,-6.3481,-6.4332,-6.4332,-6.4989,-6.5893,-6.6532,-6.7238,-6.8028,-6.8751,-6.9473,-7.0015,-7.0131,-7.0015,-6.9821,-6.9821,-6.9125,-6.8236,-6.7501,-6.7423,-6.7484,-6.7509,-6.9048,-7.1389,-7.46,-7.6677,-7.8773,-8.1311,-8.1576,-8.1272,-8.0612,-8.024,-7.9453,-7.8022,-7.7674,-7.721,-7.6436,-7.6397,-7.6397,-7.6397,-7.6397,-7.6359,-7.6243,-7.5276,-7.4077,-7.2607,-7.2445,-7.1947,-7.1201,-7.1093,-7.1018,-7.1005,-7.0939,-6.9988,-6.8385,-6.8385,-6.7436,-6.5897,-6.5897,-6.5897,-6.5897,-6.5897,-6.5359,-6.4589,-6.4474,-6.3435,-6.2101,0.0,0.0,0.0,0.0,0.0,0.0,0.0,0.0,0.0,0.0,-5.9348,-5.9665,0.0,0.0,0.0,0.0,0.0,0.0,0.0,0.0,0.0,0.0,-6.1107,-6.119,-6.1383,-6.1422,-6.1501,-6.1679,-6.1488,0.0,0.0,0.0,0.0,0.0,0.0,0.0,0.0,0.0,0.0,0.0,0.0,0.0,0.0,0.0,0.0,0.0,-6.125,-6.1888,-6.2736,-6.339,-6.4666,-6.598,-6.598,-6.7019,-6.821,-6.8336,-6.848,-6.878,-6.9561,-6.9899,-7.017,-7.0905,-7.0015,-6.9009,-6.9009,-6.781,-6.6611,-6.6456,-6.6998,-6.7279,-6.6583,-6.8994,-7.1559,-7.2879,-7.5136,-7.7567,-8.0124,-8.0477,-8.0674,-8.1255,-8.0058,-7.9105,-7.8796,-7.7481,-7.6552,-7.6397,-7.6397,-7.6397,-7.6397,-7.6397,-7.6049,-7.5353,-7.3844,-7.2877,-7.2607,-7.1861,-7.1413,-7.1213,-7.119,-7.1118,-7.1005,-7.0992,-7.0028,-6.8385,-6.8385,-6.7436,-6.5897,-6.5897,-6.5897,-6.5897,-6.5897,-6.5359,-6.4512,-6.3782,-6.2935,-6.1985,0.0,0.0,0.0,0.0,0.0,0.0,0.0,-5.7593,-5.8327,-5.9531,-6.0019,-6.0426,-6.0754,-6.0781,-6.0793,0.0,0.0,0.0,0.0,0.0,0.0,0.0,0.0,-6.1161,-6.125,-6.1331,-6.1383,-6.1471,0.0,-6.1367,-6.1322,-6.1173,-6.1118,-6.1118,-6.1118,-6.1118,-6.1118,0.0,0.0,-6.1118,-6.1118,-6.1118,0.0,0.0,0.0,0.0,0.0,-6.2073,-6.315,-6.3072,-6.4498,-6.632,-6.632,-6.7455,-6.8816,-6.8816,-6.9087,-6.9589,-7.044,-7.0672,-7.0789,-7.1214,-7.0054,-6.8816,-6.8816,-6.7462,-6.6185,-6.6185,-6.6533,-6.6688,-6.6263,-6.8274,-7.0402,-7.1717,-7.369,-7.5972,-7.8525,-7.9299,-7.9724,-8.015,-7.9492,-7.8834,-7.837,-7.7171,-7.6397,-7.6397,-7.6397,-7.6397,-7.6397,-7.5972,-7.5353,-7.4502,-7.3264,-7.2375,-7.191,-7.1523,-7.128,-7.1258,-7.1224,-7.1178,-7.1106,-7.0607,-6.9682,-6.8411,-6.7949,-6.7013,-6.5897,-6.5897,-6.5897,-6.5897,-6.5897,-6.5359,-6.4474,-6.3628,-6.2781,-6.1985,0.0,0.0,0.0,0.0,0.0,0.0,0.0,-5.8075,-5.8858,-5.9871,-6.0583,-6.0955,-6.0827,-6.0816,-6.0827,0.0,0.0,0.0,0.0,0.0,0.0,0.0,0.0,-6.1098,-6.1143,0.0,0.0,-6.1583,-6.1744,0.0,0.0,0.0,0.0,0.0,-6.1118,-6.1118,-6.1118,-6.1118,-6.1118,0.0,0.0,-6.1195,-6.1389,0.0,0.0,0.0,0.0,-6.2433,-6.3362,-6.2859,-6.4019,-6.5644,-6.5644,-6.7114,-6.8816,-6.9009,-6.9512,-7.017,-7.1059,-7.1291,-7.1291,-7.1291,-7.0054,-6.8816,-6.8816,-6.7462,-6.6185,-6.6185,-6.6185,-6.6185,-6.6185,-6.7462,-6.9087,-7.075,-7.2336,-7.4309,-7.7055,-7.8022,-7.8564,-7.895,-7.8834,-7.8448,-7.7751,-7.69,-7.6397,-7.6397,-7.6397,-7.6397,-7.6397,-7.543,-7.4541,-7.3922,-7.2877,-7.1988,-7.1291,-7.1291,-7.1291,-7.1291,-7.1247,-7.1224,-7.1163,-7.0245,-6.9335,-6.8436,-6.7526,-6.6641,-6.5897,-6.5897,-6.5897,-6.5897,-6.5897,-6.5359,-6.4474,-6.3628,-6.2781,-6.1985,0.0,0.0,0.0,0.0,0.0,0.0,0.0,-5.8481,-5.9061,-6.0693,-6.0951,-6.0987,-6.0976,-6.0976,-6.0959,0.0,0.0,0.0,0.0,0.0,0.0,0.0,0.0,0.0,0.0,0.0,0.0,-6.2562,-6.3223,0.0,0.0,0.0,0.0,0.0,0.0,-6.1118,-6.1118,-6.1118,0.0,0.0,0.0,0.0,0.0,0.0,0.0,0.0,0.0,-6.3052,-6.2627,-6.3323,-6.3758,-6.3952,-6.3952,-6.6185,-6.8932,-6.9667,-6.9938,-7.017,-7.1059,-7.1291,-7.1291,-7.1291,-7.0054,-6.8816,-6.8816,-6.7462,-6.6185,-6.6185,-6.6185,-6.6185,-6.6185,-6.6998,-6.8158,-6.986,-7.0905,-7.2723,-7.6049,-7.6591,-7.721,-7.8796,-7.8293,-7.779,-7.7713,-7.69,-7.6397,-7.6397,-7.6397,-7.6397,-7.6397,-7.4889,-7.3999,-7.3883,-7.2297,-7.1369,-7.1291,-7.1291,-7.1291,-7.1291,-7.1291,-7.1258,-7.1163,-7.0301,-6.9381,-6.8436,-6.7563,-6.6679,-6.5897,-6.5897,-6.5897,-6.5897,-6.5897,-6.5359,-6.4474,-6.3628,-6.2781,-6.1985,0.0,0.0,0.0,0.0,0.0,0.0,-5.9106,-5.9359,-5.9775,-6.0896,-6.107,-6.1244,-6.1785,-6.1823,-6.162,-6.1029,0.0,0.0,0.0,0.0,0.0,0.0,0.0,0.0,0.0,0.0,-6.2499,-6.2533,-6.3352,0.0,0.0,0.0,0.0,0.0,0.0,-6.1582,-6.1118,-6.1118,0.0,0.0,0.0,0.0,0.0,0.0,0.0,0.0,0.0,0.0,-6.3942,-6.3758,-6.3719,-6.3719,-6.3719,-6.4648,-6.5992,-6.7307,-6.8777,-7.0092,-7.0402,-7.0905,-7.1291,-7.1291,-7.0054,-6.8816,-6.8816,-6.7462,-6.6185,-6.6185,-6.6185,-6.6185,-6.6185,-6.6495,-6.7268,-6.9009,-6.9589,-7.0827,-7.369,-7.4541,-7.5314,-7.6514,-7.6823,-7.69,-7.69,-7.6591,-7.6397,-7.6397,-7.6397,-7.6165,-7.5662,-7.4541,-7.3883,-7.3883,-7.222,-7.1291,-7.1291,-7.1291,-7.1291,-7.1291,-7.075,-7.0507,-7.0446,-6.901,-6.8193,-6.7799,-6.688,-6.6292,-6.596,-6.5923,-6.5897,-6.5897,-6.5897,-6.5705,-6.5205,-6.382,-6.3089,-6.2627,0.0,0.0,0.0,0.0,0.0,-5.8178,-5.9687,-5.988,-6.019,-6.1002,-6.1118,-6.1427,-6.2317,-6.2394,-6.2249,-6.1821,-6.1543,0.0,0.0,0.0,0.0,0.0,0.0,0.0,0.0,0.0,-6.3284,-6.3516,-6.4406,-6.4677,0.0,0.0,-6.371,-6.2394,0.0,0.0,0.0,0.0,0.0,0.0,0.0,0.0,0.0,0.0,0.0,0.0,0.0,0.0,0.0,0.0,0.0,-6.3323,-6.3323,-6.3323,-6.371,-6.5644,-6.7655,-6.9357,-6.986,-7.0623,-7.1269,-7.1291,-7.0004,-6.8794,-6.8805,-6.7462,-6.6185,-6.6185,-6.6185,-6.6185,-6.6185,-6.6185,-6.6688,-6.8158,-6.8622,-6.9589,-7.1872,-7.2955,-7.3806,-7.4657,-7.5276,-7.574,-7.5972,-7.6243,-7.6397,-7.6397,-7.6165,-7.574,-7.5121,-7.4077,-7.3535,-7.3535,-7.2065,-7.1291,-7.1291,-7.1291,-7.1175,-7.0905,-7.0286,-6.986,-6.9589,-6.8116,-6.7426,-6.7366,-6.6437,-6.6032,-6.5996,-6.5947,-6.5923,-6.5897,-6.5897,-6.5743,-6.532,-6.3858,-6.3166,-6.2743,0.0,0.0,0.0,0.0,0.0,0.0,-5.9764,-5.988,-6.019,-6.1002,-6.1118,-6.1427,-6.2317,-6.2394,-6.2743,-6.3603,-6.2897,0.0,0.0,0.0,0.0,0.0,0.0,0.0,0.0,0.0,-6.5373,-6.6147,-6.7036,-6.7036,-6.6185,-6.6185,-6.4831,-6.2394,0.0,0.0,0.0,0.0,0.0,0.0,0.0,0.0,0.0,0.0,0.0,0.0,0.0,0.0,0.0,0.0,0.0,0.0,0.0,-6.2433,-6.2897,-6.545,-6.6843,-6.7887,-6.9551,-7.0601,-7.1224,-7.128,-6.9971,-6.8701,-6.8794,-6.7462,-6.6185,-6.6185,-6.6185,-6.6185,-6.6185,-6.6185,-6.6495,-6.7384,-6.8236,-6.9396,-7.1059,-7.2065,-7.2955,-7.3806,-7.3922,-7.4231,-7.5032,-7.5895,-7.6397,-7.6397,-7.5585,-7.5109,-7.5109,-7.3535,-7.2607,-7.2607,-7.1756,-7.1291,-7.1291,-7.1291,-7.0866,-7.0015,-6.9976,-6.9589,-6.8777,-6.7887,-6.7469,-6.7338,-6.6488,-6.6074,-6.6008,-6.6008,-6.596,-6.5897,-6.5897,-6.5359,-6.4512,-6.3628,-6.2781,-6.1985,0.0,0.0,0.0,0.0,0.0,0.0,0.0,-6.0731,-6.0809,-6.1079,-6.1195,-6.153,-6.2327,-6.2969,-6.346,-6.369,-6.3449,0.0,0.0,0.0,0.0,0.0,0.0,0.0,0.0,-6.4097,-6.5373,-6.6185,-6.7075,-6.7346,-6.7075,-6.7075,-6.6031,-6.4174,-6.4174,-6.3398,0.0,0.0,0.0,0.0,0.0,0.0,0.0,0.0,0.0,0.0,0.0,0.0,0.0,0.0,0.0,0.0,0.0,0.0,0.0,-6.4855,-6.5891,-6.6843,-6.8003,-6.8921,-6.9568,-6.9579,-6.8728,-6.7905,-6.7916,-6.7036,-6.6185,-6.6185,-6.6185,-6.6185,-6.6185,-6.6185,-6.6688,-6.8158,-6.8622,-6.9396,-7.1059,-7.1523,-7.2026,-7.2916,-7.3535,-7.4231,-7.5032,-7.485,-7.4928,-7.5469,-7.4734,-7.4038,-7.3419,-7.2877,-7.2607,-7.2607,-7.1756,-7.1021,-7.0402,-7.0402,-7.0015,-6.9164,-6.8584,-6.8158,-6.7887,-6.6998,-6.6601,-6.6541,-6.6228,-6.608,-6.6047,-6.604,-6.5982,-6.5972,-6.5972,-6.5396,-6.4474,-6.3628,-6.2781,-6.1985,0.0,0.0,0.0,0.0,0.0,0.0,0.0,-6.1118,-6.1107,-6.1178,-6.1244,-6.1716,-6.2882,-6.3546,-6.4238,-6.5118,-6.5225,0.0,0.0,0.0,0.0,0.0,0.0,0.0,-6.2897,-6.4909,-6.634,-6.7191,-6.8042,-6.8274,-6.8003,-6.8003,-6.692,-6.4996,-6.5034,-6.4317,0.0,0.0,0.0,0.0,0.0,0.0,0.0,0.0,0.0,0.0,0.0,0.0,0.0,0.0,0.0,0.0,0.0,0.0,0.0,0.0,-6.4707,-6.5505,-6.7033,-6.8088,-6.8784,-6.8805,-6.8137,-6.7469,-6.749,-6.6843,-6.6185,-6.6185,-6.6185,-6.6185,-6.6185,-6.6185,-6.6572,-6.7655,-6.8081,-6.8777,-7.017,-7.0634,-7.1137,-7.2026,-7.2877,-7.3612,-7.4115,-7.3999,-7.4115,-7.4618,-7.3883,-7.3187,-7.2645,-7.2297,-7.1949,-7.164,-7.1098,-7.0556,-7.0015,-6.9705,-6.9125,-6.8313,-6.7771,-6.7346,-6.6998,-6.6456,-6.6185,-6.6185,-6.6144,-6.6123,0.0,-6.6058,-6.604,-6.597,-6.5661,-6.4959,-6.4012,-6.3166,-6.232,-6.1524,0.0,0.0,0.0,0.0,0.0,0.0,0.0,-6.1118,-6.1152,-6.1289,-6.1317,-6.1953,-6.3741,-6.3989,-6.4994,-6.741,0.0,0.0,0.0,0.0,0.0,0.0,0.0,0.0,-6.3797,-6.6224,-6.7926,-6.8816,-6.9589,-6.9628,-6.8893,-6.8893,-6.7578,-6.519,-6.5234,-6.4821,0.0,0.0,0.0,0.0,0.0,0.0,0.0,0.0,0.0,0.0,0.0,0.0,0.0,0.0,0.0,0.0,0.0,0.0,0.0,0.0,0.0,0.0,0.0,-6.7752,-6.8469,-6.8562,-6.7961,-6.7321,-6.7374,-6.6766,0.0,-6.6185,-6.6185,-6.6185,-6.6185,-6.6185,-6.6224,-6.6263,-6.6959,-6.781,-6.8738,-6.9589,-7.0402,-7.1214,-7.2026,-7.2529,-7.2607,-7.3264,-7.3728,-7.3806,-7.2993,-7.2491,-7.2491,-7.1678,-7.0827,-7.0015,-6.986,-6.9821,-6.9821,-6.9087,-6.8274,-6.7423,-6.7423,-6.6998,-6.6185,-6.6185,-6.6185,-6.6185,-6.6185,-6.6155,-6.6102,-6.6102,-6.6047,-6.5827,-6.5045,-6.4111,-6.3128,-6.237,-6.155,-6.0781,0.0,0.0,0.0,0.0,0.0,0.0,0.0,0.0,0.0,0.0,-6.1361,-6.1778,-6.2893,-6.3659,-6.4801,0.0,0.0,0.0,0.0,0.0,0.0,0.0,0.0,0.0,-6.4687,-6.6533,-6.7926,-6.8816,-6.9589,-6.9899,-6.9705,-6.9705,-6.87,-6.6931,-6.7049,-6.6672,0.0,0.0,0.0,0.0,0.0,0.0,0.0,0.0,0.0,0.0,-6.514,-6.5538,0.0,0.0,0.0,0.0,0.0,0.0,0.0,0.0,-6.3962,-6.3713,-6.426,0.0,-6.5958,-6.6639,-6.6639,-6.6474,0.0,-6.634,-6.6185,-6.6185,-6.6185,-6.6185,-6.6185,-6.6185,-6.6417,-6.7075,-6.7384,-6.8003,-6.9512,-7.044,-7.1059,-7.1291,-7.1485,-7.1872,-7.2529,-7.2181,-7.2181,-7.2877,-7.2104,-7.1601,-7.1601,-7.0789,-7.0208,-7.0015,-6.8777,-6.8081,-6.8081,-6.7887,-6.7384,-6.6495,-6.6495,-6.6417,-6.6185,-6.6185,-6.6185,-6.6185,-6.6185,-6.6175,-6.6165,-6.6165,-6.5775,-6.5131,-6.4894,-6.3796,-6.2352,-6.2151,-6.155,-6.0781,0.0,0.0,0.0,0.0,0.0,0.0,0.0,0.0,0.0,0.0,0.0,-6.1839,-6.2728,-6.365,0.0,0.0,0.0,0.0,0.0,0.0,0.0,0.0,0.0,-6.518,-6.5528,-6.723,-6.8506,-6.9357,-7.017,-7.0402,-6.9976,-6.9628,-6.879,-6.7569,-6.7353,-6.7052,0.0,0.0,0.0,0.0,0.0,0.0,0.0,0.0,0.0,0.0,-6.4158,-6.4831,0.0,-6.576,-6.5856,-6.6056,0.0,0.0,0.0,0.0,-6.3207,-6.2937,-6.2959,-6.4209,-6.5603,-6.6059,-6.6185,-6.6185,-6.6185,-6.5605,-6.5064,-6.5064,-6.5064,-6.518,-6.5566,-6.5644,-6.5915,-6.6766,-6.7209,-6.8038,-6.9701,-7.0739,-7.1291,-7.1291,-7.1291,-7.1485,-7.1949,-7.1562,-7.1485,-7.1949,-7.1562,-7.1137,-7.0711,-7.0247,-6.9628,-6.8893,-6.7965,-6.7501,-6.7501,-6.7114,-6.6688,-6.6185,-6.6185,-6.6235,-6.6281,-6.6225,-6.6235,-6.6281,-6.6225,-6.5992,-6.5644,-6.5644,-6.5111,-6.4247,-6.3829,-6.3031,-6.2066,-6.1686,-6.1228,-6.0781,0.0,0.0,0.0,0.0,0.0,0.0,0.0,0.0,0.0,0.0,0.0,0.0,0.0,0.0,0.0,0.0,0.0,0.0,0.0,0.0,0.0,0.0,-6.5799,-6.5644,-6.6185,-6.7771,-6.9009,-6.9821,-7.0672,-7.0789,-7.017,-6.9357,-6.851,-6.768,-6.7126,-6.6898,0.0,0.0,0.0,0.0,0.0,0.0,0.0,0.0,0.0,0.0,0.0,0.0,0.0,-6.5025,-6.5227,-6.5589,-6.4839,0.0,0.0,0.0,0.0,0.0,-6.2208,-6.4211,-6.6185,-6.6031,-6.6224,-6.634,-6.6069,-6.4909,-6.3874,-6.3719,-6.3719,-6.399,-6.4841,-6.4986,-6.5296,-6.6263,-6.7177,-6.8293,-6.971,-7.0695,-7.1269,-7.1269,-7.1269,-7.128,-7.128,-7.1291,-7.1291,-7.1291,-7.1175,-7.0789,-7.0054,-6.9744,-6.897,-6.7539,-6.7376,-6.7319,-6.7319,-6.6583,-6.6245,-6.6244,-6.6244,-6.6325,-6.6422,-6.6316,-6.6316,-6.6384,-6.6156,-6.5635,-6.4986,-6.488,-6.427,-6.333,-6.2586,-6.2148,-6.1858,-6.1153,-6.0877,-6.0793,0.0,0.0,0.0,0.0,0.0,0.0,0.0,0.0,0.0,0.0,0.0,0.0,0.0,0.0,0.0,0.0,0.0,0.0,0.0,0.0,0.0,-6.8468,-6.7578,-6.6843,-6.6224,-6.7191,-6.8119,-6.897,-6.9783,-7.0518,-7.1059,-7.0208,-6.9097,-6.7776,-6.7816,-6.7484,-6.6914,-6.6914,0.0,0.0,-6.6836,0.0,0.0,0.0,0.0,0.0,0.0,0.0,0.0,-6.3952,-6.3951,-6.3966,-6.3748,0.0,0.0,0.0,0.0,0.0,-6.2102,-6.4211,-6.6031,-6.5334,-6.6263,-6.692,-6.5489,-6.4986,-6.4609,-6.3835,-6.3719,-6.399,-6.4841,-6.4986,-6.5489,-6.7036,-6.853,-6.9594,-6.9845,-7.0628,-7.113,-7.113,-7.119,-7.1224,-7.1224,-7.1269,-7.1291,-7.1291,-7.0634,-7.0131,-7.0015,-6.8661,-6.7771,-6.7501,-6.6889,-6.6586,-6.6586,-6.6431,-6.6422,-6.654,-6.654,-6.6546,-6.6563,-6.6546,-6.6491,-6.6353,-6.5592,-6.5183,-6.4948,-6.4222,-6.34,-6.2569,-6.2374,-6.1842,-6.1165,-6.0982,-6.09,-6.0888,0.0,0.0,0.0,0.0,0.0,0.0,0.0,0.0,0.0,0.0,0.0,0.0,0.0,0.0,0.0,0.0,0.0,0.0,0.0,0.0,-7.0131,-6.8854,-6.8429,-6.781,-6.692,-6.7771,-6.8622,-6.9435,-7.0286,-7.0905,-7.1264,-7.0084,-6.8929,-6.7922,-6.8062,-6.7926,-6.7617,-6.7617,-6.7617,0.0,0.0,0.0,0.0,0.0,0.0,0.0,0.0,0.0,0.0,0.0,-6.3225,-6.346,-6.2976,0.0,0.0,0.0,0.0,0.0,-6.1494,-6.3515,-6.545,-6.5102,-6.6611,-6.7887,-6.6611,-6.5644,-6.4599,-6.3284,-6.3013,-6.3245,-6.4145,-6.43,-6.5121,-6.7686,-6.9119,-7.0037,-7.0439,-7.085,-7.1106,-7.1106,-7.0729,-7.0506,-7.0506,-7.0176,-6.9938,-6.9938,-6.9589,-6.9164,-6.8661,-6.7926,-6.7319,-6.6928,-6.6578,-6.6432,-6.6566,-6.6571,-6.6566,-6.659,-6.659,-6.6624,-6.667,-6.6619,-6.66,-6.6522,-6.5537,-6.48,-6.4291,-6.337,-6.2472,-6.1689,-6.1669,-6.1379,-6.0992,-6.0916,-6.0888,-6.0816,0.0,0.0,0.0,0.0,0.0,0.0,0.0,0.0,0.0,0.0,0.0,0.0,0.0,0.0,0.0,0.0,0.0,0.0,0.0,0.0,-7.0243,-6.9159,-6.8914,-6.8313,-6.723,-6.8042,-6.9009,-6.9976,-7.0672,-7.1014,-7.1038,-7.0136,-6.9124,-6.801,-6.8356,-6.8398,-6.8203,-6.8203,-6.8203,0.0,0.0,0.0,0.0,0.0,0.0,0.0,0.0,0.0,0.0,0.0,0.0,0.0,0.0,0.0,0.0,-6.1081,-6.0944,-6.1046,-6.1262,-6.2974,-6.4725,-6.4948,-6.6611,-6.8081,-6.7617,-6.6031,-6.4367,-6.3245,-6.2859,-6.2975,-6.3835,-6.4319,-6.5438,-6.8147,-6.9319,-7.0131,-7.0876,-7.1018,-7.1056,-7.1081,-7.0358,-6.9903,-6.9915,-6.9237,-6.8816,-6.8816,-6.8622,-6.8197,-6.7539,-6.7307,-6.6941,-6.6423,-6.6227,-6.6207,-6.6405,-6.6221,-6.6324,-6.6662,-6.6662,-6.6691,-6.6733,-6.6688,-6.6567,-6.6321,-6.5338,-6.4364,-6.3439,-6.2521,-6.1735,-6.1118,-6.1118,-6.1051,-6.0992,-6.0927,-6.0888,-6.0804,0.0,0.0,0.0,0.0,0.0,0.0,0.0,0.0,0.0,0.0,0.0,0.0,0.0,0.0,0.0,0.0,0.0,0.0,0.0,0.0,-6.939,-7.0074,-6.9276,-6.8003,-6.634,-6.7152,-6.839,-6.9976,-7.0054,-7.0167,-7.0316,-7.1204,-7.0306,-6.8049,-6.8903,-6.8906,-6.8203,-6.8203,-6.8203,-6.8203,-6.8125,0.0,0.0,0.0,0.0,0.0,0.0,0.0,0.0,0.0,0.0,0.0,0.0,0.0,-6.087,-6.0888,-6.0944,-6.1201,-6.1996,-6.2974,-6.399,-6.4803,-6.5682,-6.6572,-6.7346,-6.5566,-6.399,-6.4677,-6.4184,-6.3874,-6.4764,-6.6144,-6.747,-6.8455,-6.927,-7.0067,-7.0796,-7.0912,-7.0939,-7.1005,-7.0336,-6.9895,-6.9915,-6.9237,-6.8816,-6.8816,-6.8042,-6.7578,-6.7501,-6.6727,-6.6322,-6.6384,-6.5738,-6.542,-6.5507,-6.4799,-6.5273,-6.6874,-6.6874,-6.6874,-6.6875,-6.6874,-6.6358,-6.5468,-6.4604,-6.3661,-6.2624,-6.1723,-6.1275,-6.1118,-6.1118,-6.1051,-6.0992,-6.0969,-6.0955,-6.09,0.0,0.0,0.0,0.0,0.0,0.0,0.0,0.0,0.0,0.0,0.0,0.0,0.0,0.0,0.0,0.0,0.0,0.0,0.0,-6.7943,-6.8582,-6.786,-6.8462,-6.7965,-6.6224,-6.7578,-6.8622,-6.9241,-7.039,-7.1007,-7.1128,-7.1082,-7.0286,-6.8901,-6.9257,-6.8945,-6.8203,-6.8203,-6.8203,-6.8164,-6.7617,0.0,0.0,0.0,0.0,0.0,0.0,0.0,0.0,0.0,-6.107,-6.1,-6.1008,-6.0944,-6.0877,-6.0816,-6.0922,-6.1074,-6.1404,-6.2568,-6.3797,-6.4106,-6.4831,-6.5799,-6.7191,-6.6766,-6.5992,-6.5799,-6.5489,-6.517,-6.4984,-6.6234,-6.7413,-6.769,-6.886,-6.9848,-7.009,-7.0591,-7.0733,-7.0298,-6.9552,-6.8892,-6.8408,-6.7662,-6.7191,-6.7191,-6.6882,-6.6688,-6.6688,-6.6456,-6.6136,-6.5738,-6.5502,-6.5148,-6.472,-6.4452,-6.4648,-6.5273,-6.582,-6.6094,-6.6094,-6.6094,-6.5898,-6.5423,-6.3999,-6.312,-6.2597,-6.1694,-6.1213,-6.1118,-6.1118,-6.1051,-6.1002,-6.1018,-6.0955,-6.09,0.0,0.0,0.0,0.0,0.0,0.0,0.0,0.0,0.0,0.0,0.0,0.0,0.0,0.0,0.0,0.0,0.0,0.0,-6.4958,-6.6483,-6.734,-6.7267,-6.7769,-6.76,-6.6611,-6.7771,-6.8661,-6.9164,-7.1021,-7.1868,-7.1716,-7.1245,-7.0617,-6.9805,-6.9531,-6.9101,-6.8594,-6.832,-6.8203,-6.8164,-6.7539,-6.6289,0.0,0.0,0.0,0.0,0.0,0.0,0.0,0.0,-6.1041,-6.1002,-6.099,-6.0927,-6.0911,-6.0888,-6.0933,-6.0997,-6.1018,-6.1901,-6.2936,-6.3207,-6.3748,-6.4677,-6.665,-6.6882,-6.6766,-6.6998,-6.6804,-6.632,-6.5456,-6.6163,-6.6954,-6.7152,-6.8129,-6.8975,-6.9244,-6.9796,-6.9951,-6.9489,-6.8702,-6.7988,-6.7476,-6.6668,-6.6185,-6.6185,-6.6185,-6.6185,-6.6185,-6.6062,-6.5796,-6.5294,-6.4847,-6.4395,-6.3906,-6.3633,-6.3476,-6.3476,-6.4375,-6.4922,-6.5195,-6.5195,-6.5039,-6.4726,-6.3468,-6.2683,-6.2231,-6.1606,-6.1259,-6.1118,-6.1118,-6.106,-6.1022,-6.1,-6.0987,-6.0933,0.0,0.0,0.0,0.0,0.0,0.0,0.0,0.0,0.0,0.0,0.0,0.0,0.0,0.0,0.0,0.0,0.0,0.0,-6.4072,-6.4138,-6.5585,-6.8928,-6.7352,-6.676,-6.7462,-6.7501,-6.8313,-6.9987,-7.1916,-7.2491,-7.1795,-7.191,-7.1523,-7.0625,-6.9765,-6.9414,-6.9414,-6.8555,-6.8164,-6.8164,-6.8164,-6.7148,-6.5468,0.0,0.0,0.0,0.0,0.0,0.0,0.0,-6.1041,-6.1002,-6.1002,-6.0969,-6.0922,-6.0976,-6.0987,-6.1008,-6.0992,-6.1041,-6.1311,-6.2201,-6.2433,-6.3091,-6.5605,-6.5566,-6.5721,-6.8274,-6.8081,-6.7209,-6.6267,-6.6047,-6.6248,-6.7075,-6.7128,-6.7398,-6.8282,-6.845,-6.8525,-6.8586,-6.7872,-6.7437,-6.749,-6.6727,-6.6185,-6.6185,-6.6185,-6.6185,-6.6185,-6.5472,-6.5167,-6.526,-6.3712,-6.291,-6.3008,-6.2148,-6.1719,-6.1719,-6.2578,-6.3437,-6.4297,-6.4297,-6.3828,-6.3008,-6.3008,-6.2361,-6.1412,-6.1412,-6.1266,-6.1118,-6.1118,-6.1118,-6.107,-6.1022,-6.1,-6.0987,0.0,0.0,0.0,0.0,0.0,0.0,0.0,0.0,0.0,0.0,0.0,0.0,0.0,0.0,0.0,0.0,0.0,0.0,-6.2497,-6.349,-6.4531,-6.5455,-6.6061,-6.645,-6.6572,-6.781,-6.8975,-7.0123,-7.022,-7.0468,-7.0933,-7.0425,-6.9726,-6.8945,-6.8672,-6.789,-6.6797,-6.7148,-6.6914,-6.6367,-6.6367,-6.6055,-6.5429,0.0,0.0,0.0,0.0,0.0,0.0,0.0,0.0,0.0,-6.1012,-6.1407,-6.1762,-6.1152,-6.1443,-6.1793,-6.1157,-6.1505,-6.2085,-6.2356,-6.3323,-6.4445,-6.518,-6.5605,-6.6224,-6.7617,-6.7191,-6.6464,-6.6097,-6.6013,-6.6055,-6.6255,-6.6718,-6.7167,-6.7436,-6.8065,-6.8282,-6.7737,-6.7525,-6.7205,-6.6639,-6.634,-6.6185,-6.6185,-6.5682,-6.5393,-6.5403,-6.4746,-6.4096,-6.3637,-6.3185,-6.2693,-6.2109,-6.1836,-6.1719,-6.1719,-6.1953,-6.2539,-6.3398,-6.3398,-6.3242,-6.2969,-6.2344,-6.1865,-6.1534,-6.1401,-6.1252,-6.1118,-6.1118,-6.1118,-6.1109,-6.101,-6.1008,-6.0976,0.0,0.0,0.0,0.0,0.0,0.0,0.0,0.0,0.0,0.0,-6.4258,0.0,0.0,0.0,0.0,0.0,0.0,0.0,0.0,-6.261,-6.3399,-6.399,-6.4627,-6.5312,-6.6195,-6.723,-6.8422,-6.9752,-6.9679,-6.9783,-7.0102,-6.9647,-6.8984,-6.8203,-6.8203,-6.7422,-6.6133,-6.6328,-6.5898,-6.5078,-6.5078,-6.5078,-6.4922,0.0,0.0,0.0,0.0,0.0,0.0,0.0,0.0,0.0,-6.1041,-6.137,-6.1697,-6.1175,-6.1378,-6.1669,-6.1186,-6.1708,-6.2472,-6.282,-6.398,-6.5064,-6.5412,-6.6108,-6.6766,-6.6959,-6.6843,-6.658,-6.6101,-6.6001,-6.5967,-6.5923,-6.632,-6.6628,-6.6628,-6.7127,-6.7316,-6.685,-6.6852,-6.6724,-6.6263,-6.6185,-6.6185,-6.6185,-6.545,-6.5034,-6.5087,-6.407,-6.3284,-6.2925,-6.2612,-6.2226,-6.1719,-6.1719,-6.1719,-6.1719,-6.1719,-6.1992,-6.2461,-6.2461,-6.2461,-6.2461,-6.1911,-6.1618,-6.152,-6.1361,-6.1213,-6.1118,-6.1118,-6.1118,-6.1109,-6.1021,-6.1008,-6.0976,0.0,0.0,0.0,0.0,0.0,0.0,0.0,0.0,0.0,0.0,-6.2422,-6.2461,0.0,0.0,0.0,0.0,0.0,0.0,0.0,0.0,-6.2378,-6.3938,-6.3315,-6.4001,-6.6273,-6.6417,-6.7282,-6.8972,-6.9785,-6.9806,-6.918,-6.9219,-6.8789,-6.7969,-6.8047,-6.7539,-6.6601,-6.5898,-6.5039,-6.418,-6.418,-6.4219,-6.4179,-6.3186,0.0,0.0,0.0,0.0,0.0,0.0,0.0,0.0,-6.1118,-6.1128,-6.1138,-6.1099,-6.1128,-6.1138,-6.1186,-6.1814,-6.2627,-6.3603,-6.4493,-6.5296,-6.6031,-6.6804,-6.7152,-6.6379,-6.6843,-6.7121,-6.619,-6.6013,-6.5978,-6.5935,-6.591,-6.591,-6.591,-6.597,-6.6013,-6.6013,-6.6123,-6.6185,-6.6185,-6.6147,-6.6108,-6.6108,-6.5257,-6.4811,-6.4869,-6.3408,-6.266,-6.2776,-6.2066,-6.1719,-6.1719,-6.1719,-6.1719,-6.1719,-6.1719,-6.1719,-6.1719,-6.1719,-6.1719,-6.1719,-6.1626,-6.1537,-6.1403,-6.1337,-6.1221,-6.1118,-6.1118,-6.1118,-6.107,-6.1012,-6.1,-6.0987,0.0,0.0,0.0,0.0,0.0,0.0,0.0,0.0,0.0,0.0,0.0,0.0,0.0,0.0,0.0,0.0,0.0,0.0,0.0,0.0,-6.2145,-6.3123,-6.4065,-6.5405,-6.7191,-6.7887,-6.8204,-6.8081,-6.8271,-6.805,-6.7422,-6.7461,-6.6992,-6.6172,-6.6875,-6.6328,-6.4883,-6.539,-6.4687,-6.3281,-6.3281,-6.3672,-6.414,-6.2577,-6.2333,0.0,0.0,0.0,0.0,0.0,0.0,0.0,-6.1118,-6.1573,-6.195,-6.1302,-6.1573,-6.2105,-6.2114,-6.2278,-6.2781,-6.4329,-6.5334,-6.5992,-6.6147,-6.634,-6.6417,-6.6224,-6.634,-6.6397,-6.6129,-6.608,-6.6047,-6.5996,-6.5984,-6.5984,-6.5984,-6.6005,-6.6024,-6.6069,-6.6144,-6.6185,-6.6185,-6.5644,-6.5257,-6.5257,-6.3826,-6.3042,-6.3225,-6.225,-6.1755,-6.195,-6.1796,-6.1719,-6.1719,-6.1719,-6.1719,-6.1719,-6.1719,-6.1719,-6.1719,-6.1719,-6.1719,-6.1719,-6.1679,-6.1571,-6.1412,-6.1388,-6.1278,-6.1118,-6.1118,-6.1118,-6.1109,-6.101,-6.1008,-6.0976,0.0,0.0,0.0,0.0,0.0,0.0,0.0,0.0,0.0,0.0,0.0,0.0,0.0,0.0,0.0,0.0,0.0,0.0,0.0,-6.1719,-6.2066,-6.2855,-6.3979,-6.5132,-6.6338,-6.7125,-6.7467,-6.7219,-6.6824,-6.6684,-6.6914,-6.7344,-6.707,-6.625,-6.6719,-6.6172,-6.4883,-6.4531,-6.3594,-6.2383,-6.2383,-6.2656,-6.2969,-6.2031,-6.1951,-6.2252,-6.1696,0.0,0.0,0.0,0.0,0.0,0.0,0.0,-6.1698,-6.1234,-6.1427,-6.1776,-6.1776,-6.2394,-6.3439,-6.5141,-6.5876,-6.6185,-6.6185,-6.6185,-6.6185,-6.6185,-6.6185,-6.6165,-6.6112,-6.6102,-6.6069,-6.6017,-6.6005,-6.6005,-6.6005,-6.6013,-6.6069,-6.6091,-6.6155,-6.6031,-6.5644,-6.5257,-6.4841,-6.4416,-6.3168,-6.2477,-6.2679,-6.1875,-6.1491,-6.168,-6.1719,-6.1719,-6.1719,-6.1719,-6.1719,-6.1719,-6.1719,-6.1719,-6.1719,-6.1719,-6.1719,-6.1719,-6.1719,-6.158,-6.1412,-6.1412,-6.1272,-6.1118,-6.1118,-6.1118,-6.1099,-6.1029,-6.0987,-6.0976,0.0,0.0,0.0,0.0,0.0,0.0,0.0,0.0,0.0,0.0,0.0,0.0,0.0,0.0,0.0,0.0,0.0,0.0,0.0,-6.1719,-6.2106,-6.305,-6.3522,-6.4193,-6.5079,-6.5672,-6.6109,-6.64,-6.5655,-6.5943,-6.7148,-6.7695,-6.7578,-6.6914,-6.6914,-6.6328,-6.5273,-6.3672,-6.25,-6.1719,-6.1719,-6.1719,-6.1719,-6.1719,-6.1719,-6.1679,-6.1619,-6.1534,-6.1422,-6.1324,0.0,0.0,0.0,0.0,-6.1118,-6.1118,-6.1118,-6.1118,-6.1273,-6.2588,-6.4261,-6.5644,-6.6108,-6.6185,-6.6185,-6.6185,-6.6147,-6.6031,-6.6108,-6.6175,-6.6123,-6.6112,-6.6091,-6.6036,-6.6024,-6.6024,-6.6024,-6.6069,-6.6102,-6.6112,-6.6155,-6.5876,-6.5064,-6.488,-6.4416,-6.3526,-6.2665,-6.2244,-6.2445,-6.1797,-6.1491,-6.168,-6.1719,-6.1719,-6.1719,-6.1719,-6.1719,-6.1719,-6.1719,-6.1719,-6.1719,-6.1719,-6.1719,-6.1719,-6.1679,-6.1573,-6.1412,-6.1393,-6.1285,-6.1118,-6.1118,-6.107,-6.109,-6.1,-6.0997,-6.0965,0.0,0.0,0.0,0.0,0.0,0.0,0.0,0.0,0.0,0.0,-6.2461,-6.2656,-6.1797,-6.1914,0.0,0.0,0.0,0.0,-6.1719,0.0,0.0,-6.3862,-6.3245,-6.357,-6.5064,-6.513,-6.5256,-6.547,-6.5343,-6.6255,-6.8008,-6.7383,-6.6992,-6.6914,-6.6914,-6.6015,-6.4414,-6.3437,-6.25,-6.1719,-6.1719,-6.1719,-6.1719,-6.1719,-6.1719,-6.1679,-6.1619,-6.1601,-6.1537,-6.1355,-6.1296,0.0,0.0,0.0,-6.1118,-6.1118,-6.1118,-6.1273,-6.2008,-6.3516,-6.488,-6.5102,-6.5682,-6.6185,-6.6185,-6.6185,-6.5992,-6.5296,-6.5721,-6.6185,-6.6175,-6.6175,-6.6155,-6.6102,-6.6091,-6.6091,-6.6091,-6.6091,-6.6123,-6.6165,-6.6185,-6.5876,-6.5064,-6.4338,-6.3516,-6.2627,-6.1776,-6.1352,-6.1554,-6.1451,-6.1491,-6.168,-6.1719,-6.1719,-6.1719,-6.1719,-6.1719,-6.1719,-6.1719,-6.1719,-6.1719,-6.1719,-6.1719,-6.1719,-6.1627,-6.154,-6.1403,-6.1343,-6.1229,-6.1118,-6.1118,-6.1051,-6.1012,-6.1002,-6.0969,-6.0922,0.0,0.0,0.0,0.0,0.0,0.0,0.0,0.0,0.0,0.0,0.0,-6.2656,-6.1797,-6.1719,0.0,0.0,0.0,0.0,-6.1719,-6.1719,0.0,0.0,-6.3037,-6.3116,-6.3753,-6.3689,-6.372,-6.378,-6.333,-6.4836,-6.8075,-6.7264,-6.7422,-6.8359,-6.7851,-6.664,-6.4922,-6.3047,-6.2031,-6.1719,-6.1719,-6.1719,-6.1719,-6.1719,-6.1719,-6.1719,-6.1676,-6.1624,-6.1593,-6.1398,-6.1331,-6.1281,-6.1143,0.0,0.0,0.0,-6.1118,-6.1273,-6.2162,-6.2975,-6.3787,-6.4754,-6.5257,-6.5644,-6.6108,-6.5837,-6.5412,-6.5064,-6.487,-6.4793,-6.4793,-6.518,-6.5518,-6.5497,-6.5874,-6.6144,-6.6144,-6.6144,-6.6155,-6.6185,-6.6185,-6.5682,-6.4416,-6.3913,-6.3129,-6.1776,-6.1311,-6.1205,-6.1403,-6.1412,-6.1491,-6.168,-6.1719,-6.1719,-6.1719,-6.1719,-6.1719,-6.1719,-6.1719,-6.1719,-6.1719,-6.1719,-6.1719,-6.1719,-6.1676,-6.1562,-6.1408,-6.1362,-6.125,-6.1118,-6.1118,-6.106,-6.1041,-6.1021,-6.098,-6.0959,0.0,0.0,0.0,0.0,0.0,0.0,0.0,0.0,0.0,0.0,0.0,0.0,-6.1758,0.0,0.0,0.0,0.0,0.0,-6.1094,0.0,0.0,0.0,0.0,-6.2275,-6.2352,-6.2309,-6.2398,-6.2606,-6.1762,-6.3631,-6.7976,-6.7453,-6.8124,-6.9765,-6.8672,-6.7109,-6.5117,-6.2969,-6.2031,-6.1992,-6.1797,-6.1719,-6.1719,-6.1719,-6.1719,-6.1719,-6.1719,-6.1676,-6.1614,-6.1478,-6.1383,-6.1298,-6.1173,-6.1116,0.0,0.0,0.0,-6.1234,-6.1892,-6.224,-6.2704,-6.4019,-6.4522,-6.487,-6.5721,-6.5257,-6.4687,-6.4687,-6.399,-6.3284,-6.31,-6.3952,-6.4725,-6.4948,-6.5489,-6.5953,-6.6185,-6.6185,-6.6185,-6.6185,-6.6185,-6.5528,-6.3874,-6.3719,-6.2975,-6.1234,-6.1118,-6.1181,-6.1362,-6.1398,-6.1481,-6.1677,-6.1679,-6.1719,-6.1719,-6.1719,-6.1719,-6.1719,-6.1719,-6.1719,-6.1719,-6.1719,-6.1719,-6.1719,-6.1635,-6.1559,-6.1408,-6.1351,-6.1243,-6.1118,-6.1118,-6.1099,-6.107,-6.1059,-6.099,-6.0941,0.0,0.0,0.0,0.0,0.0,0.0,0.0,0.0,0.0,0.0,0.0,0.0,-6.1719,-6.1719,-6.1367,-6.0547,-6.0469,0.0,0.0,0.0,0.0,0.0,0.0,0.0,-6.1451,-6.1415,-6.1776,-6.2606,-6.1744,-6.3603,-6.8015,-6.7978,-6.8894,-7.0586,-6.8945,-6.6758,-6.4297,-6.3359,-6.293,-6.2851,-6.2031,-6.1719,-6.1719,-6.1719,-6.1719,-6.1719,-6.1719,-6.1719,-6.1679,-6.1616,-6.1517,-6.1388,-6.1305,-6.1189,-6.1118,0.0,0.0,0.0,-6.1157,-6.1776,-6.2433,-6.2511,-6.3168,-6.399,-6.487,-6.4377,-6.3758,-6.3758,-6.3052,-6.224,-6.1389,-6.2627,-6.4029,-6.488,-6.5025,-6.5334,-6.6108,-6.6185,-6.6185,-6.6185,-6.6185,-6.5528,-6.3874,-6.3719,-6.2975,-6.1234,-6.1118,-6.1169,-6.131,-6.1356,-6.146,-6.1607,-6.1676,-6.1719,-6.1719,-6.1719,-6.1719,-6.1719,-6.1719,-6.1719,-6.1719,-6.1719,-6.1719,-6.1679,-6.1495,-6.1422,-6.1398,-6.1174,-6.1098,-6.1118,-6.1118,-6.1051,-6.1008,-6.107,-6.098,-6.0827,0.0,0.0,0.0,0.0,0.0,0.0,0.0,0.0,0.0,0.0,0.0,0.0,0.0,-6.1719,-6.1562,-6.125,-6.1211,0.0,0.0,0.0,0.0,0.0,0.0,0.0,-6.1534,-6.1412,-6.1511,-6.1776,-6.1465,-6.2735,-6.5414,-6.5535,-6.6236,-6.7461,-6.7969,-6.707,-6.5,-6.3008,-6.2187,-6.2148,-6.1836,-6.1719,-6.1719,-6.1719,-6.1719,-6.1719,-6.1719,-6.1719,-6.1679,-6.1619,-6.1524,-6.1276,-6.065,-6.0414,-6.0228,-5.9648,-5.9493,-5.9493,-5.9493,-6.0112,-6.0925,-6.1427,-6.224,-6.3091,-6.399,-6.3478,-6.2859,-6.2859,-6.2162,-6.1466,-6.1157,-6.2085,-6.3129,-6.4029,-6.4648,-6.5257,-6.6108,-6.6185,-6.6185,-6.6185,-6.6185,-6.5528,-6.3874,-6.3719,-6.2975,-6.1234,-6.1118,-6.1173,-6.1345,-6.1393,-6.1478,-6.1674,-6.1679,-6.1719,-6.1719,-6.1719,-6.1719,-6.1719,-6.1719,-6.1719,-6.1719,-6.1719,-6.1719,-6.1679,-6.1568,-6.1467,-6.1408,-6.1322,-6.1213,-6.1118,-6.1118,-6.109,-6.106,-6.1032,-6.1002,-6.0972,0.0,0.0,0.0,0.0,0.0,0.0,0.0,0.0,-6.2031,-6.1758,0.0,0.0,0.0,0.0,-6.1562,-6.1289,-6.1015,-6.0859,-6.0859,-6.0859,0.0,0.0,0.0,0.0,-6.1605,-6.1212,-6.114,-6.1337,-6.1026,-6.199,-6.408,-6.4166,-6.4869,-6.6055,-6.664,-6.625,-6.5039,-6.332,-6.2383,-6.2109,-6.1836,-6.1719,-6.1719,-6.1719,-6.1719,-6.1719,-6.1719,-6.1719,-6.1679,-6.1631,-6.1557,-6.1287,-6.0367,-5.9808,-5.9339,-5.8767,-5.8613,-5.8613,-5.8613,-5.9223,-6.0035,-6.0576,-6.135,-6.2201,-6.3052,-6.2588,-6.2046,-6.2356,-6.1698,-6.1118,-6.1118,-6.1582,-6.224,-6.3129,-6.398,-6.4831,-6.5682,-6.6031,-6.6185,-6.6185,-6.6185,-6.5644,-6.4261,-6.3874,-6.3091,-6.166,-6.1273,-6.1173,-6.1345,-6.1393,-6.1491,-6.168,-6.1719,-6.1719,-6.1719,-6.1719,-6.1719,-6.1719,-6.1719,-6.1719,-6.1719,-6.1719,-6.1719,-6.1719,-6.1632,-6.1551,-6.1408,-6.1373,-6.1264,-6.1118,-6.1118,-6.1109,-6.1051,-6.1032,-6.107,-6.106,0.0,0.0,0.0,0.0,0.0,0.0,0.0,0.0,-6.2695,-6.1836,0.0,0.0,0.0,0.0,0.0,-6.0508,-5.9726,-5.9258,-5.9258,-5.9258,0.0,0.0,0.0,0.0,-6.1607,-6.0785,-6.0678,-6.1417,-6.055,-6.1499,-6.4106,-6.4106,-6.5064,-6.6719,-6.5039,-6.4258,-6.4258,-6.4219,-6.375,-6.289,-6.2031,-6.1719,-6.1719,-6.1719,-6.1719,-6.1719,-6.1719,-6.1719,-6.1719,-6.1719,-6.1633,-6.14,-6.0434,-5.9394,-5.8544,-5.8544,-5.8535,-5.8535,0.0,0.0,0.0,-5.9841,-6.046,-6.1311,-6.2162,-6.1698,-6.135,-6.2201,-6.1698,-6.1118,-6.1118,-6.1118,-6.1389,-6.224,-6.3091,-6.399,-6.488,-6.5682,-6.6185,-6.6185,-6.6185,-6.5876,-6.5064,-6.4222,-6.3362,-6.2472,-6.1621,-6.1208,-6.1303,-6.1362,-6.1495,-6.168,-6.1719,-6.1719,-6.1719,-6.1719,-6.1719,-6.1719,-6.1719,-6.1719,-6.1719,-6.1719,-6.1719,-6.1719,-6.1719,-6.158,-6.1408,-6.1331,-6.1213,-6.1118,-6.1118,-6.1051,-6.1012,-6.1099,-6.1051,-6.1008,0.0,0.0,0.0,0.0,0.0,-6.7109,-6.6601,-6.4531,-6.289,0.0,0.0,0.0,-6.1719,-6.1719,-6.1601,-6.1367,-6.1133,-6.1015,-6.1015,-6.1015,-6.1094,-6.1328,-6.1328,-6.1445,-6.1677,-6.1385,-6.1325,-6.1543,-6.1214,-6.1499,-6.2308,-6.2308,-6.2954,-6.4062,-6.3555,-6.3359,-6.332,-6.2695,-6.2265,-6.2031,-6.1797,-6.1719,-6.1719,-6.1719,-6.1719,-6.1719,-6.1719,-6.1719,-6.1719,-6.1719,-6.1243,-6.0386,-5.8792,-5.7673,-5.6942,-5.6886,-5.6851,-5.683,-5.6742,0.0,0.0,0.0,0.0,0.0,-6.0654,-6.0847,-6.1157,-6.1427,-6.1273,-6.1118,-6.1118,-6.1118,-6.1195,-6.1427,-6.2704,-6.399,-6.488,-6.5682,-6.6185,-6.6185,-6.6185,-6.5876,-6.5064,-6.4803,-6.4019,-6.2511,-6.2201,-6.184,-6.1395,-6.1549,-6.1635,-6.1719,-6.1719,-6.1719,-6.1719,-6.1719,-6.1719,-6.1719,-6.1719,-6.1719,-6.1719,-6.1719,-6.1719,-6.1719,-6.1719,-6.1632,-6.1537,-6.1412,-6.1271,-6.1118,-6.1118,-6.1109,-6.106,-6.107,-6.1099,-6.108,0.0,0.0,0.0,-6.9453,-6.8632,-6.7695,-6.6992,-6.5,-6.3555,0.0,0.0,0.0,-6.2187,-6.2226,-6.2226,-6.2226,-6.1914,-6.1719,-6.1719,-6.1719,-6.1719,-6.1719,-6.1719,-6.1719,-6.1719,-6.1323,-6.1277,-6.1629,-6.1215,-6.1215,-6.1629,-6.1629,-6.1948,-6.2461,-6.2461,-6.2461,-6.2422,-6.1914,-6.1719,-6.1719,-6.1719,-6.1719,-6.1719,-6.1719,-6.1719,-6.1719,-6.1719,-6.1719,-6.1719,-6.1719,-6.0813,-5.9568,-5.8517,-5.7315,-5.6299,-5.6236,-5.6258,-5.6308,-5.6512,-5.7591,-5.8621,-5.8428,0.0,0.0,-6.0074,-6.0267,-6.0615,-6.0615,-6.0615,-6.0692,-6.1041,-6.1118,-6.1118,-6.1118,-6.2278,-6.3439,-6.4338,-6.518,-6.5953,-6.665,-6.6417,-6.6147,-6.6031,-6.5412,-6.4445,-6.3052,-6.2662,-6.2196,-6.1537,-6.1629,-6.1719,-6.1719,-6.1719,-6.1719,-6.1719,-6.1719,-6.1719,-6.1719,-6.1719,-6.1719,-6.1719,-6.1719,-6.1719,-6.1719,-6.1719,-6.1674,-6.1603,-6.1527,-6.1351,-6.1195,-6.1195,-6.1152,-6.1118,-6.1118,-6.1118,-6.1118,0.0,0.0,-6.9645,-6.9567,-6.945,-6.8903,-6.7419,-6.5624,-6.4453,0.0,-6.3008,-6.2265,-6.3047,-6.3047,-6.3008,-6.3008,-6.2187,-6.1719,-6.1719,-6.1719,-6.1719,-6.1719,-6.1719,-6.1719,-6.1719,-6.0937,-6.0937,-6.1719,-6.0937,-6.0937,-6.1719,-6.1719,-6.1719,-6.1719,-6.1719,-6.164,-6.1562,-6.1562,-6.1562,-6.1562,-6.164,-6.164,-6.1562,-6.164,-6.1719,-6.1719,-6.1719,-6.1719,-6.168,-6.1601,-6.0502,-5.9113,-5.8957,-5.7835,-5.657,-5.6367,-5.6402,-5.6576,-5.7124,-5.7897,-5.8757,-5.9481,-6.0252,0.0,-6.0071,-5.9916,-5.9946,-6.0005,-6.0035,-6.0267,-6.0963,-6.1118,-6.1118,-6.1118,-6.1737,-6.2588,-6.3565,-6.4532,-6.5721,-6.7307,-6.6882,-6.6766,-6.7423,-6.6147,-6.4841,-6.3797,-6.2936,-6.2213,-6.164,-6.1675,-6.1719,-6.1719,-6.1719,-6.1719,-6.1719,-6.1719,-6.1719,-6.1719,-6.1719,-6.1719,-6.1719,-6.1719,-6.1719,-6.1719,-6.1719,-6.1675,-6.1612,-6.1612,-6.1499,-6.1291,-6.1317,-6.1221,-6.1107,-6.1127,-6.1118,-6.1118,-7.0819,-7.1245,-7.1279,-7.0576,-6.9873,-6.929,-6.8942,-6.6873,-6.535,-6.5351,-6.4453,-6.3867,-6.4023,-6.3437,-6.3008,-6.3008,-6.2187,-6.1719,-6.1719,-6.1719,-6.1719,-6.1719,-6.1719,-6.1719,-6.1719,-6.1523,-6.1523,-6.1719,-6.1523,-6.1523,-6.1719,-6.1719,-6.1719,-6.1719,-6.1719,-6.1328,-6.0664,-6.0664,-6.0664,-6.0703,-6.1406,-6.1289,-6.0742,-6.1445,-6.1719,-6.1719,-6.1719,-6.1719,-6.1601,-6.0898,-6.0429,-5.9881,-5.8553,-5.8356,-5.8351,-5.6877,-5.6904,-5.7283,-5.6697,-5.7133,-5.7868,-5.8008,-5.8698,0.0,-5.9883,-5.9971,-6.0166,-6.072,-6.0886,-6.0925,-6.1079,-6.1118,-6.1118,-6.1118,-6.1234,-6.1892,-6.3487,-6.5025,-6.634,-6.7384,-6.7965,-6.8081,-6.7539,-6.7191,-6.6069,-6.3874,-6.2412,-6.163,-6.1601,-6.1675,-6.1719,-6.1719,-6.1719,-6.1719,-6.1719,-6.1719,-6.1719,-6.1719,-6.1719,-6.1719,-6.1719,-6.1719,-6.1719,-6.1719,-6.1719,-6.1679,-6.1678,-6.1678,-6.1566,-6.1373,-6.1311,-6.1289,-6.1244,-6.1134,-6.1118,-6.1118,-7.015,-7.0067,-6.9905,-6.9475,-6.8694,-6.8266,-6.87,-6.6947,-6.5896,-6.6796,-6.6133,-6.543,-6.5,-6.418,-6.3633,-6.3633,-6.2461,-6.1719,-6.1719,-6.1719,-6.1719,-6.1719,-6.1719,-6.1719,-6.1719,-6.1719,-6.1719,-6.1719,-6.1719,-6.1719,-6.1719,-6.1719,-6.1719,-6.1719,-6.1719,-6.1211,-6.039,-6.039,-5.9922,-5.9258,-6.0547,-6.1055,-6.1094,-6.1523,-6.1719,-6.1719,-6.1719,-6.1719,-6.1562,-6.0703,-6.039,-6.0195,-5.8945,-5.8867,-5.8945,-5.7572,-5.7491,-5.768,-5.7127,-5.7301,-5.7758,-5.8148,-5.8875,0.0,0.0,-5.9756,-5.9993,-5.9917,-6.0214,-6.0499,-6.0499,-6.0847,-6.1118,-6.1118,-6.1118,-6.1543,-6.2859,-6.3787,-6.4948,-6.665,-6.723,-6.7501,-6.7501,-6.7501,-6.6496,-6.4039,-6.2747,-6.1935,-6.1669,-6.1678,-6.1719,-6.1719,-6.1719,-6.1719,-6.1719,-6.1719,-6.1719,-6.1719,-6.1719,-6.1719,-6.1719,-6.1719,-6.1719,-6.1719,-6.1719,-6.1719,-6.1719,-6.1719,-6.1634,-6.1559,-6.1491,-6.139,-6.1296,-6.1213,-6.1161,-6.1118,-6.9283,-6.8574,-6.8058,-6.7863,-6.7277,-6.7084,-6.7986,-6.6826,-6.6364,-6.7771,-6.7343,-6.6719,-6.6172,-6.5156,-6.4687,-6.5039,-6.3164,-6.2031,-6.2187,-6.1875,-6.1719,-6.1719,-6.1719,-6.1719,-6.1719,-6.1719,-6.1719,-6.1719,-6.1719,-6.1719,-6.1719,-6.1719,-6.1601,-6.1445,-6.164,-6.1133,-6.0156,-6.0156,-5.9492,-5.8476,-5.9687,-6.0508,-6.1015,-6.1328,-6.1445,-6.1484,-6.164,-6.1719,-6.1601,-6.0898,-6.0664,-6.0508,-5.9687,-5.9531,-5.9492,-5.8437,-5.8242,-5.832,-5.8069,-5.7865,-5.7975,-5.8939,-5.9432,-5.9623,0.0,0.0,0.0,-5.9335,-5.9716,-6.0175,-6.0175,-6.0681,-6.1118,-6.1118,-6.0963,-6.1157,-6.2046,-6.2008,-6.2936,-6.5644,-6.6108,-6.6417,-6.6959,-6.6727,-6.5834,-6.4148,-6.3039,-6.2226,-6.1718,-6.1719,-6.1719,-6.1719,-6.1719,-6.1719,-6.1719,-6.1719,-6.1719,-6.1719,-6.1719,-6.1719,-6.1719,-6.1719,-6.1719,-6.1719,-6.1719,-6.1601,-6.1445,-6.1445,-6.1327,-6.1209,-6.15,-6.1491,-6.1305,-6.1317,-6.1205,-6.1118,-6.8258,-6.8171,-6.7852,-6.7071,-6.6876,-6.7078,-6.7955,-6.7333,-6.683,-6.7031,-6.6953,-6.7148,-6.7812,-6.6445,-6.6055,-6.7617,-6.4765,-6.3164,-6.3945,-6.2578,-6.1719,-6.1719,-6.1719,-6.1719,-6.1719,-6.1719,-6.1719,-6.1719,-6.1719,-6.1719,-6.1719,-6.1719,-6.1289,-6.0586,-6.1367,-6.082,-5.9336,-5.9336,-5.9648,-6.0078,-5.9531,-5.8945,-5.8476,-5.9961,-6.0547,-6.0664,-6.1406,-6.1719,-6.168,-6.1601,-6.1562,-6.1406,-6.0547,-6.0781,-6.1094,-5.9531,-5.957,-5.9961,-5.9218,-5.8476,-5.8241,-5.9842,-5.9177,-5.8705,-6.0824,0.0,-6.0435,-6.0984,0.0,-6.1126,-6.1126,0.0,0.0,-6.1118,-6.0499,-6.0306,-6.1118,-6.0615,-6.1427,-6.4754,-6.576,-6.5953,-6.5334,-6.3903,-6.3244,-6.3954,-6.2499,-6.1605,-6.1679,-6.1719,-6.1719,-6.1719,-6.1719,-6.1719,-6.1719,-6.1719,-6.1719,-6.1719,-6.1719,-6.1719,-6.1719,-6.1719,-6.1719,-6.1719,-6.1719,-6.125,-6.0547,-6.0495,-6.0013,-5.9464,-6.0983,-6.1524,-6.1383,-6.1311,-6.1205,-6.1118,-6.5904,-6.5902,-6.578,-6.5392,-6.4921,-6.5043,-6.6457,-6.7601,-6.8197,-6.7734,-6.8086,-6.8555,-6.8906,-6.7383,-6.664,-6.7383,-6.5664,-6.4218,-6.3594,-6.285,-6.2225,-6.1719,-6.1718,-6.1718,-6.1719,-6.1719,-6.1719,-6.1719,-6.1719,-6.1719,-6.1719,-6.1719,-6.1484,-6.1172,-6.1523,-6.1015,-5.9883,-5.9414,-5.9101,-5.8906,-5.8594,-5.8242,-5.8125,-6.0312,-6.1133,-6.1211,-6.1562,-6.1719,-6.1601,-6.1133,-6.0937,-6.0898,-6.0508,-6.0312,-6.0117,-5.9414,-5.9062,-5.8867,-5.8555,-5.7812,-5.7578,-5.9297,-5.918,-5.9062,-6.0542,-6.0996,-6.1013,-6.0792,0.0,0.0,0.0,0.0,0.0,0.0,-6.0809,-6.0692,-6.1041,-6.0809,-6.1311,-6.3245,-6.4251,-6.4831,-6.4986,-6.3864,-6.3167,-6.3258,-6.2572,-6.2031,-6.1718,-6.1719,-6.1719,-6.1719,-6.1719,-6.1719,-6.1719,-6.1719,-6.1719,-6.1719,-6.1719,-6.1719,-6.1719,-6.1719,-6.1406,-6.0937,-6.0937,-6.0469,-5.9687,-5.9592,-5.9341,-5.9065,-5.9775,-6.0252,-6.0532,-6.0009,-6.0042,-6.0344,-6.3672,-6.3789,-6.3867,-6.3633,-6.3243,-6.3596,-6.5316,-6.7367,-6.8589,-6.8242,-6.8554,-6.9062,-6.9765,-6.8281,-6.7539,-6.8242,-6.7069,-6.5779,-6.4491,-6.3744,-6.3079,-6.2421,-6.1951,-6.1794,-6.2031,-6.1836,-6.1719,-6.1719,-6.1719,-6.1719,-6.1719,-6.1719,-6.1562,-6.1367,-6.1601,-6.1211,-6.0351,-5.9765,-5.9297,-5.8906,-5.8672,-5.8711,-5.9101,-6.0742,-6.1484,-6.1719,-6.1719,-6.1719,-6.1601,-6.0976,-6.0742,-6.0742,-6.0742,-6.0195,-5.9531,-5.9531,-5.8906,-5.8242,-5.8242,-5.7617,-5.7383,-5.9101,-5.9375,-5.9453,-6.0508,-6.1206,-6.1465,-6.0803,-6.1074,0.0,0.0,0.0,-6.1278,-6.1186,0.0,-6.0863,-6.1089,-6.0925,-6.1079,-6.193,-6.2588,-6.3323,-6.4213,-6.3478,-6.2904,-6.2712,-6.2499,-6.2148,-6.1718,-6.1719,-6.1719,-6.1719,-6.1719,-6.1719,-6.1719,-6.1719,-6.1719,-6.1719,-6.1445,-6.1328,-6.1328,-6.1133,-6.0664,-6.0078,-6.0078,-5.9609,-5.8828,-5.8692,-5.8473,-5.8259,-5.8187,-5.862,-5.9226,-5.8849,-5.9072,-5.9455,-6.211,-6.2462,-6.2774,-6.1913,-6.2462,-6.3599,-6.5327,-6.6398,-6.7264,-6.8083,-6.7499,-6.793,-7.039,-6.914,-6.914,-7.1638,-6.9568,-6.8082,-6.7959,-6.5614,-6.4247,-6.4208,-6.2608,-6.2102,-6.2927,-6.2146,-6.1718,-6.1719,-6.1719,-6.1719,-6.1719,-6.1719,-6.125,-6.0469,-6.1328,-6.1211,-6.039,-6.0351,-6.082,-6.1484,-6.0664,-6.082,-6.1484,-6.0742,-6.0976,-6.1719,-6.1719,-6.1719,-6.1719,-6.168,-6.164,-6.164,-6.164,-6.1055,-6.0351,-6.0351,-5.9805,-5.914,-5.914,-5.8515,-5.8242,-5.9922,-5.9765,-5.9648,-6.1289,-6.168,-6.168,-6.164,-6.1629,-6.1564,-6.1562,-6.1467,-6.1373,-6.1285,-6.0597,0.0,0.0,-6.0422,-6.0228,-6.1041,-6.1157,-6.1543,-6.2394,-6.1698,-6.1616,-6.2635,-6.1914,-6.1527,-6.1679,-6.1719,-6.1719,-6.1719,-6.1719,-6.1719,-6.1719,-6.1719,-6.1719,-6.168,-6.0859,-6.043,-6.043,-5.9648,-5.9258,-5.9258,-5.9258,-5.875,-5.7929,-5.7794,-5.72,-5.6386,-5.6314,-5.6752,-5.7508,-5.8379,-5.8684,-5.8651,-6.1913,-6.1952,-6.2032,-6.1757,-6.1952,-6.274,-6.4468,-6.5922,-6.7332,-6.8781,-6.8744,-6.9331,-7.1323,-7.0542,-7.0189,-7.1046,-7.0341,-6.9127,-6.7411,-6.6463,-6.5446,-6.4364,-6.3188,-6.2682,-6.3,-6.2145,-6.1717,-6.1718,-6.1718,-6.1719,-6.1719,-6.1719,-6.1523,-6.125,-6.0976,-6.1015,-6.1172,-6.0078,-6.0078,-6.082,-6.0508,-6.0937,-6.168,-6.1367,-6.1445,-6.1719,-6.1719,-6.1719,-6.1719,-6.1719,-6.1328,-6.0859,-6.0859,-5.9883,-5.875,-5.875,-5.8125,-5.7617,-5.8164,-5.7695,-5.7461,-5.918,-5.9414,-5.9492,-6.0586,-6.1289,-6.1719,-6.1719,-6.1678,-6.1632,-6.161,-6.1551,-6.1513,-6.1378,-6.1123,-6.0995,0.0,-6.1017,-6.0918,-6.119,-6.1161,-6.1234,-6.1505,-6.1273,-6.1314,-6.1783,-6.1568,-6.1488,-6.1679,-6.1719,-6.1719,-6.1719,-6.1719,-6.1719,-6.1719,-6.1133,-6.0859,-6.082,-6.0,-5.9609,-5.9609,-5.9336,-5.8906,-5.8359,-5.8359,-5.7851,-5.7031,-5.6935,-5.6653,-5.6299,-5.623,-5.6318,-5.6476,-5.6814,-5.7262,-5.7675,-6.2384,-6.2149,-6.2071,-6.1757,-6.1952,-6.2659,-6.4074,-6.5718,-6.744,-6.9165,-6.9402,-7.0067,-7.1823,-7.1238,-7.0806,-7.1156,-7.1151,-7.0212,-6.7949,-6.7742,-6.6959,-6.5253,-6.4388,-6.3765,-6.3463,-6.2611,-6.2027,-6.1717,-6.1718,-6.1719,-6.1719,-6.1719,-6.1719,-6.164,-6.0781,-6.0898,-6.1601,-6.0234,-6.0117,-6.0859,-6.0859,-6.1211,-6.1719,-6.1718,-6.1718,-6.1719,-6.1718,-6.1718,-6.1718,-6.1718,-6.1327,-6.0819,-6.0507,-5.9453,-5.8281,-5.8008,-5.7265,-5.6719,-5.7305,-5.7031,-5.6953,-5.8398,-5.875,-5.9023,-6.0156,-6.082,-6.1328,-6.164,-6.1719,-6.1679,-6.1629,-6.1626,-6.1614,-6.1474,-6.1463,-6.1452,0.0,-6.1351,-6.1324,-6.1317,-6.1195,-6.1118,-6.1118,-6.1143,-6.1221,-6.1398,-6.1443,-6.1551,-6.1679,-6.1719,-6.1719,-6.1719,-6.1719,-6.1562,-6.125,-6.0664,-6.0273,-5.9961,-5.914,-5.875,-5.8711,-5.8437,-5.7969,-5.7422,-5.7422,-5.7109,-5.6601,-5.6555,-5.6436,-5.6308,-5.6315,-5.6175,-5.6012,-5.6012,-5.6394,-5.6846,-6.3394,-6.3045,-6.2813,-6.1952,-6.2462,-6.3321,-6.4221,-6.575,-6.7436,-6.9234,-6.9552,-7.0221,-7.1862,-7.1314,-7.1155,-7.1928,-7.2004,-7.1297,-6.9569,-6.945,-6.8708,-6.699,-6.6092,-6.5277,-6.4429,-6.3502,-6.2572,-6.1755,-6.1718,-6.1719,-6.1719,-6.164,-6.164,-6.1601,-6.0664,-6.0781,-6.1562,-6.0703,-6.0859,-6.1719,-6.1719,-6.1719,-6.1719,-6.1717,-6.1718,-6.1719,-6.1717,-6.1716,-6.1716,-6.1711,-6.1709,-6.1554,-6.0622,-5.9803,-5.9022,-5.8086,-5.7265,-5.6601,-5.6601,-5.6601,-5.6797,-5.7617,-5.7851,-5.832,-5.9922,-6.0312,-6.0586,-6.1406,-6.1601,-6.1601,-6.1562,-6.1601,-6.16,-6.1538,-6.1568,-6.1551,-6.1439,-6.1422,-6.1383,-6.1298,-6.1181,-6.1107,-6.1098,-6.1213,-6.1331,-6.1412,-6.1534,-6.1623,-6.1719,-6.1719,-6.1719,-6.1719,-6.164,-6.125,-6.039,-6.0312,-5.9883,-5.914,-5.8242,-5.7851,-5.7812,-5.6992,-5.6601,-5.6601,-5.6601,-5.6601,-5.6601,-5.6601,-5.6504,-5.6324,-5.647,-5.632,-5.5999,-5.6029,-5.6094,-5.6206,-6.3978,-6.3875,-6.3906,-6.3672,-6.3282,-6.3516,-6.5038,-6.6134,-6.7659,-7.004,-7.1487,-7.2464,-7.2935,-7.2776,-7.2464,-7.2032,-7.1993,-7.1521,-7.0426,-7.0387,-6.9879,-6.8786,-6.7303,-6.6407,-6.6175,-6.4085,-6.2882,-6.2688,-6.203,-6.1719,-6.168,-6.1055,-6.0742,-6.0664,-5.9219,-5.9375,-6.0664,-5.9844,-6.0351,-6.1719,-6.1718,-6.1717,-6.1717,-6.1713,-6.1712,-6.1713,-6.1711,-6.1711,-6.1711,-6.1714,-6.1715,-6.1442,-5.996,-5.9375,-5.8906,-5.7383,-5.6797,-5.6601,-5.6601,-5.6601,-5.664,-5.6875,-5.7422,-5.8008,-5.8437,-5.9023,-5.957,-5.9805,-6.0312,-6.0547,-5.9961,-6.0312,-6.0742,-6.0701,-6.1248,-6.1676,-6.1631,-6.1568,-6.1517,-6.1383,-6.1345,-6.1285,-6.1259,-6.1281,-6.1367,-6.1537,-6.1598,-6.1623,-6.1719,-6.1719,-6.1719,-6.1719,-6.1055,-6.0625,-6.039,-5.914,-5.8437,-5.8203,-5.7344,-5.6914,-5.6914,-5.6719,-5.6601,-5.6601,-5.6601,-5.6601,-5.6601,-5.6601,-5.6554,-5.643,-5.6482,-5.6393,-5.622,-5.6162,-5.6212,-5.6276,-6.5294,-6.5578,-6.5975,-6.5975,-6.5858,-6.6014,-6.66,-6.6756,-6.7615,-6.984,-7.1324,-7.2143,-7.2143,-7.2846,-7.3119,-7.2612,-7.2221,-7.1636,-7.0777,-7.105,-7.0699,-6.945,-6.8825,-6.7966,-6.6834,-6.5407,-6.4127,-6.2998,-6.2497,-6.1875,-6.1133,-6.0625,-6.039,-6.0312,-5.8633,-5.8828,-6.0351,-5.9921,-6.0507,-6.1718,-6.1716,-6.1714,0.0,-6.1708,-6.1704,-6.1704,-6.1699,-6.1701,-6.1705,-6.1705,-6.1708,-6.1399,-5.9684,-5.9178,-5.8867,-5.7109,-5.6601,-5.6601,-5.6601,-5.6601,-5.6601,-5.6601,-5.6953,-5.7422,-5.7812,-5.8281,-5.875,-5.9101,-5.957,-5.9726,-5.9297,-5.957,-6.0,-6.0351,-6.082,-6.125,-6.164,-6.1676,-6.1616,-6.1481,-6.1471,-6.1456,-6.1442,-6.1437,-6.1482,-6.1601,-6.1621,-6.1674,-6.1719,-6.1719,-6.1523,-6.1133,-6.0664,-6.0039,-5.9297,-5.8359,-5.7695,-5.7344,-5.6836,-5.6601,-5.6601,-5.6601,-5.6601,-5.6601,-5.6601,-5.6601,-5.6601,-5.6601,-5.6557,-5.6487,-5.6425,-5.6425,-5.6436,-5.6363,-5.6363,-5.6407,-6.7186,-6.7801,-6.8357,-6.8122,-6.8903,-6.9333,-6.8708,-6.8044,-6.8239,-6.984,-7.0933,-7.1441,-7.1206,-7.2534,-7.3354,-7.3158,-7.2456,-7.1675,-7.0933,-7.1597,-7.1324,-6.9801,-7.0348,-6.9567,-6.7185,-6.6924,-6.5606,-6.3153,-6.3041,-6.2107,-6.039,-6.0273,-6.0156,-5.9998,-5.8437,-5.8671,-6.0231,-6.0349,-6.0895,-6.1716,-6.171,-6.1708,-6.1707,-6.1699,-6.1696,-6.1694,-6.1683,-6.1688,-6.1694,-6.1686,-6.169,-6.1427,-5.9794,-5.9253,-5.8866,-5.7265,-5.668,-5.6601,-5.6601,-5.6601,-5.6601,-5.6601,-5.6601,-5.6797,-5.7578,-5.7734,-5.793,-5.8711,-5.8945,-5.8984,-5.8867,-5.8945,-5.9258,-5.9961,-6.0273,-6.0625,-6.1289,-6.1445,-6.1482,-6.1453,-6.1453,0.0,-6.1605,-6.1605,-6.1607,-6.1614,-6.1676,-6.164,-6.1523,-6.1523,-6.1133,-6.0273,-6.0117,-5.9375,-5.789,-5.7773,-5.7344,-5.6601,-5.6601,-5.6601,-5.6601,-5.6601,-5.6601,-5.6601,-5.6601,-5.6601,-5.6601,-5.6601,-5.6558,-5.6493,-5.6368,-5.645,-5.6601,-5.6548,-5.6497,-5.6502,-6.9694,-7.0021,-6.9801,-6.8357,-6.9411,-7.066,-7.1245,-7.1792,-7.2495,-7.3471,-7.4993,-7.5423,-7.3978,-7.4095,-7.3744,-7.2339,-7.2104,-7.1948,-7.1792,-7.1909,-7.187,-7.1558,-7.1011,-7.0152,-6.8981,-6.7549,-6.5915,-6.4081,-6.3348,-6.2102,-6.0384,-5.9642,-5.8978,-5.8274,-5.7298,-5.7767,-5.9368,-6.0071,-6.0891,-6.171,-6.1704,-6.1701,-6.1699,-6.1688,-6.1683,-6.1683,-6.172,-6.1681,-6.1683,-6.1692,-6.1701,-6.1513,-6.0503,-5.9725,-5.8984,-5.7969,-5.7148,-5.6601,-5.6601,-5.6601,-5.6601,-5.6601,-5.6601,-5.664,-5.6797,-5.6836,-5.6875,-5.7031,-5.7617,-5.789,-5.7187,-5.7656,-5.8164,-5.832,-5.9492,-6.0234,-5.9726,-6.0195,-6.0583,-6.0555,-6.0577,-6.0854,-6.1529,-6.1605,-6.1619,-6.1678,-6.1679,-6.1406,-6.0664,-6.0625,-6.0234,-5.9453,-5.8711,-5.8203,-5.789,-5.7187,-5.6758,-5.6601,-5.6601,-5.6601,-5.6601,-5.6601,-5.6601,-5.6601,-5.6601,-5.6601,-5.6601,-5.6601,-5.6601,-5.6561,-5.6559,-5.6561,-5.6601,-5.6601,-5.6561,-5.6562,-7.2127,-7.1694,-7.1121,-7.085,-7.148,-7.2339,-7.3158,-7.4408,-7.4954,-7.4017,-7.4603,-7.4642,-7.3354,-7.3978,-7.4017,-7.2768,-7.226,-7.1987,-7.1987,-7.1987,-7.1987,-7.1987,-7.1597,-7.0972,-7.0074,-6.8791,-6.7119,-6.4976,-6.4083,-6.2565,-6.0381,-5.9522,-5.8896,-5.85,-5.8071,-5.8347,-5.9171,-6.0026,-6.0884,-6.1702,-6.1694,-6.169,-6.1688,-6.1681,-6.1718,-6.1718,-6.1718,-6.1718,-6.1681,-6.1688,-6.1699,-6.1553,-6.0658,-5.9842,-5.9023,-5.8164,-5.7265,-5.6601,-5.6601,-5.6601,-5.6601,-5.6601,-5.6601,-5.6601,-5.6601,-5.6601,-5.6601,-5.6601,-5.6914,-5.7109,-5.668,-5.6953,-5.7383,-5.7812,-5.8594,-5.914,-5.918,-5.9531,-5.9921,-6.0305,-6.0389,-6.0741,-6.1555,-6.1632,-6.1675,-6.1719,-6.1719,-6.1328,-6.0469,-6.039,-5.9805,-5.8555,-5.8125,-5.7695,-5.7226,-5.6797,-5.6601,-5.6601,-5.6601,-5.6601,-5.6601,-5.6601,-5.6601,-5.6601,-5.6601,-5.6601,-5.6601,-5.6601,-5.6601,-5.6601,-5.6601,-5.6601,-5.6601,-5.6601,-5.6601,-5.6601,-7.4127,-7.338,-7.273,-7.3225,-7.3588,-7.3978,-7.4447,-7.5969,-7.6354,-7.4308,-7.4031,-7.3715,-7.2799,-7.3907,-7.4347,-7.3332,-7.2642,-7.2182,-7.2026,-7.1987,-7.1987,-7.1987,-7.1987,-7.1597,-7.0738,-6.984,-6.8166,-6.5596,-6.4739,-6.2947,-6.0376,-5.9714,-5.928,-5.9117,-5.9117,-5.9198,-5.9401,-6.0096,-6.0913,-6.1694,-6.1683,-6.1718,-6.1718,-6.1718,-6.1718,-6.1718,-6.1718,-6.1718,-6.172,-6.1683,-6.1697,-6.1592,-6.089,-6.0115,-5.9336,-5.8633,-5.7695,-5.6875,-5.6875,-5.6758,-5.6601,-5.6601,-5.6601,-5.6601,-5.6601,-5.6601,-5.6601,-5.6601,-5.6601,-5.6601,-5.6601,-5.6601,-5.6836,-5.75,-5.7773,-5.8086,-5.8594,-5.8828,-5.914,-5.9805,-6.0039,-6.0351,-6.0859,-6.1367,-6.1562,-6.1211,-6.1484,-6.125,-6.0195,-6.0156,-5.9375,-5.7695,-5.7617,-5.7305,-5.6601,-5.6601,-5.6601,-5.6601,-5.6601,-5.6601,-5.6601,-5.6601,-5.6601,-5.6601,-5.6601,-5.6601,-5.6601,-5.6601,-5.6601,-5.6601,-5.6601,-5.6601,-5.6601,-5.6601,-5.6601,-5.6601,-7.5163,-7.5329,-7.4987,-7.3546,-7.4564,-7.5305,-7.4603,-7.5969,-7.6961,-7.6521,-7.6465,-7.6073,-7.5113,-7.5307,-7.4834,-7.3153,-7.3119,-7.2846,-7.2065,-7.1987,-7.1987,-7.1987,-7.1987,-7.1597,-7.0738,-6.984,-6.8161,-6.5587,-6.4728,-6.2972,-6.0397,-6.0319,-5.9848,-5.9104,-5.9104,-5.9536,-6.028,-6.0356,-6.0903,-6.1681,-6.172,-6.1718,-6.1718,-6.1718,-6.1718,-6.1718,-6.1718,-6.1718,-6.1681,-6.1694,-6.1702,-6.1671,-6.1598,-6.0976,-6.0273,-6.0195,-5.9023,-5.7773,-5.7773,-5.7187,-5.6601,-5.6601,-5.6601,-5.6601,-5.6601,-5.6601,-5.6601,-5.6601,-5.6601,-5.6601,-5.6601,-5.6601,-5.664,-5.6719,-5.7383,-5.7656,-5.6953,-5.7539,-5.8047,-5.8125,-5.8828,-5.9023,-5.832,-6.0351,-6.1055,-5.9531,-6.0859,-6.1015,-5.9414,-5.9297,-5.8515,-5.6797,-5.6719,-5.668,-5.6601,-5.6601,-5.6601,-5.6601,-5.6601,-5.6601,-5.6601,-5.6601,-5.6601,-5.6601,-5.6601,-5.6601,-5.6601,-5.6601,-5.6601,-5.6601,-5.6601,-5.6601,-5.6601,-5.6601,-5.6601,-5.6601,-7.602,-7.5354,-7.4901,-7.5485,-7.5266,-7.5266,-7.5969,-7.6556,-7.6872,-7.6699,-7.6755,-7.6437,-7.5413,-7.5385,-7.4919,-7.3705,-7.3292,-7.2968,-7.2617,-7.2239,-7.1987,-7.1987,-7.1987,-7.1831,-7.148,-7.0621,-6.9176,-6.7107,-6.5741,-6.4023,-6.1954,-6.09,-5.9924,-5.9102,-5.9651,-6.008,-6.0432,-6.0978,-6.1369,-6.1718,-6.1718,-6.1718,-6.1718,-6.1718,-6.1718,-6.1718,-6.1718,-6.1718,-6.1683,-6.1701,-6.1707,-6.171,-6.1716,-6.1093,-6.039,-6.039,-5.957,-5.8555,-5.8047,-5.7656,-5.7265,-5.6719,-5.6601,-5.6601,-5.6601,-5.6601,-5.6601,-5.6601,-5.6601,-5.6601,-5.6601,-5.6601,-5.6601,-5.6601,-5.6875,-5.7187,-5.7344,-5.7226,-5.75,-5.8555,-5.8047,-5.7695,-5.789,-5.9297,-5.9922,-5.9258,-6.0742,-6.1172,-5.9961,-5.9453,-5.8633,-5.7422,-5.6875,-5.6601,-5.6601,-5.6601,-5.6601,-5.6601,-5.6601,-5.6601,-5.6601,-5.6601,-5.6601,-5.6601,-5.6601,-5.6601,-5.6601,-5.6601,-5.6601,-5.6601,-5.6601,-5.6601,-5.6601,-5.6601,-5.6601,-5.6601,-7.6545,-7.5633,-7.5287,-7.6844,-7.6086,-7.5651,-7.6837,-7.6892,-7.6741,-7.6525,-7.6605,-7.638,-7.5594,-7.5546,-7.5227,-7.4364,-7.3727,-7.3253,-7.3019,-7.2377,-7.1987,-7.1987,-7.1987,-7.1987,-7.1987,-7.1167,-6.984,-6.8083,-6.6678,-6.5077,-6.336,-6.211,-6.1213,-6.0666,-6.1252,-6.1564,-6.1603,-6.2189,-6.2462,-6.2462,-6.2462,-6.2462,-6.2423,-6.2189,-6.2071,-6.2032,-6.1796,-6.1718,-6.1683,-6.1701,-6.1705,-6.1708,-6.1716,-6.1289,-6.0781,-6.0781,-6.0195,-5.9414,-5.8789,-5.8476,-5.8086,-5.7187,-5.6992,-5.6914,-5.664,-5.6601,-5.6601,-5.6601,-5.6601,-5.6601,-5.6601,-5.6601,-5.6601,-5.6601,-5.6836,-5.7187,-5.7812,-5.7383,-5.7539,-5.9023,-5.789,-5.7109,-5.7461,-5.875,-5.9258,-5.8476,-6.0234,-6.0937,-6.0078,-5.9492,-5.8672,-5.7539,-5.6914,-5.6601,-5.6601,-5.6601,-5.6601,-5.6601,-5.6601,-5.6601,-5.6601,-5.6601,-5.6601,-5.6601,-5.6601,-5.6601,-5.6601,-5.6601,-5.6601,-5.6601,-5.6601,-5.6601,-5.6601,-5.6601,-5.6601,-5.6601,-7.6573,-7.6706,-7.6838,-7.705,-7.7062,-7.7,-7.6822,-7.6804,-7.666,-7.635,-7.6293,-7.6236,-7.602,-7.6173,-7.5933,-7.5071,-7.4561,-7.3915,-7.3058,-7.2377,-7.1987,-7.1987,-7.1987,-7.1987,-7.1987,-7.1167,-6.984,-6.8083,-6.7224,-6.5939,-6.4299,-6.426,-6.426,-6.426,-6.426,-6.426,-6.426,-6.426,-6.426,-6.426,-6.426,-6.426,-6.4182,-6.3321,-6.2969,-6.2852,-6.1991,-6.1718,-6.1681,-6.1694,-6.1697,-6.1702,-6.1718,-6.168,-6.168,-6.168,-6.1055,-6.039,-6.0351,-5.9805,-5.8984,-5.8086,-5.789,-5.7656,-5.6797,-5.6601,-5.6601,-5.6601,-5.6601,-5.66,-5.6601,-5.6601,-5.6601,-5.6601,-5.7305,-5.789,-5.789,-5.789,-5.8203,-5.9101,-5.8437,-5.7539,-5.6719,-5.8906,-5.9336,-5.6836,-5.8984,-6.0078,-5.9258,-5.9219,-5.8398,-5.668,-5.6601,-5.6601,-5.6601,-5.6601,-5.6601,-5.6601,-5.6601,-5.6601,-5.6601,-5.6601,-5.6601,-5.6601,-5.6601,-5.6601,-5.6601,-5.6601,-5.6601,-5.6601,-5.6601,-5.6601,-5.6601,-5.6601,-5.6601,-5.6601,-7.635,-7.6418,-7.6525,-7.6706,-7.6773,-7.6752,-7.6669,-7.6552,-7.6418,-7.6305,-7.616,-7.609,-7.6029,-7.6062,-7.5964,-7.5732,-7.4702,-7.3994,-7.3682,-7.2613,-7.1987,-7.1987,-7.1987,-7.1987,-7.1987,-7.1714,-7.0738,-6.8981,-6.8122,-6.6522,-6.4299,-6.4299,-6.4299,-6.4299,-6.4299,-6.4299,-6.4299,-6.4299,-6.4299,-6.4299,-6.4299,-6.4299,-6.426,-6.3984,-6.3516,-6.2969,-6.2696,-6.2189,-6.1681,-6.1694,-6.1697,-6.1701,-6.1711,-6.1716,-6.1718,-6.1719,-6.1484,-6.1172,-6.0547,-6.0195,-5.9805,-5.8984,-5.8359,-5.7812,-5.7538,-5.7029,-5.6597,-5.6597,-5.6599,-5.6599,-5.66,-5.6601,-5.6797,-5.7383,-5.7734,-5.8281,-5.9453,-5.8633,-5.8437,-5.9844,-5.7734,-5.6484,-5.7383,-5.7695,-5.7969,-5.8359,-5.9101,-5.9453,-5.9219,-5.8633,-5.8047,-5.75,-5.6914,-5.6601,-5.6601,-5.6601,-5.6601,-5.6601,-5.6601,-5.6601,-5.6601,-5.6601,-5.6601,-5.6601,-5.6601,-5.6601,-5.6601,-5.6601,-5.6601,-5.6601,-5.6601,-5.6601,-5.6601,-5.6601,-5.6601,-5.6601,-7.6273,-7.6281,-7.6361,-7.6543,-7.6618,-7.6552,-7.6517,-7.6383,-7.6246,-7.6186,-7.609,-7.6015,-7.6015,-7.6015,-7.6015,-7.6015,-7.4711,-7.3908,-7.4019,-7.2668,-7.1924,-7.1987,-7.1987,-7.1987,-7.1987,-7.1987,-7.1324,-6.9879,-6.8708,-6.7107,-6.5236,-6.5236,-6.5236,-6.5236,-6.5236,-6.5236,-6.5236,-6.5236,-6.5236,-6.5236,-6.5236,-6.5236,-6.5197,-6.4882,-6.4453,-6.3945,-6.3594,-6.293,-6.2189,-6.2197,-6.1965,-6.1694,-6.1702,-6.171,-6.1715,-6.1718,-6.1719,-6.1562,-6.1055,-6.0898,-6.0703,-5.9844,-5.9258,-5.8672,-5.8045,-5.722,-5.6589,-5.6592,-5.6596,-5.6597,-5.6599,-5.6874,-5.7265,-5.7812,-5.8437,-5.9101,-5.9844,-5.9062,-5.8789,-5.9805,-5.75,-5.6328,-5.7773,-5.7422,-5.7383,-5.8164,-5.8515,-5.8555,-5.8242,-5.8008,-5.7734,-5.7422,-5.6875,-5.6601,-5.6601,-5.6601,-5.6601,-5.6601,-5.6601,-5.6601,-5.6601,-5.6601,-5.6601,-5.6601,-5.6601,-5.6601,-5.6601,-5.6601,-5.6601,-5.6601,-5.6601,-5.6601,-5.6601,-5.6601,-5.6601,-5.6601,-7.6248,-7.6297,-7.6327,-7.6545,-7.6573,-7.6507,-7.6293,-7.6297,-7.6211,-7.602,-7.6015,-7.6015,-7.6015,-7.5938,-7.5899,-7.5899,-7.4565,-7.3767,-7.3894,-7.2517,-7.1789,-7.1984,-7.1987,-7.1987,-7.1987,-7.1987,-7.1558,-7.0699,-6.8942,-6.7693,-6.6873,-6.6834,-6.6795,-6.6795,-6.6795,-6.6795,-6.6795,-6.6795,-6.6795,-6.6795,-6.6795,-6.6795,-6.6717,-6.5975,-6.5663,-6.5507,-6.4687,-6.3828,-6.3086,-6.3086,-6.254,-6.1876,-6.1811,-6.1781,-6.1787,-6.1716,-6.1718,-6.1719,-6.1719,-6.1719,-6.1523,-6.0703,-6.043,-5.9961,-5.8357,-5.7295,-5.6662,-5.6669,-5.6631,-5.6594,-5.6598,-5.7304,-5.793,-5.7969,-5.9336,-6.0156,-5.9375,-5.9258,-5.9219,-5.9219,-5.7656,-5.6953,-5.789,-5.789,-5.7539,-5.6836,-5.7422,-5.7461,-5.6719,-5.7383,-5.7422,-5.664,-5.6601,-5.6601,-5.6601,-5.6601,-5.6601,-5.6601,-5.6601,-5.6601,-5.6601,-5.6601,-5.6601,-5.6601,-5.6601,-5.6601,-5.6601,-5.6601,-5.6601,-5.6601,-5.6601,-5.6601,-5.6601,-5.6601,-5.6601,-5.6601,-7.6076,-7.609,-7.6104,-7.6133,-7.6147,-7.6133,-7.609,-7.609,-7.6062,-7.6029,-7.6015,-7.6015,-7.6015,-7.5399,-7.5014,-7.5014,-7.4218,-7.3496,-7.3048,-7.2212,-7.1789,-7.1984,-7.1987,-7.1987,-7.1987,-7.1987,-7.1558,-7.0699,-6.8942,-6.8005,-6.7771,-6.7107,-6.6795,-6.6795,-6.6795,-6.6795,-6.6795,-6.6795,-6.6795,-6.6795,-6.6795,-6.6795,-6.6795,-6.66,-6.6131,-6.5585,-6.5351,-6.4726,-6.3984,-6.3984,-6.3867,-6.3557,-6.2896,-6.2707,-6.2562,-6.191,-6.1718,-6.1719,-6.1719,-6.1719,-6.164,-6.1445,-6.0897,-6.0111,-5.905,-5.8141,-5.7508,-5.7512,-5.7049,-5.6585,-5.6587,-5.73,-5.8124,-5.8788,-5.9726,-6.0312,-6.0156,-5.9609,-5.9219,-5.9219,-5.7656,-5.7187,-5.875,-5.7695,-5.7383,-5.8515,-5.7539,-5.7109,-5.7578,-5.7148,-5.6797,-5.6601,-5.6601,-5.6601,-5.6601,-5.6601,-5.6601,-5.6601,-5.6601,-5.6601,-5.6601,-5.6601,-5.6601,-5.6601,-5.6601,-5.6601,-5.6601,-5.6601,-5.6601,-5.6601,-5.6601,-5.6601,-5.6601,-5.6601,-5.6601,-5.6601,-7.6015,-7.6015,-7.6015,-7.6015,-7.6015,-7.6015,-7.6015,-7.6015,-7.6015,-7.6015,-7.6015,-7.6015,-7.6015,-7.5592,-7.513,-7.4745,-7.3651,-7.2886,-7.2609,-7.1987,-7.1671,-7.1858,-7.1933,-7.1987,-7.1987,-7.1987,-7.1543,-7.0571,-6.9206,-6.8386,-6.7996,-6.7172,-6.6795,-6.6795,-6.6795,-6.6795,-6.6795,-6.6795,-6.6795,-6.6795,-6.6795,-6.6795,-6.6795,-6.6795,-6.6522,-6.6131,-6.6131,-6.5624,-6.4882,-6.4882,-6.4648,-6.4143,-6.3282,-6.3015,-6.2832,-6.1942,-6.1714,-6.1717,-6.1717,-6.1717,-6.1717,-6.1717,-6.1048,-6.0298,-5.9784,-5.9035,-5.8402,-5.8402,-5.8059,-5.7752,-5.7752,-5.8465,-5.9214,-5.9682,-6.0114,-6.0272,-5.9882,-5.914,-5.8476,-5.8047,-5.7187,-5.6953,-5.793,-5.7148,-5.6992,-5.793,-5.7148,-5.6797,-5.7265,-5.6875,-5.6601,-5.6601,-5.6601,-5.6601,-5.6601,-5.6601,-5.6601,-5.6601,-5.6601,-5.6601,-5.6601,-5.6601,-5.6601,-5.6601,-5.6601,-5.6601,-5.6601,-5.6601,-5.6601,-5.6601,-5.6601,-5.6601,-5.6601,-5.6601,-5.6601,-5.6601,-7.6015,-7.6015,-7.6015,-7.6015,-7.6015,-7.6015,-7.6015,-7.6015,-7.6015,-7.6015,-7.6015,-7.6015,-7.6015,-7.5861,-7.5515,-7.4784,-7.3168,-7.2277,-7.2523,-7.1899,-7.1559,-7.1694,-7.1862,-7.1969,-7.192,-7.192,-7.1491,-7.0575,-6.9579,-6.8733,-6.8071,-6.7195,-6.6795,-6.6795,-6.6795,-6.6795,-6.6795,-6.6795,-6.6795,-6.6795,-6.6795,-6.6795,-6.6795,-6.6795,-6.6795,-6.6795,-6.6795,-6.6366,-6.578,-6.578,-6.5273,-6.4533,-6.3672,-6.3406,-6.3217,-6.2203,-6.1896,-6.1863,-6.1747,-6.1709,-6.1708,-6.1708,-6.1156,-6.0604,-6.0602,-5.9931,-5.93,-5.93,-5.9189,-5.9117,-5.9117,-5.9828,-6.0418,-6.0418,-6.0381,-6.011,-5.9293,-5.8435,-5.7577,-5.6718,-5.6601,-5.6601,-5.6601,-5.6601,-5.6601,-5.6601,-5.6601,-5.6601,-5.6601,-5.6601,-5.6601,-5.6601,-5.6601,-5.6601,-5.6601,-5.6601,-5.6601,-5.6601,-5.6601,-5.6601,-5.6601,-5.6601,-5.6601,-5.6601,-5.6601,-5.6601,-5.6601,-5.6601,-5.6601,-5.6601,-5.6601,-5.6601,-5.6601,-5.6601,-5.6601,-5.6601,-7.6015,-7.6015,-7.6015,-7.6015,-7.6015,-7.6015,-7.6015,-7.6015,-7.6015,-7.6015,-7.6015,-7.6015,-7.6015,-7.5361,-7.4861,-7.4707,-7.3168,-7.2314,-7.2655,-7.1931,-7.1559,-7.1694,-7.1716,-7.1683,-7.1566,-7.1598,-7.1505,-7.1327,-6.9811,-6.9045,-6.8889,-6.7468,-6.6795,-6.6795,-6.6795,-6.6795,-6.6795,-6.6795,-6.6795,-6.6795,-6.6795,-6.6795,-6.6795,-6.6795,-6.6795,-6.6795,-6.6795,-6.6717,-6.66,-6.66,-6.6522,-6.6288,-6.5468,-6.5194,-6.4885,-6.3284,-6.2818,-6.2627,-6.1901,-6.1709,-6.1708,-6.1701,-6.1582,-6.15,-6.149,-6.0822,-6.0198,-6.0198,-5.9612,-5.9107,-5.9107,-5.9818,-6.0411,-6.0411,-6.0417,-6.0109,-5.9251,-5.8394,-5.7576,-5.6717,-5.6601,-5.6601,-5.6601,-5.6601,-5.6601,-5.6601,-5.6601,-5.6601,-5.6601,-5.6601,-5.6601,-5.6601,-5.6601,-5.6601,-5.6601,-5.6601,-5.6601,-5.6601,-5.6601,-5.6601,-5.6601,-5.6601,-5.6601,-5.6601,-5.6601,-5.6601,-5.6601,-5.6601,-5.6601,-5.6601,-5.6601,-5.6601,-5.6601,-5.6601,-5.6601,-5.6601,-7.6015,-7.6015,-7.6015,-7.6015,-7.6015,-7.6015,-7.6015,-7.6015,-7.6015,-7.6015,-7.6015,-7.6015,-7.6015,-7.563,-7.5399,-7.5399,-7.386,-7.2997,-7.3227,-7.2159,-7.1521,-7.1594,-7.1665,-7.1641,-7.1489,-7.1386,-7.1329,-7.1329,-7.0123,-6.9273,-6.8815,-6.7831,-6.7126,-6.6701,-6.6781,-6.6795,-6.6795,-6.6795,-6.6795,-6.6795,-6.6795,-6.6795,-6.6795,-6.6795,-6.6795,-6.6795,-6.6795,-6.6795,-6.6795,-6.6795,-6.6795,-6.6678,-6.5858,-6.5585,-6.5351,-6.4062,-6.3047,-6.223,-6.1811,-6.1696,-6.1694,-6.169,-6.1688,-6.1688,-6.1681,-6.1408,-6.1095,-6.1095,-6.0783,-6.0508,-6.0508,-6.0824,-6.1102,-6.1102,-6.0327,-5.955,-5.9164,-5.7996,-5.7061,-5.6635,-5.6599,-5.6601,-5.6601,-5.6601,-5.6601,-5.6601,-5.6601,-5.6601,-5.6601,-5.6601,-5.6601,-5.6601,-5.6601,-5.6601,-5.6601,-5.6601,-5.6601,-5.6601,-5.6601,-5.6601,-5.6601,-5.6601,-5.6601,-5.6601,-5.6601,-5.6601,-5.6601,-5.6601,-5.6601,-5.6601,-5.6601,-5.6601,-5.6601,-5.6601,-5.6601,-5.6601,-7.6015,-7.6015,-7.6015,-7.6015,-7.6015,-7.6015,-7.6015,-7.6015,-7.6015,-7.6015,-7.6015,-7.6015,-7.6015,-7.6015,-7.6015,-7.6015,-7.463,-7.374,-7.3694,-7.2492,-7.1655,-7.146,-7.1474,-7.1458,-7.1358,-7.1225,-7.1136,-7.1136,-7.0281,-6.9452,-6.8584,-6.8062,-6.7498,-6.6907,-6.7021,-6.7057,-6.7107,-6.7107,-6.699,-6.6795,-6.6795,-6.6795,-6.6795,-6.6795,-6.6795,-6.6795,-6.6795,-6.6795,-6.6795,-6.6795,-6.6795,-6.6678,-6.6053,-6.5897,-6.5702,-6.4843,-6.336,-6.1952,-6.1757,-6.1718,-6.1718,-6.1718,-6.1718,-6.1718,-6.1718,-6.1718,-6.1718,-6.1718,-6.1718,-6.1718,-6.1718,-6.1718,-6.1718,-6.1718,-6.0234,-5.9107,-5.9115,-5.7674,-5.6584,-5.6589,-5.6596,-5.6599,-5.6599,-5.6601,-5.6601,-5.6601,-5.6601,-5.6601,-5.6601,-5.6601,-5.6601,-5.6601,-5.6601,-5.6601,-5.6601,-5.6601,-5.6601,-5.6601,-5.6601,-5.6601,-5.6601,-5.6601,-5.6601,-5.6601,-5.6601,-5.6601,-5.6601,-5.6601,-5.6601,-5.6601,-5.6601,-5.6601,-5.6601,-5.6601,-5.6601,-5.6601,-7.6015,-7.6015,-7.6015,-7.6015,-7.6015,-7.6015,-7.6015,-7.6015,-7.6015,-7.6015,-7.6015,-7.6015,-7.6015,-7.6015,-7.6015,-7.6015,-7.5168,-7.4357,-7.3733,-7.2889,-7.2048,-7.1236,-7.1041,-7.094,-7.0927,-7.0939,-7.0925,-7.0925,-7.0239,-6.9452,-6.8584,-6.7942,-6.7683,-6.7808,-6.7813,-6.7907,-6.8005,-6.8005,-6.7537,-6.6795,-6.6795,-6.6795,-6.6795,-6.6795,-6.6795,-6.6795,-6.6795,-6.6795,-6.6795,-6.6795,-6.6795,-6.6795,-6.6717,-6.6717,-6.6561,-6.5741,-6.4258,-6.2735,-6.1913,-6.1718,-6.1718,-6.1718,-6.1718,-6.1718,-6.1718,-6.1718,-6.1718,-6.1718,-6.1718,-6.1718,-6.1718,-6.1718,-6.1718,-6.1718,-6.0234,-5.9104,-5.9104,-5.7668,-5.6582,-5.6582,-5.6589,-5.6595,-5.6599,-5.6599,-5.6601,-5.6601,-5.6601,-5.6601,-5.6601,-5.6601,-5.6601,-5.6601,-5.6601,-5.6601,-5.6601,-5.6601,-5.6601,-5.6601,-5.6601,-5.6601,-5.6601,-5.6601,-5.6601,-5.6601,-5.6601,-5.6601,-5.6601,-5.6601,-5.6601,-5.6601,-5.6601,-5.6601,-5.6601,-5.6601,-5.6601,-5.6601,-7.6015,-7.6015,-7.6015,-7.6015,-7.6015,-7.6015,-7.6015,-7.6015,-7.6015,-7.6015,-7.6015,-7.6015,-7.6015,-7.6015,-7.6015,-7.6015,-7.5207,-7.4365,-7.3626,-7.2791,-7.1979,-7.1253,-7.1005,-7.0898,-7.0898,-7.0898,-7.0898,-7.0898,-7.0658,-7.008,-6.9282,-6.9087,-6.8834,-6.8507,-6.8627,-6.8756,-6.8903,-6.8903,-6.8708,-6.8396,-6.8396,-6.8083,-6.7615,-6.7615,-6.7264,-6.6792,-6.6709,-6.6689,-6.6642,-6.654,-6.6561,-6.6689,-6.6689,-6.6723,-6.6639,-6.5858,-6.4765,-6.3633,-6.2735,-6.211,-6.1718,-6.1718,-6.1718,-6.1718,-6.1718,-6.1718,-6.1718,-6.1718,-6.1718,-6.1718,-6.1718,-6.1718,-6.1718,-6.1718,-6.0705,-5.9924,-5.9924,-5.8872,-5.794,-5.7393,-5.7324,-5.7135,-5.6669,-5.6597,-5.66,-5.6601,-5.6601,-5.6601,-5.6601,-5.6601,-5.6601,-5.6601,-5.6601,-5.6601,-5.6601,-5.6601,-5.6601,-5.6601,-5.6601,-5.6601,-5.6601,-5.6601,-5.6601,-5.6601,-5.6601,-5.6601,-5.6601,-5.6601,-5.6601,-5.6601,-5.6601,-5.6601,-5.6601,-5.6601,-5.6601,-5.6601,-7.6015,-7.6015,-7.6015,-7.6015,-7.6015,-7.6015,-7.6015,-7.6015,-7.6015,-7.6015,-7.6015,-7.6015,-7.6015,-7.6015,-7.6015,-7.6015,-7.5438,-7.4668,-7.3591,-7.2437,-7.1608,-7.1127,-7.0966,-7.0898,-7.0898,-7.0898,-7.0898,-7.0898,-7.0898,-7.0475,-6.9706,-6.9808,-6.9631,-6.9313,-6.9415,-6.9582,-6.9801,-6.9801,-6.9645,-6.9411,-6.9411,-6.902,-6.8474,-6.82,-6.7732,-6.7138,-6.6746,-6.659,-6.6574,-6.6366,-6.6379,-6.6495,-6.6495,-6.6556,-6.6498,-6.5744,-6.5088,-6.4385,-6.3254,-6.2527,-6.2032,-6.1757,-6.1718,-6.1718,-6.1718,-6.1718,-6.1718,-6.1718,-6.1718,-6.1718,-6.1718,-6.1718,-6.1718,-6.1718,-6.0978,-6.0393,-6.0393,-5.9651,-5.8792,-5.7894,-5.7785,-5.7477,-5.6699,-5.6593,-5.6598,-5.6599,-5.6601,-5.6601,-5.6601,-5.6601,-5.6601,-5.6601,-5.6601,-5.6601,-5.6601,-5.6601,-5.6601,-5.6601,-5.6601,-5.6601,-5.6601,-5.6601,-5.6601,-5.6601,-5.6601,-5.6601,-5.6601,-5.6601,-5.6601,-5.6601,-5.6601,-5.6601,-5.6601,-5.6601,-5.6601,-5.6601,-7.6015,-7.6015,-7.6015,-7.6015,-7.6015,-7.6015,-7.6015,-7.6015,-7.6015,-7.6015,-7.6015,-7.6015,-7.6015,-7.6015,-7.6015,-7.6015,-7.6015,-7.5284,-7.363,-7.186,-7.0898,-7.0898,-7.0898,-7.0898,-7.0898,-7.0898,-7.0898,-7.0898,-7.0898,-7.0475,-6.9706,-6.9706,-6.9876,-7.0207,-7.0207,-7.0407,-7.0696,-7.0699,-7.0191,-6.9411,-6.9411,-6.9411,-6.9333,-6.8435,-6.8122,-6.7958,-6.698,-6.659,-6.6574,-6.6358,-6.6307,-6.6307,-6.6314,-6.6314,-6.6189,-6.5506,-6.5304,-6.4919,-6.3249,-6.2882,-6.2772,-6.1913,-6.1718,-6.1718,-6.1718,-6.1718,-6.1718,-6.1718,-6.1718,-6.1718,-6.1718,-6.1718,-6.1718,-6.1718,-6.0978,-6.0393,-6.0393,-5.9651,-5.8792,-5.7933,-5.7816,-5.7508,-5.6698,-5.6589,-5.6595,-5.6599,-5.6601,-5.6601,-5.6601,-5.6601,-5.6601,-5.6601,-5.6601,-5.6601,-5.6601,-5.6601,-5.6601,-5.6601,-5.6601,-5.6601,-5.6601,-5.6601,-5.6601,-5.6601,-5.6601,-5.6601,-5.6601,-5.6601,-5.6601,-5.6601,-5.6601,-5.6601,-5.6601,-5.6601,-5.6601,-5.6601,-7.6015,-7.6015,-7.6015,-7.6015,-7.6015,-7.6015,-7.6015,-7.6015,-7.6015,-7.6015,-7.6015,-7.6015,-7.6015,-7.6015,-7.6015,-7.6015,-7.6015,-7.5284,-7.363,-7.186,-7.0898,-7.0898,-7.0898,-7.0898,-7.0898,-7.0898,-7.0898,-7.0898,-7.0898,-7.0783,-7.0552,-7.0552,-7.0669,-7.0893,-7.1042,-7.1212,-7.1399,-7.154,-7.1441,-7.1206,-7.1206,-7.0855,-7.027,-7.0035,-6.911,-6.7915,-6.745,-6.6858,-6.6221,-6.6084,-6.6077,-6.6185,-6.6275,-6.6314,-6.6244,-6.6055,-6.5602,-6.4902,-6.382,-6.3067,-6.2491,-6.1747,-6.1648,-6.1718,-6.1718,-6.1718,-6.1718,-6.1718,-6.1718,-6.1718,-6.1718,-6.1718,-6.1718,-6.1718,-6.1483,-6.133,-6.133,-6.1093,-6.0588,-5.9729,-5.9065,-5.8363,-5.7508,-5.6932,-5.6588,-5.6595,-5.6601,-5.6601,-5.6601,-5.6601,-5.6601,-5.6601,-5.6601,-5.6601,-5.6601,-5.6601,-5.6601,-5.6601,-5.6601,-5.6601,-5.6601,-5.6601,-5.6601,-5.6601,-5.6601,-5.6601,-5.6601,-5.6601,-5.6601,-5.6601,-5.6601,-5.6601,-5.6601,-5.6601,-5.6601,-5.6601,-7.6015,-7.6015,-7.6015,-7.6015,-7.6015,-7.6015,-7.6015,-7.6015,-7.6015,-7.6015,-7.6015,-7.6015,-7.6015,-7.6015,-7.6015,-7.6015,-7.5668,-7.4938,-7.3591,-7.2206,-7.1245,-7.0937,-7.0898,-7.0898,-7.0898,-7.0898,-7.0898,-7.0898,-7.0898,-7.0898,-7.0898,-7.0898,-7.1005,-7.1225,-7.132,-7.1513,-7.1705,-7.1846,-7.1924,-7.1987,-7.1987,-7.1621,-7.1047,-7.0696,-6.986,-6.8683,-6.7836,-6.7145,-6.6541,-6.6061,-6.597,-6.6041,-6.6128,-6.6129,-6.6148,-6.623,-6.5898,-6.5317,-6.4425,-6.362,-6.2818,-6.2037,-6.171,-6.1605,-6.1605,-6.1605,-6.1651,-6.1676,-6.1663,-6.1651,-6.1676,-6.1718,-6.1718,-6.1718,-6.1718,-6.1718,-6.1718,-6.1718,-6.1369,-6.051,-5.9612,-5.8753,-5.7894,-5.7084,-5.6587,-5.6595,-5.66,-5.6601,-5.6601,-5.6601,-5.6601,-5.6601,-5.6601,-5.6601,-5.6601,-5.6601,-5.6601,-5.6601,-5.6601,-5.6601,-5.6601,-5.6601,-5.6601,-5.6601,-5.6601,-5.6601,-5.6601,-5.6601,-5.6601,-5.6601,-5.6601,-5.6601,-5.6601,-5.6601,-5.6601,-5.6601,-7.6015,-7.6015,-7.6015,-7.6015,-7.6015,-7.6015,-7.6015,-7.6015,-7.6015,-7.6015,-7.6015,-7.6015,-7.6015,-7.6015,-7.6015,-7.6015,-7.5207,-7.4399,-7.3654,-7.2783,-7.1975,-7.1168,-7.1129,-7.1091,-7.1014,-7.0937,-7.0898,-7.0898,-7.0898,-7.0898,-7.0898,-7.0898,-7.0992,-7.1181,-7.1203,-7.1356,-7.1671,-7.1677,-7.1785,-7.1969,-7.1969,-7.185,-7.1605,-7.0781,-7.0349,-6.9947,-6.8229,-6.7518,-6.7205,-6.6215,-6.5897,-6.5897,-6.5897,-6.5897,-6.5909,-6.6052,-6.6077,-6.5884,-6.5033,-6.4277,-6.3518,-6.253,-6.1849,-6.1466,-6.1476,-6.1476,-6.1504,-6.1615,-6.158,-6.1556,-6.1663,-6.1676,-6.1718,-6.1718,-6.1718,-6.1718,-6.1718,-6.1718,-6.1408,-6.0627,-5.969,-5.8792,-5.7972,-5.7124,-5.6588,-5.6599,-5.6599,-5.66,-5.6601,-5.6601,-5.6601,-5.6601,-5.6601,-5.6601,-5.6601,-5.6601,-5.6601,-5.6601,-5.6601,-5.6601,-5.6601,-5.6601,-5.6601,-5.6601,-5.6601,-5.6601,-5.6601,-5.6601,-5.6601,-5.6601,-5.6601,-5.6601,-5.6601,-5.6601,-5.6601,-5.6601,-7.6015,-7.6015,-7.6015,-7.6015,-7.6015,-7.6015,-7.6015,-7.6015,-7.6015,-7.6015,-7.6015,-7.6015,-7.6015,-7.6015,-7.6015,-7.6015,-7.5207,-7.463,-7.4437,-7.3668,-7.3129,-7.2937,-7.2937,-7.2629,-7.1937,-7.1245,-7.0898,-7.0898,-7.0898,-7.0898,-7.0898,-7.0898,-7.0925,-7.0966,-7.1136,-7.1229,-7.1329,-7.1481,-7.1559,-7.1626,-7.1626,-7.1566,-7.1536,-7.1342,-7.0732,-6.9923,-6.9494,-6.8397,-6.7063,-6.6192,-6.5897,-6.5897,-6.5897,-6.5897,-6.591,-6.5933,-6.5946,-6.5753,-6.4867,-6.4055,-6.3191,-6.2375,-6.1601,-6.112,-6.1246,-6.1272,-6.1285,-6.131,-6.1412,-6.1495,-6.1556,-6.1648,-6.1718,-6.1718,-6.1718,-6.1718,-6.1718,-6.1718,-6.164,-6.1444,-6.0039,-5.9024,-5.8831,-5.7473,-5.6588,-5.6599,-5.6599,-5.66,-5.6601,-5.6601,-5.6601,-5.6601,-5.6601,-5.6601,-5.6601,-5.6601,-5.6601,-5.6601,-5.6601,-5.6601,-5.6601,-5.6601,-5.6601,-5.6601,-5.6601,-5.6601,-5.6601,-5.6601,-5.6601,-5.6601,-5.6601,-5.6601,-5.6601,-5.6601,-5.6601,-5.6601,-7.6015,-7.6015,-7.6015,-7.6015,-7.6015,-7.6015,-7.6015,-7.6015,-7.6015,-7.6015,-7.6015,-7.6015,-7.6015,-7.6015,-7.6015,-7.6015,-7.5592,-7.513,-7.4745,-7.4322,-7.3899,-7.3514,-7.3514,-7.3283,-7.2822,-7.236,-7.1745,-7.0898,-7.0898,-7.0898,-7.0898,-7.0898,-7.0898,-7.0912,-7.1017,-7.1101,-7.1225,-7.13,-7.1404,-7.1481,-7.1481,-7.143,-7.1349,-7.1349,-7.0947,-7.0346,-6.996,-6.8641,-6.7051,-6.659,-6.6205,-6.5897,-6.5897,-6.5897,-6.5897,-6.5897,-6.5897,-6.5782,-6.532,-6.4589,-6.3705,-6.2897,-6.2066,-6.1445,-6.1186,-6.1112,-6.1136,-6.1172,-6.1285,-6.139,-6.1481,-6.1598,-6.1718,-6.1718,-6.1718,-6.1718,-6.1718,-6.1718,-6.1718,-6.1718,-6.0549,-5.9378,-5.8558,-5.7358,-5.6585,-5.6593,-5.6596,-5.6598,-5.6601,-5.6601,-5.6796,-5.7226,-5.7226,-5.7226,-5.7226,-5.7226,-5.7226,-5.7226,-5.6797,-5.6601,-5.6601,-5.6601,-5.6601,-5.6601,-5.6601,-5.6601,-5.6601,-5.6601,-5.6601,-5.6601,-5.6601,-5.6601,-5.6601,-5.6601,-5.6601,-5.6601,-7.6015,-7.6015,-7.6015,-7.6015,-7.6015,-7.6015,-7.6015,-7.6015,-7.6015,-7.6015,-7.6015,-7.6015,-7.6015,-7.6015,-7.6015,-7.6015,-7.6015,-7.5707,-7.4976,-7.4938,-7.463,-7.3976,-7.3937,-7.386,-7.3707,-7.3707,-7.286,-7.1129,-7.1129,-7.1052,-7.0898,-7.0898,-7.0898,-7.0898,-7.0898,-7.0992,-7.1158,-7.1158,-7.1229,-7.1386,-7.1386,-7.129,-7.1158,-7.1158,-7.1067,-7.0821,-7.0129,-6.8898,-6.7513,-6.7359,-6.6782,-6.609,-6.609,-6.6013,-6.5897,-6.5897,-6.5897,-6.5897,-6.5897,-6.5243,-6.4436,-6.3705,-6.282,-6.1955,-6.133,-6.106,-6.0993,-6.112,-6.1128,-6.1232,-6.1406,-6.158,-6.1668,-6.1718,-6.1718,-6.1718,-6.1718,-6.1718,-6.1718,-6.1718,-6.0939,-5.9731,-5.7977,-5.7202,-5.6737,-5.6623,-5.6588,-5.6594,-5.6598,-5.6599,-5.6991,-5.7851,-5.789,-5.7969,-5.8125,-5.8125,-5.8125,-5.8125,-5.7383,-5.6953,-5.6836,-5.668,-5.6601,-5.6601,-5.6601,-5.6601,-5.6601,-5.6601,-5.6601,-5.6601,-5.6601,-5.6601,-5.6601,-5.6601,-5.6601,-5.6601,-7.6015,-7.6015,-7.6015,-7.6015,-7.6015,-7.6015,-7.6015,-7.6015,-7.6015,-7.6015,-7.6015,-7.6015,-7.6015,-7.6015,-7.6015,-7.6015,-7.6015,-7.5938,-7.5822,-7.5822,-7.5784,-7.5668,-7.5668,-7.5322,-7.4553,-7.4553,-7.3707,-7.2014,-7.2014,-7.1629,-7.0898,-7.0898,-7.0898,-7.0898,-7.0898,-7.0925,-7.0952,-7.0952,-7.094,-7.0979,-7.0979,-7.0953,-7.0952,-7.0952,-7.0939,-7.0898,-7.0783,-7.0129,-6.9244,-6.8475,-6.7667,-6.6936,-6.6936,-6.6436,-6.5897,-6.5897,-6.5897,-6.5897,-6.5897,-6.5243,-6.4589,-6.4436,-6.3243,-6.2062,-6.1982,-6.1378,-6.0839,-6.0834,-6.0953,-6.1062,-6.1193,-6.1401,-6.1573,-6.1671,-6.1718,-6.1718,-6.1718,-6.1718,-6.1718,-6.1718,-6.0939,-5.9733,-5.7986,-5.7707,-5.7358,-5.6669,-5.6587,-5.6587,-5.6594,-5.6597,-5.699,-5.7889,-5.789,-5.8242,-5.9023,-5.9023,-5.9023,-5.9023,-5.8906,-5.8437,-5.7695,-5.6953,-5.6601,-5.6601,-5.6601,-5.6601,-5.6601,-5.6601,-5.6601,-5.6601,-5.6601,-5.6601,-5.6601,-5.6601,-5.6601,-5.6601,-7.6015,-7.6015,-7.6015,-7.6015,-7.6015,-7.6015,-7.6015,-7.6015,-7.6015,-7.6015,-7.6015,-7.6015,-7.6015,-7.6015,-7.6015,-7.6015,-7.6015,-7.6015,-7.6015,-7.6015,-7.6015,-7.6015,-7.6015,-7.5822,-7.5438,-7.5438,-7.4822,-7.3591,-7.2668,-7.1745,-7.0898,-7.0898,-7.0898,-7.0898,-7.0898,-7.0898,-7.0898,-7.0898,-7.0898,-7.0898,-7.0898,-7.0898,-7.0898,-7.0898,-7.0898,-7.0898,-7.0898,-7.0398,-6.9629,-6.9244,-6.8552,-6.777,-6.7378,-6.6945,-6.6512,-6.6106,-6.597,-6.5897,-6.5897,-6.5628,-6.5205,-6.4705,-6.4051,-6.3358,-6.2897,-6.2127,-6.1408,-6.0896,-6.0892,-6.1018,-6.1158,-6.1379,-6.1521,-6.1671,-6.1718,-6.1718,-6.1718,-6.1718,-6.1718,-6.1718,-6.0939,-6.0083,-5.9345,-5.8801,-5.8178,-5.7322,-5.7285,-5.7052,-5.6626,-5.702,-5.7688,-5.8591,-5.9061,-5.9492,-5.9883,-5.9883,-5.9883,-5.9844,-5.9414,-5.875,-5.789,-5.8008,-5.7539,-5.664,-5.7109,-5.7031,-5.6601,-5.6601,-5.6601,-5.6601,-5.6601,-5.6601,-5.6601,-5.6601,-5.6601,-5.6601]},{"header":{"parameterUnit":"m.s-1","parameterCategory":1,"la1":30.6,"la2":28.766,"lo1":-90.7593,"lo2":-88.6598,"dy":0.0162,"dx":0.0183,"nx":116,"ny":114,"refTime":"2024-05-25T06:00:00:Z","depth":0,"parameterNumber":3,"parameterNumberName":"V-component_of_WINDS"},"data":[0.0,0.0,0.0,0.0,0.0,0.0,0.0,0.0,0.0,0.0,0.0,0.0,0.0,0.0,0.0,0.0,0.0,0.0,0.0,0.0,0.0,0.0,0.0,0.0,0.0,0.0,0.0,0.0,0.0,0.0,0.0,0.0,0.0,0.0,0.0,0.0,0.0,0.0,0.0,0.0,0.0,0.0,0.0,0.0,0.0,0.0,0.0,0.0,0.0,0.0,0.0,0.0,0.0,0.0,0.0,0.0,0.0,0.0,0.0,0.0,0.0,0.0,0.0,0.0,0.0,0.0,0.0,0.0,0.0,0.0,0.0,0.0,0.0,0.0,0.0,0.0,0.0,0.0,0.0,0.0,0.0,0.0,0.0,0.0,0.0,0.0,0.0,0.0,0.0,0.0,0.0,0.0,0.0,0.0,0.0,0.0,0.0,0.0,0.0,0.0,0.0,0.0,0.0,0.0,0.0,0.0,0.0,0.0,0.0,0.0,0.0,0.0,0.0,0.0,0.0,0.0,0.0,0.0,0.0,0.0,0.0,0.0,0.0,0.0,0.0,0.0,0.0,0.0,0.0,0.0,0.0,0.0,0.0,0.0,0.0,0.0,0.0,0.0,0.0,0.0,0.0,0.0,0.0,0.0,0.0,0.0,0.0,0.0,0.0,0.0,0.0,0.0,0.0,0.0,0.0,0.0,0.0,0.0,0.0,0.0,0.0,0.0,0.0,0.0,0.0,0.0,0.0,0.0,0.0,0.0,0.0,0.0,0.0,0.0,0.0,0.0,0.0,0.0,0.0,0.0,0.0,0.0,0.0,0.0,0.0,0.0,0.0,0.0,0.0,0.0,0.0,0.0,0.0,0.0,0.0,0.0,0.0,0.0,0.0,0.0,0.0,0.0,0.0,0.0,0.0,0.0,0.0,0.0,0.0,0.0,0.0,0.0,0.0,0.0,0.0,0.0,0.0,0.0,0.0,0.0,0.0,0.0,0.0,0.0,0.0,0.0,0.0,0.0,0.0,0.0,0.0,0.0,0.0,0.0,0.0,0.0,0.0,0.0,0.0,0.0,0.0,0.0,0.0,0.0,0.0,0.0,0.0,0.0,0.0,0.0,0.0,0.0,0.0,0.0,0.0,0.0,0.0,0.0,0.0,0.0,0.0,0.0,0.0,0.0,0.0,0.0,0.0,0.0,0.0,0.0,0.0,0.0,0.0,0.0,0.0,0.0,0.0,0.0,0.0,0.0,0.0,0.0,0.0,0.0,0.0,0.0,0.0,0.0,0.0,0.0,0.0,0.0,0.0,0.0,0.0,0.0,0.0,0.0,0.0,0.0,0.0,0.0,0.0,0.0,0.0,0.0,0.0,0.0,0.0,0.0,0.0,0.0,0.0,0.0,0.0,0.0,0.0,0.0,0.0,0.0,0.0,0.0,0.0,0.0,0.0,0.0,0.0,0.0,0.0,0.0,0.0,0.0,0.0,0.0,0.0,0.0,0.0,0.0,0.0,0.0,0.0,0.0,0.0,0.0,0.0,0.0,0.0,0.0,0.0,0.0,0.0,0.0,0.0,0.0,0.0,0.0,0.0,0.0,0.0,0.0,0.0,0.0,0.0,0.0,0.0,0.0,0.0,0.0,0.0,0.0,0.0,0.0,0.0,0.0,0.0,0.0,0.0,0.0,0.0,0.0,0.0,0.0,0.0,0.0,0.0,0.0,0.0,0.0,0.0,0.0,0.0,0.0,0.0,0.0,0.0,0.0,0.0,0.0,0.0,0.0,0.0,0.0,0.0,0.0,0.0,0.0,0.0,0.0,0.0,0.0,0.0,0.0,0.0,0.0,0.0,0.0,0.0,0.0,0.0,0.0,0.0,0.0,0.0,0.0,0.0,0.0,0.0,0.0,0.0,0.0,0.0,0.0,0.0,0.0,0.0,0.0,0.0,0.0,0.0,0.0,0.0,0.0,0.0,0.0,0.0,0.0,0.0,0.0,0.0,0.0,0.0,0.0,0.0,0.0,0.0,0.0,0.0,0.0,0.0,0.0,0.0,0.0,0.0,0.0,0.0,0.0,0.0,0.0,0.0,0.0,0.0,0.0,0.0,0.0,0.0,0.0,0.0,0.0,0.0,0.0,0.0,0.0,0.0,0.0,0.0,0.0,0.0,0.0,0.0,0.0,0.0,0.0,0.0,0.0,0.0,0.0,0.0,0.0,0.0,0.0,0.0,0.0,0.0,0.0,0.0,0.0,0.0,0.0,0.0,0.0,0.0,0.0,0.0,0.0,0.0,0.0,0.0,0.0,0.0,0.0,0.0,0.0,0.0,0.0,0.0,0.0,0.0,0.0,0.0,0.0,0.0,0.0,0.0,0.0,0.0,0.0,0.0,0.0,0.0,0.0,0.0,0.0,0.0,0.0,0.0,0.0,0.0,0.0,0.0,0.0,0.0,0.0,0.0,0.0,0.0,0.0,0.0,0.0,0.0,0.0,0.0,0.0,0.0,0.0,0.0,0.0,0.0,0.0,0.0,0.0,0.0,0.0,0.0,0.0,0.0,0.0,0.0,0.0,0.0,0.0,0.0,0.0,0.0,0.0,0.0,0.0,0.0,0.0,0.0,0.0,0.0,0.0,0.0,0.0,0.0,0.0,0.0,0.0,0.0,0.0,0.0,0.0,0.0,0.0,0.0,0.0,0.0,0.0,0.0,0.0,0.0,0.0,0.0,0.0,0.0,0.0,0.0,0.0,0.0,0.0,0.0,0.0,0.0,0.0,0.0,0.0,0.0,0.0,0.0,0.0,0.0,0.0,0.0,0.0,0.0,0.0,0.0,0.0,0.0,0.0,0.0,0.0,0.0,0.0,0.0,0.0,0.0,0.0,0.0,0.0,0.0,0.0,0.0,0.0,0.0,0.0,0.0,0.0,0.0,0.0,0.0,0.0,0.0,0.0,0.0,0.0,0.0,0.0,0.0,0.0,0.0,0.0,0.0,0.0,0.0,0.0,0.0,0.0,0.0,0.0,0.0,0.0,0.0,0.0,0.0,0.0,0.0,0.0,0.0,0.0,0.0,0.0,0.0,0.0,0.0,0.0,0.0,0.0,0.0,0.0,0.0,0.0,0.0,0.0,0.0,0.0,0.0,0.0,0.0,0.0,0.0,0.0,0.0,0.0,0.0,0.0,0.0,0.0,0.0,0.0,0.0,0.0,0.0,0.0,0.0,0.0,0.0,0.0,0.0,0.0,0.0,0.0,0.0,0.0,0.0,0.0,0.0,0.0,0.0,0.0,0.0,0.0,0.0,0.0,0.0,0.0,0.0,0.0,0.0,0.0,0.0,0.0,0.0,0.0,0.0,0.0,0.0,0.0,0.0,0.0,0.0,0.0,0.0,0.0,0.0,0.0,0.0,0.0,0.0,0.0,0.0,0.0,0.0,0.0,0.0,0.0,0.0,0.0,0.0,0.0,0.0,0.0,0.0,0.0,0.0,0.0,0.0,0.0,0.0,0.0,0.0,0.0,0.0,0.0,0.0,0.0,0.0,0.0,0.0,0.0,0.0,0.0,0.0,0.0,0.0,0.0,0.0,0.0,0.0,0.0,0.0,0.0,0.0,0.0,0.0,0.0,0.0,0.0,0.0,0.0,0.0,0.0,0.0,0.0,0.0,0.0,0.0,0.0,0.0,0.0,0.0,0.0,0.0,0.0,0.0,0.0,0.0,0.0,0.0,0.0,0.0,0.0,0.0,0.0,0.0,0.0,0.0,0.0,0.0,0.0,0.0,0.0,0.0,0.0,0.0,0.0,0.0,0.0,0.0,0.0,0.0,0.0,0.0,0.0,0.0,0.0,0.0,0.0,0.0,0.0,0.0,0.0,0.0,0.0,0.0,0.0,0.0,0.0,0.0,0.0,0.0,0.0,0.0,0.0,0.0,0.0,0.0,0.0,0.0,0.0,0.0,0.0,0.0,0.0,0.0,0.0,0.0,0.0,0.0,0.0,0.0,0.0,0.0,0.0,0.0,0.0,0.0,0.0,0.0,0.0,0.0,0.0,0.0,0.0,0.0,0.0,0.0,0.0,0.0,0.0,0.0,0.0,0.0,0.0,0.0,0.0,0.0,0.0,0.0,0.0,0.0,0.0,0.0,0.0,0.0,0.0,0.0,0.0,0.0,0.0,0.0,0.0,0.0,0.0,0.0,0.0,0.0,0.0,0.0,0.0,0.0,0.0,0.0,0.0,0.0,0.0,0.0,0.0,0.0,0.0,0.0,0.0,0.0,0.0,0.0,0.0,0.0,0.0,0.0,0.0,0.0,0.0,0.0,0.0,0.0,0.0,0.0,0.0,0.0,0.0,0.0,0.0,0.0,0.0,0.0,0.0,0.0,0.0,0.0,0.0,0.0,0.0,0.0,0.0,0.0,0.0,0.0,0.0,0.0,0.0,0.0,0.0,0.0,0.0,0.0,0.0,0.0,0.0,0.0,0.0,0.0,0.0,0.0,0.0,0.0,0.0,0.0,0.0,0.0,0.0,0.0,0.0,0.0,0.0,0.0,0.0,0.0,0.0,0.0,0.0,0.0,0.0,0.0,0.0,0.0,0.0,0.0,0.0,0.0,0.0,0.0,0.0,0.0,0.0,0.0,0.0,0.0,0.0,0.0,0.0,0.0,0.0,0.0,0.0,0.0,0.0,0.0,0.0,0.0,0.0,0.0,0.0,0.0,0.0,0.0,0.0,0.0,0.0,0.0,0.0,0.0,0.0,0.0,0.0,0.0,0.0,0.0,0.0,0.0,0.0,0.0,0.0,0.0,0.0,0.0,0.0,0.0,0.0,0.0,0.0,0.0,0.0,0.0,0.0,0.0,0.0,0.0,0.0,0.0,0.0,0.0,0.0,0.0,0.0,0.0,0.0,0.0,0.0,0.0,0.0,0.0,0.0,0.0,0.0,0.0,0.0,0.0,0.0,0.0,0.0,0.0,0.0,0.0,0.0,0.0,0.0,0.0,0.0,0.0,0.0,0.0,0.0,0.0,0.0,0.0,0.0,0.0,0.0,0.0,0.0,0.0,0.0,0.0,0.0,0.0,0.0,0.0,0.0,0.0,0.0,0.0,0.0,0.0,0.0,0.0,0.0,0.0,0.0,0.0,0.0,0.0,0.0,0.0,0.0,0.0,0.0,0.0,0.0,0.0,0.0,0.0,0.0,0.0,0.0,0.0,0.0,0.0,0.0,0.0,0.0,0.0,0.0,0.0,0.0,0.0,0.0,0.0,0.0,0.0,0.0,0.0,0.0,0.0,0.0,0.0,0.0,0.0,0.0,0.0,0.0,0.0,0.0,0.0,0.0,0.0,0.0,0.0,0.0,0.0,0.0,0.0,0.0,0.0,0.0,0.0,0.0,0.0,0.0,0.0,0.0,0.0,0.0,0.0,0.0,0.0,0.0,0.0,0.0,0.0,0.0,0.0,0.0,0.0,0.0,0.0,0.0,0.0,0.0,0.0,0.0,0.0,0.0,0.0,0.0,0.0,0.0,0.0,0.0,0.0,0.0,0.0,0.0,0.0,0.0,0.0,0.0,0.0,0.0,0.0,0.0,0.0,0.0,0.0,0.0,0.0,0.0,0.0,0.0,0.0,0.0,0.0,0.0,0.0,0.0,0.0,0.0,0.0,0.0,0.0,0.0,0.0,0.0,0.0,0.0,0.0,0.0,0.0,0.0,0.0,0.0,0.0,0.0,0.0,0.0,0.0,0.0,0.0,0.0,0.0,0.0,0.0,0.0,0.0,0.0,0.0,0.0,0.0,0.0,0.0,0.0,0.0,0.0,0.0,0.0,0.0,0.0,0.0,0.0,0.0,0.0,0.0,0.0,0.0,0.0,0.0,0.0,0.0,0.0,0.0,0.0,0.0,0.0,0.0,0.0,0.0,0.0,0.0,0.0,0.0,0.0,0.0,0.0,0.0,0.0,0.0,0.0,0.0,0.0,0.0,0.0,0.0,0.0,0.0,0.0,0.0,0.0,0.0,0.0,0.0,0.0,0.0,0.0,0.0,0.0,0.0,0.0,0.0,0.0,0.0,0.0,0.0,0.0,0.0,0.0,0.0,0.0,0.0,0.0,0.0,0.0,-1.0819,-1.0717,0.0,0.0,0.0,0.0,0.0,0.0,0.0,0.0,0.0,0.0,0.0,0.0,0.0,0.0,0.0,0.0,0.0,0.0,0.0,0.0,0.0,0.0,0.0,-0.7557,-0.7796,-0.8097,-0.616,-0.4718,-0.4153,0.0,0.0,0.0,0.0,0.0,0.0,0.0,0.0,0.0,0.0,0.0,0.0,0.0,0.0,0.0,0.0,0.0,0.0,0.0,0.0,0.0,0.0,0.0,0.0,0.0,0.0,0.0,0.0,0.0,0.0,0.0,0.0,0.0,0.0,0.0,0.0,0.0,0.0,0.0,0.0,0.0,0.0,0.0,0.0,0.0,0.0,0.0,0.0,0.0,0.0,0.0,0.0,0.0,0.0,0.0,0.0,0.0,0.0,0.0,0.0,0.0,0.0,0.0,0.0,0.0,0.0,0.0,0.0,0.0,0.0,0.0,0.0,0.0,0.0,0.0,0.0,0.0,0.0,0.0,0.0,0.0,0.0,0.0,0.0,0.0,-1.1029,-1.0894,0.0,0.0,0.0,0.0,0.0,0.0,0.0,0.0,0.0,0.0,0.0,0.0,0.0,0.0,0.0,0.0,0.0,0.0,0.0,0.0,0.0,-0.6931,-0.7269,-0.7524,-0.778,-0.8062,-0.6881,-0.5615,-0.4548,-0.2939,0.0,0.0,0.0,0.0,0.0,0.0,0.0,0.0,0.0,0.0,0.0,0.0,0.0,0.0,0.0,0.0,0.0,0.0,0.0,0.0,0.0,0.0,0.0,0.0,0.0,0.0,0.0,0.0,0.0,0.0,0.0,0.0,0.0,0.0,0.0,0.0,0.0,0.0,0.0,0.0,0.0,0.0,0.0,0.0,0.0,0.0,0.0,0.0,0.0,0.0,0.0,0.0,0.0,0.0,0.0,0.0,0.0,0.0,0.0,0.0,0.0,0.0,0.0,0.0,0.0,0.0,0.0,0.0,0.0,0.0,0.0,0.0,0.0,0.0,0.0,0.0,0.0,0.0,-1.1681,-1.1694,-1.1694,-1.1565,-1.1504,-1.1497,-1.1375,-1.1192,-1.0914,-1.0894,0.0,0.0,0.0,0.0,0.0,0.0,0.0,0.0,0.0,0.0,0.0,0.0,0.0,0.0,0.0,0.0,0.0,0.0,0.0,-0.6899,-0.7204,-0.7399,-0.7725,-0.8171,-0.6924,-0.6089,-0.6026,-0.3523,0.0,0.0,-0.0617,0.0,0.0,0.0,0.0,0.0,0.0,0.0,0.0,0.0,0.0,0.0,0.0,0.0,0.0,0.0,0.0,0.0,0.0,0.0,0.0,0.0,0.0,0.0,0.0,0.0,0.0,0.0,0.0,0.0,0.0,0.0,0.0,0.0,0.0,0.0,0.0,0.0,0.0,0.0,0.0,0.0,0.0,0.0,0.0,0.0,0.0,0.0,0.0,0.0,0.0,0.0,0.0,0.0,0.0,0.0,0.0,0.0,0.0,0.0,0.0,0.0,0.0,0.0,0.0,0.0,0.0,0.0,0.0,0.0,0.0,-0.4721,-0.6376,-0.8732,-1.0553,-1.1803,-1.1938,-1.2006,-1.2006,-1.206,-1.1972,-1.2046,-1.2026,0.0,-1.1124,-1.1002,0.0,0.0,0.0,0.0,0.0,0.0,0.0,0.0,0.0,0.0,0.0,0.0,0.0,0.0,0.0,0.0,0.0,0.0,0.0,0.0,0.0,-0.7529,-0.7856,-0.814,-0.7711,-0.7071,-0.6366,-0.4374,-0.2869,-0.2061,-0.0693,0.0,0.0,0.0,0.0,0.0,0.0,0.0,0.0,0.0,0.0,0.0,0.0,0.0,0.0,0.0,0.0,0.0,0.0,0.0,0.0,0.0,0.0,0.0,0.0,0.0,0.0,0.0,0.0,0.0,0.0,0.0,0.0,0.0,0.0,0.0,0.0,0.0,0.0,0.0,0.0,0.0,0.0,0.0,0.0,0.0,0.0,0.0,0.0,0.0,0.0,0.0,0.0,0.0,0.0,0.0,0.0,0.0,0.0,0.0,0.0,0.0,0.0,0.0,0.0,0.0,0.0,0.0,0.0,-0.0978,-0.2799,-0.4869,-0.7121,-0.9004,-1.0721,-1.2332,-1.2318,-1.2311,-1.2305,-1.223,-1.2189,-1.2182,-1.2101,-1.1864,-1.1525,-1.1382,-1.1226,-1.1056,0.0,0.0,0.0,0.0,-1.0677,-1.0622,0.0,0.0,0.0,0.0,0.0,0.0,0.0,0.0,0.0,0.0,0.0,0.0,-0.7255,-0.7655,-0.797,-0.8151,-0.8318,-0.7876,-0.6883,-0.5127,-0.3624,-0.2505,-0.0888,0.0,0.0,0.0,0.0,0.0,0.0,0.0,0.0,0.0,0.0,0.0,0.0,0.0,0.0,0.0,0.0,0.0,0.0,0.0,0.0,0.0,0.0,0.0,0.0,0.0,0.0,0.0,0.0,0.0,0.0,0.0,0.0,0.0,0.0,0.0,0.0,0.0,0.0,0.0,0.0,0.0,0.0,0.0,0.0,0.0,0.0,0.0,0.0,0.0,0.0,0.0,0.0,0.0,0.0,0.0,0.0,0.0,0.0,0.0,0.0,0.0,0.0,0.0,0.0,0.0,0.0,0.0,-0.0383,-0.1251,-0.2913,-0.5076,-0.7676,-0.9352,-1.1031,-1.2786,-1.2678,-1.2596,-1.2556,-1.2447,-1.2379,-1.2338,-1.2223,-1.2067,-1.1877,-1.1694,-1.1463,-1.1206,-1.1063,-1.1002,-1.0989,-1.0873,-1.0812,-1.0778,0.0,0.0,0.0,0.0,0.0,0.0,0.0,0.0,0.0,0.0,0.0,-0.7192,-0.7266,-0.7655,-0.797,-0.8151,-0.8178,-0.8178,-0.8108,-0.5586,-0.4006,-0.382,-0.1358,0.0,0.0,0.0,0.0,0.0,0.0,0.0,0.0,0.0,0.0,0.0,0.0,0.0,0.0,0.0,0.0,0.0,0.0,0.0,0.0,0.0,0.0,0.0,0.0,0.0,0.0,0.0,0.0,0.0,0.0,0.0,0.0,0.0,0.0,0.0,0.0,0.0,0.0,0.0,0.0,0.0,0.0,0.0,0.0,0.0,0.0,0.0,0.0,0.0,0.0,0.0,0.0,0.0,0.0,0.0,0.0,0.0,0.0,0.0,0.0,0.0,0.0,0.0,0.0,0.0,0.0,0.0,-0.0401,-0.1298,-0.2917,-0.5099,-0.777,-0.9462,-1.116,-1.2949,-1.2942,-1.2861,-1.2718,-1.2712,-1.263,-1.2488,-1.2481,-1.2318,-1.2026,-1.1735,-1.1525,-1.1362,-1.1212,-1.1151,-1.1151,-1.1214,-1.1056,-1.0867,0.0,0.0,0.0,0.0,0.0,-1.0438,-0.97,-0.8105,-0.6978,-0.6915,-0.7127,-0.7345,-0.7551,-0.7823,-0.8089,-0.8329,-0.8356,-0.8318,-0.8178,-0.5635,-0.4013,-0.3928,-0.1408,0.0,0.0,0.0,0.0,0.0,0.0,0.0,0.0,0.0,0.0,0.0,0.0,0.0,0.0,0.0,0.0,0.0,0.0,0.0,0.0,0.0,0.0,0.0,0.0,0.0,0.0,0.0,0.0,0.0,0.0,0.0,0.0,0.0,0.0,0.0,0.0,0.0,0.0,0.0,0.0,0.0,0.0,0.0,0.0,0.0,0.0,0.0,0.0,0.0,0.0,0.0,0.0,0.0,0.0,0.0,0.0,0.0,0.0,0.0,0.0,0.0,0.0,0.0,0.0,0.0,0.0,0.0,-0.0411,-0.1246,-0.1911,-0.4063,-0.7871,-0.8466,-1.0151,-1.3098,-1.2901,-1.2786,-1.2725,-1.263,-1.2556,-1.2501,-1.2501,-1.2393,-1.2196,-1.1986,-1.1762,-1.1525,-1.1369,-1.1307,-1.1301,-1.1199,-1.1131,-1.107,0.0,0.0,0.0,0.0,-1.1836,-1.0492,-0.9686,-0.817,-0.7122,-0.7095,-0.7312,-0.7535,-0.7736,-0.8008,-0.8242,-0.8405,-0.8378,-0.8124,-0.7591,-0.5351,-0.3804,-0.3297,-0.1159,0.0,0.0,0.0,0.0,0.0,0.0,0.0,0.0,0.0,0.0,0.0,0.0,0.0,0.0,0.0,0.0,0.0,0.0,0.0,0.0,0.0,0.0,0.0,0.0,0.0,0.0,0.0,0.0,0.0,0.0,0.0,0.0,0.0,0.0,0.0,0.0,0.0,0.0,0.0,0.0,0.0,0.0,0.0,0.0,0.0,0.0,0.0,0.0,0.0,0.0,0.0,0.0,0.0,0.0,0.0,0.0,0.0,0.0,0.0,0.0,0.0,0.0,0.0,0.0,0.0,0.0,0.0,-0.0418,-0.1262,-0.1262,-0.3444,-0.7968,-0.7908,-0.9695,-1.3247,-1.2996,-1.2854,-1.28,-1.2651,-1.2549,-1.2501,-1.2501,-1.242,-1.2277,-1.2128,-1.1918,-1.1674,-1.1525,-1.147,-1.1457,-1.1355,-1.1287,-1.1212,0.0,0.0,0.0,-1.4244,-1.2439,-1.0899,-1.0664,-0.8814,-0.7347,-0.7307,-0.7551,-0.7747,-0.7861,-0.8198,-0.8416,-0.8416,-0.8301,-0.765,-0.6362,-0.4814,-0.3325,-0.1975,-0.069,0.0,0.0,0.0,0.0,0.0,0.0,0.0,0.0,0.0,0.0,0.0,0.0,0.0,0.0,0.0,0.0,0.0,0.0,0.0,0.0,0.0,0.0,0.0,0.0,0.0,0.0,0.0,0.0,0.0,0.0,0.0,0.0,0.0,0.0,0.0,0.0,0.0,0.0,0.0,0.0,0.0,0.0,0.0,0.0,0.0,0.0,0.0,0.0,0.0,0.0,0.0,0.0,0.0,0.0,0.0,0.0,0.0,0.0,0.0,0.0,0.0,0.0,0.0,0.0,0.0,0.0,0.0,-0.0421,-0.1262,-0.1346,-0.3526,-0.7968,-0.8052,-0.9888,-1.3397,-1.3241,-1.3091,-1.2956,-1.2793,-1.2644,-1.2501,-1.2501,-1.242,-1.2277,-1.2128,-1.1972,-1.1816,-1.1674,-1.1619,-1.1619,-1.1619,-1.1518,-1.1341,0.0,0.0,-1.4052,-1.327,-1.1814,-1.0535,-0.9711,-0.8295,-0.7319,-0.7328,-0.7622,-0.7872,-0.8054,-0.8171,-0.8323,-0.841,-0.8225,-0.7564,-0.623,-0.4752,-0.2923,-0.0637,-0.0196,0.0,0.0,0.0,0.0,0.0,0.0,0.0,0.0,0.0,0.0,0.0,0.0,0.0,0.0,0.0,0.0,0.0,0.0,0.0,0.0,0.0,0.0,0.0,0.0,0.0,0.0,0.0,0.0,0.0,0.0,0.0,0.0,0.0,0.0,0.0,0.0,0.0,0.0,0.0,0.0,0.0,0.0,0.0,0.0,0.0,0.0,0.0,0.0,0.0,0.0,0.0,0.0,0.0,0.0,0.0,0.0,0.0,0.0,0.0,0.0,0.0,0.0,0.0,0.0,0.0,0.0,0.0,-0.0426,-0.1277,-0.2532,-0.4784,-0.7968,-0.9304,-1.1142,-1.3397,-1.3146,-1.3077,-1.2949,-1.2684,-1.2542,-1.2501,-1.2501,-1.242,-1.2277,-1.2128,-1.1972,-1.1816,-1.1674,-1.1619,-1.1619,-1.1619,-1.145,-1.1212,0.0,-1.4292,-1.41,-1.3463,-1.2013,-1.0672,-1.0023,-0.8562,-0.7486,-0.7475,-0.7758,-0.8037,-0.8108,-0.8209,-0.8318,-0.8339,-0.8209,-0.7311,-0.5414,-0.3387,-0.1576,-0.0065,0.0,0.0,0.0,0.0,0.0,0.0,0.0,0.0,0.0,0.0,0.0,0.0,0.0,0.0,0.0,0.0,-0.0336,-0.0874,-0.0867,-0.0529,0.0,0.0,0.0,0.0,0.0,0.0,0.0,0.0,0.0,0.0,0.0,0.0,0.0,0.0,0.0,0.0,0.0,0.0,0.0,0.0,0.0,0.0,0.0,0.0,0.0,0.0,0.0,0.0,0.0,0.0,0.0,0.0,0.0,0.0,0.0,0.0,0.0,0.0,0.0,0.0,0.0,0.0,0.0,0.0,0.0,0.0,0.0,0.0,-0.0344,-0.1026,-0.297,-0.5224,-0.7714,-0.9721,-1.1641,-1.3397,-1.3105,-1.2963,-1.2949,-1.2644,-1.2501,-1.2501,-1.2501,-1.242,-1.2277,-1.2128,-1.1972,-1.1816,0.0,0.0,0.0,0.0,-1.1369,-1.122,0.0,-1.4316,-1.4316,-1.4377,-1.2596,-1.1123,-1.1009,-0.9175,-0.7778,-0.7768,-0.796,-0.8114,-0.8114,-0.8247,-0.8334,-0.8225,-0.8214,-0.7023,0.0,-0.1648,-0.0193,0.0,0.0,0.0,0.0,0.0,0.0,0.0,0.0,0.0,0.0,0.0,0.0,0.0,0.0,0.0,0.0,0.0,-0.074,-0.1882,-0.1882,-0.1277,-0.047,-0.0464,-0.0396,-0.0263,-0.0257,-0.0127,0.0,0.0,0.0,0.0,0.0,0.0,0.0,0.0,0.0,0.0,0.0,0.0,0.0,0.0,0.0,0.0,0.0,0.0,0.0,0.0,0.0,0.0,0.0,0.0,0.0,0.0,0.0,0.0,0.0,0.0,0.0,0.0,0.0,0.0,0.0,0.0,0.0,0.0,0.0,0.0,0.0,0.0,0.0,0.0,0.0,-0.5341,-0.7459,-0.98,-1.1813,-1.3397,-1.3105,-1.2963,-1.2949,-1.2644,-1.2501,-1.2501,-1.2501,-1.2413,-1.225,-1.2121,-1.1959,-1.1796,-1.1667,-1.1619,-1.1599,-1.145,-1.1294,-1.1138,0.0,-1.4449,-1.4437,-1.4871,-1.2863,-1.1279,-1.1424,-0.9489,-0.7962,-0.7956,-0.8027,-0.8114,-0.8114,-0.8158,-0.818,-0.8089,-0.8089,-0.6976,0.0,0.0,-0.1193,-0.0066,0.0,0.0,0.0,0.0,0.0,0.0,0.0,0.0,0.0,0.0,0.0,0.0,0.0,0.0,0.0,0.0,-0.0135,-0.0404,-0.0404,-0.1613,-0.3488,-0.3479,-0.2742,-0.1673,-0.1664,-0.0997,0.0,0.0,0.0,0.0,0.0,0.0,0.0,0.0,0.0,0.0,0.0,0.0,0.0,0.0,0.0,0.0,0.0,0.0,0.0,0.0,0.0,0.0,0.0,0.0,0.0,0.0,0.0,0.0,0.0,0.0,0.0,0.0,0.0,0.0,0.0,0.0,0.0,0.0,0.0,0.0,0.0,0.0,-0.0351,-0.1127,-0.4456,-0.6697,-0.7885,-1.1225,-1.3065,-1.3397,-1.3105,0.0,-1.2949,-1.2644,-1.2501,-1.2501,-1.2501,-1.2352,-1.2101,-1.2074,-1.1904,-1.166,-1.1633,-1.1619,-1.1599,-1.145,-1.1294,-1.1138,-1.5052,-1.4896,-1.4787,-1.5065,-1.3184,-1.1643,-1.1684,-0.9849,-0.8417,-0.8301,-0.8294,-0.8279,-0.8285,-0.8088,-0.7999,-0.7883,-0.7372,0.0,0.0,-0.2912,-0.1464,-0.0067,0.0,0.0,0.0,0.0,0.0,0.0,0.0,0.0,0.0,0.0,0.0,0.0,0.0,0.0,0.0,0.0,-0.0807,-0.215,-0.215,-0.3892,-0.6168,-0.3222,-0.215,-0.2017,-0.1277,-0.1076,-0.0942,-0.0269,0.0,0.0,0.0,0.0,0.0,0.0,0.0,0.0,0.0,0.0,0.0,0.0,0.0,0.0,0.0,0.0,0.0,0.0,0.0,0.0,0.0,0.0,0.0,0.0,0.0,0.0,0.0,0.0,0.0,0.0,0.0,0.0,0.0,0.0,0.0,0.0,0.0,0.0,0.0,0.0,-0.0619,-0.2,-0.5087,-0.7329,-0.8716,-1.1807,-1.3403,-1.3397,-1.3105,-1.2963,-1.2949,-1.2644,-1.2501,-1.2501,-1.2501,-1.2379,-1.2162,-1.2013,-1.1816,-1.1619,-1.1619,-1.1619,-1.1599,-1.145,-1.1294,-1.1138,-1.4717,-1.4683,-1.4733,-1.5155,-1.3446,-1.1977,-1.1946,-1.0213,-0.8851,-0.8688,-0.861,-0.8538,-0.8439,-0.8183,-0.7917,-0.7812,0.0,0.0,0.0,-0.3322,-0.1862,-0.0472,-0.0135,0.0,0.0,0.0,0.0,0.0,0.0,0.0,0.0,0.0,0.0,0.0,0.0,-0.0135,-0.0404,-0.0404,-0.1881,-0.4294,-0.4294,-0.57,-0.724,-0.2618,-0.1546,-0.2351,-0.0941,-0.0941,-0.1546,-0.0404,0.0,0.0,0.0,0.0,0.0,0.0,0.0,0.0,0.0,0.0,0.0,0.0,0.0,0.0,0.0,-0.1646,-0.123,-0.2173,-0.1344,-0.0384,-0.0078,0.0,0.0,0.0,0.0,0.0,0.0,0.0,0.0,0.0,0.0,0.0,0.0,0.0,0.0,0.0,0.0,0.0,0.0,-0.0359,-0.1244,-0.2781,-0.5721,-0.7967,-0.955,-1.2139,-1.3403,-1.3397,-1.3105,-1.2963,-1.2949,-1.2644,-1.2501,-1.2501,-1.2474,-1.2379,-1.2223,-1.1945,-1.1748,-1.1619,-1.1619,-1.1619,-1.1599,-1.145,-1.1294,-1.1138,0.0,-1.2559,-1.3375,-1.5429,-1.371,-1.2131,-1.2469,-1.0459,-0.891,-0.9044,-0.8962,-0.8751,-0.8433,-0.8372,-0.8268,-0.816,0.0,0.0,-0.6227,-0.4824,-0.3369,-0.1916,-0.0685,0.0,0.0,0.0,0.0,0.0,0.0,0.0,0.0,0.0,0.0,0.0,0.0,-0.0673,-0.1882,-0.1882,-0.2821,-0.4294,-0.4294,-0.4495,-0.4696,-0.4093,-0.3892,-0.3892,-0.2418,-0.1143,-0.0202,-0.0067,0.0,0.0,0.0,0.0,0.0,0.0,0.0,0.0,0.0,0.0,0.0,0.0,-0.113,-0.2293,0.0,-0.3572,-0.4219,-0.2744,-0.2417,-0.1905,-0.0318,0.0,0.0,0.0,0.0,0.0,0.0,0.0,0.0,0.0,0.0,0.0,0.0,0.0,0.0,0.0,0.0,0.0,0.0,-0.1614,-0.284,-0.3301,-0.7191,-0.9512,-1.006,-1.2229,-1.3403,-1.3397,-1.3105,-1.2963,-1.2949,-1.2644,-1.2501,-1.2494,-1.2366,-1.223,-1.2074,-1.1904,-1.1748,-1.1619,-1.1619,-1.1619,-1.1599,-1.145,-1.1294,-1.1138,0.0,-1.2307,-1.2689,-1.3663,-1.25,-1.1431,-1.1595,-1.0271,-0.9301,-0.9361,-0.9252,-0.9037,-0.8732,-0.8303,-0.8055,-0.8106,-0.8127,0.0,-0.6572,-0.5095,-0.3691,-0.2289,-0.0764,0.0,0.0,0.0,0.0,0.0,0.0,0.0,0.0,0.0,0.0,-0.0068,-0.0961,-0.1638,-0.2153,-0.3117,-0.426,-0.5503,-0.5503,-0.6038,-0.6706,-0.5837,-0.5031,-0.4093,-0.262,-0.1748,0.0,-0.0269,0.0,0.0,0.0,0.0,0.0,0.0,0.0,0.0,0.0,-0.0627,-0.1336,-0.1428,-0.2675,-0.4111,-0.5196,-0.5275,-0.5266,-0.5486,-0.4003,-0.2444,-0.1712,-0.0745,0.0,0.0,0.0,0.0,0.0,0.0,0.0,0.0,0.0,0.0,0.0,0.0,0.0,0.0,0.0,-0.0538,-0.1614,-0.2405,-0.379,-0.6159,-0.835,-1.0043,-1.1231,-1.265,-1.3356,-1.3268,-1.3057,-1.2915,-1.282,-1.2603,-1.2501,-1.2501,-1.244,-1.2277,-1.2054,-1.1993,-1.183,-1.1619,-1.1619,-1.1619,-1.1613,-1.1545,-1.1369,-1.122,0.0,-1.1402,-1.1437,-1.1437,-1.0882,-1.0554,-1.0835,-1.0164,-0.9612,-0.9612,-0.9493,-0.9335,-0.9037,-0.8346,-0.7967,-0.8272,-0.8169,-0.7824,0.0,-0.5331,-0.3861,-0.2866,-0.1055,0.0,0.0,0.0,0.0,0.0,0.0,0.0,0.0,0.0,-0.021,-0.0691,-0.1811,-0.27,-0.3467,-0.4667,-0.5877,-0.7085,-0.7085,-0.7675,-0.8451,-0.7379,-0.5904,-0.4093,-0.262,-0.1882,-0.1345,-0.0336,0.0,0.0,0.0,0.0,0.0,0.0,0.0,0.0,0.0,-0.1112,-0.2334,-0.2461,-0.3976,-0.5839,-0.7189,-0.7003,-0.6784,-0.7477,-0.5361,-0.3221,-0.2726,-0.1179,0.0,0.0,0.0,0.0,0.0,0.0,0.0,0.0,0.0,0.0,0.0,0.0,0.0,0.0,0.0,-0.0804,-0.2765,-0.3275,-0.4903,-0.8031,-0.9327,-1.0677,-1.2069,-1.2777,-1.3199,-1.3173,-1.2983,-1.284,-1.2725,-1.2569,-1.2501,-1.2501,-1.2461,-1.2298,-1.2135,-1.2013,-1.185,-1.1619,-1.1619,-1.1619,-1.1619,-1.1619,-1.1423,-1.1234,0.0,0.0,-0.8989,-0.8989,-0.9167,-0.9603,-1.0723,-1.0164,-0.9612,-0.9612,-0.9734,-0.964,-0.9335,-0.8726,-0.8464,-0.8649,-0.8353,-0.8269,-0.8512,-0.5844,-0.4274,-0.4262,-0.1489,0.0,0.0,0.0,0.0,0.0,0.0,0.0,0.0,0.0,-0.078,-0.2237,-0.2308,-0.3911,-0.6627,-0.67,-0.7484,-0.8696,-0.8696,-0.8693,-0.859,-0.8518,-0.6773,-0.4093,-0.262,0.0,-0.0067,0.0,0.0,0.0,0.0,0.0,0.0,0.0,0.0,0.0,0.0,-0.112,-0.2362,-0.2467,-0.4889,-0.7264,-0.7434,-0.8852,-0.956,-0.789,-0.625,-0.4622,-0.2808,-0.1095,0.0,0.0,0.0,0.0,0.0,0.0,0.0,0.0,0.0,0.0,0.0,0.0,0.0,0.0,0.0,-0.0795,-0.2647,-0.4406,-0.628,-0.8025,-1.0318,-1.1704,-1.2069,-1.2345,-1.2765,-1.3166,-1.2874,-1.2732,-1.2725,-1.2569,-1.2501,-1.2494,-1.2359,-1.221,-1.2047,-1.1898,-1.1748,-1.1619,-1.1619,-1.1619,-1.1619,-1.1619,-1.1423,-1.1234,0.0,0.0,0.0,-0.9211,-0.918,-0.924,-0.9544,-0.9411,-0.9341,-0.9439,-0.9656,0.0,0.0,0.0,0.0,0.0,-0.8614,-0.8528,-0.8573,-0.6796,-0.5309,-0.4471,-0.2481,-0.0931,0.0,0.0,0.0,0.0,0.0,-0.0509,-0.1519,-0.1519,-0.237,-0.3971,-0.4932,-0.5969,-0.6848,-0.7902,-0.862,-0.8997,-0.8834,-0.8796,-0.8676,-0.7569,-0.5971,-0.4088,0.0,0.0,0.0,0.0,0.0,0.0,0.0,0.0,0.0,0.0,0.0,-0.0208,-0.1251,-0.2692,-0.4211,-0.5413,-0.7319,-0.8984,-0.9251,-0.9745,-1.0067,-0.9502,-0.8033,-0.6364,-0.4569,-0.2829,-0.1272,-0.0171,0.0,0.0,0.0,0.0,0.0,0.0,0.0,-0.0513,-0.1701,-0.0689,0.0,0.0,-0.1136,-0.2619,-0.4448,-0.6234,-0.8077,-0.9894,-1.0924,-1.1533,-1.1653,-1.2181,-1.255,-1.2621,-1.2568,-1.2576,-1.2576,-1.2522,-1.2501,-1.2494,-1.2352,-1.2203,-1.2047,-1.1898,-1.1748,-1.1619,-1.1619,-1.1619,-1.1619,-1.1619,-1.1423,-1.1234,0.0,0.0,0.0,0.0,0.0,0.0,0.0,0.0,0.0,0.0,0.0,0.0,0.0,0.0,0.0,0.0,0.0,-0.8722,-0.8767,0.0,-0.602,-0.5203,-0.3237,-0.1703,-0.0781,-0.0287,0.0,0.0,-0.0503,-0.1294,-0.2227,-0.2813,-0.3956,-0.5496,-0.6505,-0.7271,-0.7724,-0.8687,-0.9041,-0.8981,-0.8851,-0.8791,-0.8597,-0.7027,-0.5503,0.0,0.0,-0.1196,0.0,0.0,0.0,0.0,0.0,0.0,-0.0136,-0.0678,-0.0821,-0.1178,-0.2738,-0.4364,-0.5922,-0.7049,-0.8526,-0.9889,-1.009,-1.0139,-1.015,-1.0182,-0.8786,-0.705,-0.5365,-0.3595,-0.1923,-0.0256,0.0,0.0,0.0,-0.0622,-0.1055,-0.0957,-0.164,-0.2477,-0.3533,-0.2648,-0.1985,-0.1899,-0.3021,-0.4487,-0.6295,-0.7448,-0.8938,-1.0772,-1.1026,-1.1237,-1.1403,-1.1803,-1.2024,-1.2159,-1.2362,-1.2501,-1.2501,-1.2501,-1.2474,-1.242,-1.2271,-1.2121,-1.1965,-1.1816,-1.1701,-1.1619,-1.1619,-1.1619,-1.1619,-1.1619,-1.1423,-1.1234,0.0,0.0,0.0,0.0,0.0,0.0,0.0,0.0,0.0,0.0,0.0,0.0,0.0,0.0,0.0,0.0,0.0,0.0,-0.9094,0.0,0.0,-0.6429,-0.3748,-0.2238,-0.21,-0.0771,-0.007,0.0,-0.1402,-0.2171,-0.2243,-0.3827,-0.5415,-0.691,-0.7069,-0.791,-0.928,-0.9171,-0.8992,-0.8879,-0.8823,-0.8704,-0.8472,-0.6982,0.0,0.0,0.0,-0.1262,-0.0067,0.0,-0.0067,-0.0135,-0.0135,-0.0204,-0.055,-0.1993,-0.2427,-0.281,-0.4411,-0.5986,-0.7254,-0.7356,-0.8607,-0.9867,-0.9981,-1.0008,-0.997,-0.9851,-0.8529,-0.6881,-0.5237,-0.3672,-0.2053,-0.051,-0.0259,-0.0263,-0.0268,-0.1866,-0.299,-0.2872,-0.4511,-0.5673,-0.5555,-0.5594,-0.5628,-0.571,-0.5625,-0.6309,-0.8009,-0.8179,-0.8991,-1.0659,-1.0737,-1.0898,-1.1309,-1.1143,-1.1287,-1.1882,-1.2269,-1.2501,-1.2501,-1.2501,-1.2427,-1.2284,-1.2128,-1.1972,-1.1823,-1.1681,-1.1619,-1.1619,-1.1619,-1.1619,-1.1619,-1.1613,-1.1416,-1.1227,0.0,0.0,0.0,0.0,0.0,0.0,0.0,0.0,0.0,0.0,0.0,0.0,0.0,0.0,0.0,0.0,0.0,0.0,-0.8978,0.0,0.0,0.0,0.0,-0.4274,-0.2139,-0.1743,-0.1051,0.0,0.0,-0.2731,-0.3918,-0.5401,-0.6881,-0.8363,-0.8394,-0.862,-0.8971,-0.8938,-0.8965,-0.8998,0.0,-0.8807,-0.8634,0.0,0.0,0.0,0.0,-0.186,-0.1409,-0.0331,-0.0736,-0.1707,-0.1707,-0.2549,-0.3549,-0.3966,-0.4075,-0.4485,-0.613,-0.6913,-0.7576,-0.8839,-0.9508,-0.9845,-0.9878,-0.9818,-0.9748,-0.972,-0.9421,-0.8621,-0.6941,-0.6466,-0.5791,-0.4152,-0.4006,-0.411,-0.4196,-0.4644,-0.4972,-0.492,-0.5317,-0.6037,-0.7399,-0.7436,-0.8001,-0.9263,-0.8169,-0.7581,-0.8085,-0.9352,-1.0263,-1.0654,-1.0737,-1.0693,-1.0766,-1.085,-1.1197,-1.1882,-1.2037,-1.2192,-1.2501,-1.2501,-1.2427,-1.2284,-1.2128,-1.1972,-1.1823,-1.1681,-1.1619,-1.1619,-1.1619,-1.1619,-1.1606,-1.1491,-1.1328,-1.1145,0.0,0.0,0.0,0.0,0.0,0.0,0.0,0.0,0.0,0.0,0.0,0.0,0.0,0.0,0.0,0.0,0.0,0.0,0.0,0.0,0.0,0.0,0.0,-0.5637,-0.401,-0.274,-0.172,0.0,0.0,0.0,0.0,-0.6562,-0.8035,-0.8872,-0.8857,-0.8884,-0.8879,-0.8894,0.0,0.0,0.0,0.0,0.0,0.0,0.0,0.0,-0.3858,-0.308,-0.3046,-0.2217,-0.2584,-0.3322,-0.3322,-0.3981,-0.4873,-0.5611,-0.5818,-0.6185,-0.781,-0.8323,-0.8607,-0.959,-0.9835,-0.9835,-0.9835,-0.9753,-0.9655,-0.9601,-0.9639,-0.9135,-0.7418,-0.7338,-0.7035,-0.542,-0.5409,-0.5561,-0.5706,-0.6442,-0.6951,-0.6875,-0.7534,-0.8416,-0.9309,-0.9328,-0.9697,-1.0654,-0.9815,-0.9226,-0.9226,-1.0148,-1.0737,-1.0737,-1.0683,-1.0574,-1.04,-1.0668,-1.1004,-1.134,-1.1727,-1.2037,-1.2269,-1.2424,-1.2386,-1.2182,-1.2101,-1.1938,-1.1735,-1.1653,-1.1619,-1.1619,-1.1619,-1.1579,-1.1511,-1.1423,-1.1253,-1.1056,0.0,0.0,0.0,0.0,0.0,0.0,0.0,0.0,0.0,0.0,0.0,0.0,0.0,0.0,0.0,0.0,0.0,0.0,0.0,0.0,0.0,0.0,-0.7379,-0.651,-0.6105,-0.3694,-0.2218,-0.1815,0.0,0.0,0.0,0.0,0.0,0.0,0.0,0.0,0.0,0.0,0.0,0.0,0.0,0.0,0.0,0.0,0.0,0.0,-0.5098,-0.467,-0.4798,-0.4806,-0.4926,-0.5063,-0.5063,-0.5186,-0.562,-0.714,-0.7512,-0.7826,-0.928,-0.9764,-0.984,-0.9856,-0.984,-0.9813,-0.9813,-0.9715,-0.959,-0.9487,-0.9476,-0.9034,-0.7543,-0.7486,-0.7267,-0.6035,-0.6035,-0.6286,-0.6399,-0.7855,-0.8901,-0.8828,-1.0297,-1.1166,-1.0965,-1.0916,-1.0851,-1.0742,-1.0737,-1.0737,-1.0737,-1.0737,-1.0732,-1.0715,-1.0579,-1.0411,-1.0204,-1.0504,-1.0672,-1.0641,-1.134,-1.1805,-1.1882,-1.2269,-1.2262,-1.2135,-1.2135,-1.1891,-1.1619,-1.1619,-1.1619,-1.1619,-1.1619,-1.1525,-1.1389,-1.1369,-1.1185,-1.088,0.0,0.0,0.0,0.0,0.0,0.0,0.0,0.0,0.0,0.0,-1.0065,-1.0521,0.0,0.0,0.0,0.0,0.0,0.0,0.0,0.0,0.0,0.0,-0.8384,-0.7107,-0.4696,-0.416,-0.2752,-0.0336,-0.3021,0.0,0.0,0.0,0.0,0.0,0.0,0.0,0.0,0.0,0.0,0.0,0.0,0.0,0.0,0.0,0.0,0.0,-0.6573,-0.6095,-0.6248,-0.6383,-0.6583,-0.6789,-0.6789,-0.771,-0.8904,-0.9148,-0.9244,-0.9361,-0.9699,-0.9824,-0.9862,-0.9965,-0.984,-0.9699,-0.9699,-0.953,-0.9362,-0.934,-0.9416,-0.9381,-0.8988,-0.9236,-0.95,-0.9352,-0.9559,-0.9954,-1.0282,-1.0595,-1.089,-1.0968,-1.1073,-1.1118,-1.1074,-1.0889,-1.0759,-1.0737,-1.0737,-1.0737,-1.0737,-1.0737,-1.0688,-1.059,-1.0378,-1.0242,-1.0204,-1.0179,-1.0275,-1.0563,-1.0719,-1.1184,-1.1882,-1.196,-1.2033,-1.2135,-1.2135,-1.1891,-1.1619,-1.1619,-1.1619,-1.1619,-1.1619,-1.1525,-1.1375,-1.1246,-1.1097,-1.086,0.0,0.0,0.0,0.0,0.0,0.0,0.0,-0.8672,-0.9042,-0.9429,-0.9842,-1.0247,-1.0644,-1.0717,-1.0651,0.0,0.0,0.0,0.0,0.0,0.0,0.0,0.0,-0.7984,-0.6573,-0.577,-0.4696,-0.3356,0.0,-0.5369,-0.5432,-0.7579,-0.859,-0.859,-0.859,-0.859,-0.859,0.0,0.0,-0.859,-0.859,-0.859,0.0,0.0,0.0,0.0,0.0,-0.7622,-0.7824,-0.7814,-0.8062,-0.829,-0.829,-0.8955,-0.9671,-0.9671,-0.9709,-0.978,-0.99,-0.9932,-0.9949,-1.0008,-0.9845,-0.9671,-0.9671,-0.9481,-0.9302,-0.9302,-0.9351,-0.9372,-0.9313,-0.9595,-0.9894,-1.0079,-1.0356,-1.0677,-1.1036,-1.1145,-1.1204,-1.1264,-1.1172,-1.1079,-1.1014,-1.0846,-1.0737,-1.0737,-1.0737,-1.0737,-1.0737,-1.0677,-1.059,-1.0471,-1.0297,-1.0172,-1.0106,-1.0052,-1.0097,-1.0253,-1.0486,-1.0796,-1.1262,-1.1657,-1.1739,-1.1755,-1.1905,-1.1816,-1.1619,-1.1619,-1.1619,-1.1619,-1.1619,-1.1525,-1.1369,-1.1219,-1.107,-1.086,0.0,0.0,0.0,0.0,0.0,0.0,0.0,-0.8615,-0.8928,-0.9282,-0.9528,-0.9927,-1.0452,-1.0518,-1.0452,0.0,0.0,0.0,0.0,0.0,0.0,0.0,0.0,-0.8451,-0.8117,0.0,0.0,-0.5998,-0.6353,0.0,0.0,0.0,0.0,0.0,-0.859,-0.859,-0.859,-0.859,-0.859,0.0,0.0,-0.86,-0.8628,0.0,0.0,0.0,0.0,-0.8774,-0.8905,-0.8834,-0.8997,-0.9226,-0.9226,-0.9432,-0.9671,-0.9699,-0.9769,-0.9862,-0.9987,-1.0019,-1.0019,-1.0019,-0.9845,-0.9671,-0.9671,-0.9481,-0.9302,-0.9302,-0.9302,-0.9302,-0.9302,-0.9481,-0.9709,-0.9943,-1.0166,-1.0443,-1.0829,-1.0965,-1.1041,-1.1096,-1.1079,-1.1025,-1.0927,-1.0808,-1.0737,-1.0737,-1.0737,-1.0737,-1.0737,-1.0601,-1.0476,-1.0389,-1.0242,-1.0117,-1.0019,-1.0019,-1.0019,-1.0019,-1.033,-1.0486,-1.0635,-1.1204,-1.1447,-1.1376,-1.1603,-1.1676,-1.1619,-1.1619,-1.1619,-1.1619,-1.1619,-1.1525,-1.1369,-1.1219,-1.107,-1.086,0.0,0.0,0.0,0.0,0.0,0.0,0.0,-0.8544,-0.8893,-0.9071,-0.9449,-0.9728,-0.9794,-0.9794,-0.9655,0.0,0.0,0.0,0.0,0.0,0.0,0.0,0.0,0.0,0.0,0.0,0.0,-0.4649,-0.6088,0.0,0.0,0.0,0.0,0.0,0.0,-0.859,-0.859,-0.859,0.0,0.0,0.0,0.0,0.0,0.0,0.0,0.0,0.0,-0.8861,-0.8802,-0.8899,-0.889,-0.8917,-0.8917,-0.9302,-0.9688,-0.9791,-0.9829,-0.9862,-0.9987,-1.0019,-1.0019,-1.0019,-0.9845,-0.9671,-0.9671,-0.9481,-0.9302,-0.9302,-0.9302,-0.9302,-0.9302,-0.9416,-0.9579,-0.9818,-0.9965,-1.0221,-1.0688,-1.0764,-1.0851,-1.1074,-1.1003,-1.0933,-1.0922,-1.0808,-1.0737,-1.0737,-1.0737,-1.0737,-1.0737,-1.0525,-1.04,-1.0384,-1.0161,-1.003,-1.0019,-1.0019,-1.0019,-1.0019,-1.0019,-1.0253,-1.0635,-1.0585,-1.0911,-1.1376,-1.1382,-1.1458,-1.1619,-1.1619,-1.1619,-1.1619,-1.1619,-1.1525,-1.1369,-1.1219,-1.107,-1.086,0.0,0.0,0.0,0.0,0.0,0.0,-0.8307,-0.8474,-0.86,-0.8762,-0.8923,-0.9085,-0.9165,-0.9171,-0.9209,-0.9461,0.0,0.0,0.0,0.0,0.0,0.0,0.0,0.0,0.0,0.0,-0.7674,-0.7056,-0.7779,0.0,0.0,0.0,0.0,0.0,0.0,-0.8655,-0.859,-0.859,0.0,0.0,0.0,0.0,0.0,0.0,0.0,0.0,0.0,0.0,-0.8986,-0.889,-0.8884,-0.8884,-0.8884,-0.9014,-0.9275,-0.9459,-0.9666,-0.9851,-0.9894,-0.9965,-1.0019,-1.0019,-0.9845,-0.9671,-0.9671,-0.9481,-0.9302,-0.9302,-0.9302,-0.9302,-0.9302,-0.9345,-0.9454,-0.9699,-0.978,-0.9954,-1.0356,-1.0476,-1.0585,-1.0753,-1.0797,-1.0808,-1.0808,-1.0764,-1.0737,-1.0737,-1.0737,-1.0704,-1.0634,-1.0476,-1.0384,-1.0384,-1.015,-1.0019,-1.0019,-1.0019,-1.0019,-1.0019,-0.9943,-0.9988,-1.0136,-1.0237,-1.042,-1.0663,-1.0967,-1.1168,-1.126,-1.1476,-1.1619,-1.1619,-1.1619,-1.1586,-1.1497,-1.1253,-1.1124,-1.1043,0.0,0.0,0.0,0.0,0.0,-0.8176,-0.8388,-0.8416,-0.8459,-0.8573,-0.859,-0.8633,-0.8758,-0.8769,-0.8956,-0.9446,-0.9198,0.0,0.0,0.0,0.0,0.0,0.0,0.0,0.0,0.0,-0.8894,-0.8927,-0.9052,-0.909,0.0,0.0,-0.8954,-0.8769,0.0,0.0,0.0,0.0,0.0,0.0,0.0,0.0,0.0,0.0,0.0,0.0,0.0,0.0,0.0,0.0,0.0,-0.8899,-0.8899,-0.8899,-0.8954,-0.9226,-0.9508,-0.9748,-0.9818,-1.0004,-1.0175,-1.0019,-0.9916,-0.9822,-0.9746,-0.9481,-0.9302,-0.9302,-0.9302,-0.9302,-0.9302,-0.9302,-0.9372,-0.9579,-0.9644,-0.978,-1.0101,-1.0253,-1.0373,-1.0492,-1.0579,-1.0645,-1.0677,-1.0715,-1.0737,-1.0737,-1.0704,-1.0645,-1.0558,-1.0411,-1.0335,-1.0335,-1.0128,-1.0019,-1.0019,-1.0019,-1.0003,-0.9965,-0.9878,-0.9818,-0.978,-0.9876,-1.0002,-1.0143,-1.0523,-1.0828,-1.1044,-1.1332,-1.1476,-1.1619,-1.1619,-1.1592,-1.1518,-1.126,-1.1138,-1.1063,0.0,0.0,0.0,0.0,0.0,0.0,-0.8399,-0.8416,-0.8459,-0.8573,-0.859,-0.8633,-0.8758,-0.8769,-0.8818,-0.8868,-0.884,0.0,0.0,0.0,0.0,0.0,0.0,0.0,0.0,0.0,-0.9188,-0.9296,-0.9421,-0.9421,-0.9302,-0.9302,-0.9111,-0.8769,0.0,0.0,0.0,0.0,0.0,0.0,0.0,0.0,0.0,0.0,0.0,0.0,0.0,0.0,0.0,0.0,0.0,0.0,0.0,-0.8774,-0.884,-0.9198,-0.9394,-0.9541,-0.9775,-1.0158,-1.0486,-1.0097,-1.0145,-1.0191,-0.9822,-0.9481,-0.9302,-0.9302,-0.9302,-0.9302,-0.9302,-0.9302,-0.9345,-0.947,-0.959,-0.9753,-0.9987,-1.0128,-1.0253,-1.0373,-1.0389,-1.0433,-1.0629,-1.0666,-1.0737,-1.0737,-1.0623,-1.0639,-1.0639,-1.0335,-1.0204,-1.0204,-1.0085,-1.0019,-1.0019,-1.0019,-0.996,-0.984,-0.9835,-0.978,-0.9666,-0.9541,-0.9707,-1.0064,-0.9937,-1.0317,-1.0972,-1.0972,-1.126,-1.1619,-1.1619,-1.1525,-1.1375,-1.1219,-1.107,-1.086,0.0,0.0,0.0,0.0,0.0,0.0,0.0,-0.8535,-0.8546,-0.8584,-0.7717,-0.7555,-0.869,-0.8011,-0.7862,-0.8809,-0.8847,0.0,0.0,0.0,0.0,0.0,0.0,0.0,0.0,-0.9008,-0.9188,-0.9302,-0.9427,-0.9465,-0.9427,-0.9427,-0.928,-0.9019,-0.9019,-0.8347,0.0,0.0,0.0,0.0,0.0,0.0,0.0,0.0,0.0,0.0,0.0,0.0,0.0,0.0,0.0,0.0,0.0,0.0,0.0,-0.9765,-0.9701,-0.9394,-0.9557,-0.9763,-0.9932,-0.9856,-0.9736,-0.9695,-0.962,-0.9421,-0.9302,-0.9302,-0.9302,-0.9302,-0.9302,-0.9302,-0.9372,-0.9579,-0.9644,-0.9753,-0.9987,-1.0052,-1.0123,-1.0248,-1.0335,-1.0433,-1.0629,-1.052,-1.053,-1.0606,-1.0503,-1.0405,-1.0318,-1.0242,-1.0204,-1.0204,-1.0085,-0.9981,-0.9894,-0.9894,-0.984,-0.972,-0.9639,-0.9579,-0.9541,-0.9416,-0.9434,-0.9574,-0.9824,-1.0023,-1.0239,-1.0534,-1.0894,-1.1188,-1.1188,-1.1311,-1.1369,-1.1219,-1.107,-1.086,0.0,0.0,0.0,0.0,0.0,0.0,0.0,-0.859,-0.8384,-0.7851,-0.6978,-0.6623,-0.7095,-0.6399,-0.6539,-0.814,-0.8225,0.0,0.0,0.0,0.0,0.0,0.0,0.0,-0.884,-0.9122,-0.9323,-0.9443,-0.9563,-0.9595,-0.9557,-0.9557,-0.9405,-0.9062,-0.849,-0.7612,0.0,0.0,0.0,0.0,0.0,0.0,0.0,0.0,0.0,0.0,0.0,0.0,0.0,0.0,0.0,0.0,0.0,0.0,0.0,0.0,-0.9959,-0.9644,-0.9719,-0.9796,-0.9897,-0.9746,-0.9728,-0.9707,-0.956,-0.9394,-0.9302,-0.9302,-0.9302,-0.9302,-0.9302,-0.9302,-0.9356,-0.9508,-0.9568,-0.9666,-0.9862,-0.9927,-0.9998,-1.0123,-1.0242,-1.0346,-1.0416,-1.04,-1.0416,-1.0487,-1.0384,-1.0286,-1.021,-1.0161,-1.0112,-1.0068,-0.9992,-0.9916,-0.984,-0.9796,-0.9715,-0.9601,-0.9525,-0.9465,-0.9416,-0.934,-0.9302,-0.9302,-0.959,-0.9735,0.0,-1.0167,-1.0534,-1.0966,-1.0914,-1.1089,-1.1287,-1.1138,-1.0989,-1.0779,0.0,0.0,0.0,0.0,0.0,0.0,0.0,-0.859,-0.8051,-0.6577,-0.6309,-0.5829,-0.4597,-0.4404,-0.5115,-0.7011,0.0,0.0,0.0,0.0,0.0,0.0,0.0,0.0,-0.8895,-0.9307,-0.9546,-0.9671,-0.978,-0.9786,-0.9682,-0.9682,-0.9497,-0.9089,-0.7505,-0.6599,0.0,0.0,0.0,0.0,0.0,0.0,0.0,0.0,0.0,0.0,0.0,0.0,0.0,0.0,0.0,0.0,0.0,0.0,0.0,0.0,0.0,0.0,0.0,-1.0201,-1.0156,-0.9788,-0.9854,-0.9911,-0.9544,-0.9383,0.0,-0.9302,-0.9302,-0.9302,-0.9302,-0.9302,-0.9307,-0.9313,-0.941,-0.953,-0.9661,-0.978,-0.9894,-1.0008,-1.0123,-1.0193,-1.0204,-1.0297,-1.0362,-1.0373,-1.0259,-1.0188,-1.0188,-1.0074,-0.9954,-0.984,-0.9818,-0.9813,-0.9813,-0.9709,-0.9595,-0.9476,-0.9476,-0.9416,-0.9302,-0.9302,-0.9302,-0.9302,-0.9302,-0.9518,-0.9879,-0.9879,-1.0239,-1.0868,-1.0812,-1.0944,-1.1131,-1.0927,-1.0853,-1.0717,0.0,0.0,0.0,0.0,0.0,0.0,0.0,0.0,0.0,0.0,-0.5436,-0.4659,-0.4398,-0.3406,-0.3963,0.0,0.0,0.0,0.0,0.0,0.0,0.0,0.0,0.0,-0.9019,-0.9351,-0.9546,-0.9671,-0.978,-0.9824,-0.9796,-0.9796,-0.9655,-0.9332,-0.7787,-0.5686,0.0,0.0,0.0,0.0,0.0,0.0,0.0,0.0,0.0,0.0,-0.7638,-0.8847,0.0,0.0,0.0,0.0,0.0,0.0,0.0,0.0,-1.0417,-0.9735,-1.0034,0.0,-0.9784,-0.944,-0.944,-0.949,0.0,-0.9323,-0.9302,-0.9302,-0.9302,-0.9302,-0.9302,-0.9302,-0.9334,-0.9427,-0.947,-0.9557,-0.9769,-0.99,-0.9987,-1.0019,-1.0047,-1.0101,-1.0193,-1.0144,-1.0144,-1.0242,-1.0134,-1.0063,-1.0063,-0.9949,-0.9867,-0.984,-0.9666,-0.9568,-0.9568,-0.9541,-0.947,-0.9345,-0.9345,-0.9334,-0.9302,-0.9302,-0.9302,-0.9302,-0.9302,-0.9374,-0.9446,-0.9446,-0.9684,-1.0025,-1.0278,-1.0461,-1.0574,-1.0819,-1.0853,-1.0717,0.0,0.0,0.0,0.0,0.0,0.0,0.0,0.0,0.0,0.0,0.0,-0.3038,-0.2396,-0.1667,0.0,0.0,0.0,0.0,0.0,0.0,0.0,0.0,0.0,-0.916,-0.9209,-0.9449,-0.9628,-0.9748,-0.9862,-0.9894,-0.9835,-0.9786,-0.9285,-0.8371,-0.5967,-0.3587,0.0,0.0,0.0,0.0,0.0,0.0,0.0,0.0,0.0,0.0,-0.7949,-0.9111,0.0,-0.9242,-0.9402,-0.9651,0.0,0.0,0.0,0.0,-1.0435,-0.9898,-0.9761,-0.9596,-0.9512,-0.9357,-0.9302,-0.9302,-0.9302,-0.922,-0.9144,-0.9144,-0.9144,-0.916,-0.9215,-0.9226,-0.9264,-0.9383,-0.9595,-0.9865,-1.0106,-1.002,-1.0019,-1.0019,-1.0019,-1.0047,-1.0112,-1.0057,-1.0047,-1.0112,-1.0057,-0.9998,-0.9938,-0.9873,-0.9786,-0.9682,-0.9552,-0.9487,-0.9487,-0.9432,-0.9372,-0.9302,-0.9302,-0.8941,-0.8285,-0.9013,-0.8941,-0.8285,-0.9013,-0.9275,-0.9226,-0.9226,-0.9368,-0.9602,-0.9753,-1.0054,-1.0386,-1.053,-1.0658,-1.0717,0.0,0.0,0.0,0.0,0.0,0.0,0.0,0.0,0.0,0.0,0.0,0.0,0.0,0.0,0.0,0.0,0.0,0.0,0.0,0.0,0.0,0.0,-0.9247,-0.9226,-0.9302,-0.9525,-0.9699,-0.9813,-0.9932,-0.9949,-0.9862,-0.9748,-0.8716,-0.6666,-0.3665,-0.146,0.0,0.0,0.0,0.0,0.0,0.0,0.0,0.0,0.0,0.0,0.0,0.0,0.0,-0.9139,-0.9385,-0.9875,-1.0125,0.0,0.0,0.0,0.0,0.0,-0.9505,-0.931,-0.9302,-0.928,-0.9307,-0.9323,-0.9285,-0.9122,-0.8906,-0.8884,-0.8884,-0.8922,-0.9041,-0.9133,-0.9177,-0.9313,-0.9815,-1.0283,-1.0574,-1.0329,-1.0175,-1.0175,-1.0175,-1.0097,-1.0097,-1.0019,-1.0019,-1.0019,-1.0003,-0.9949,-0.9845,-0.9802,-0.9693,-0.9492,-0.9244,-0.9087,-0.9087,-0.8988,-0.8868,-0.8574,-0.8574,-0.7923,-0.6688,-0.7996,-0.7996,-0.705,-0.8343,-0.9005,-0.9133,-0.9046,-0.9176,-0.9394,-0.9354,-0.9635,-1.0213,-1.0165,-1.0392,-1.0651,0.0,0.0,0.0,0.0,0.0,0.0,0.0,0.0,0.0,0.0,0.0,0.0,0.0,0.0,0.0,0.0,0.0,0.0,0.0,0.0,0.0,-0.9622,-0.9497,-0.9394,-0.9307,-0.9443,-0.9574,-0.9693,-0.9807,-0.9911,-0.9987,-0.9867,-0.8102,-0.5111,-0.3183,-0.1473,0.0,0.0,0.0,0.0,0.0,0.0,0.0,0.0,0.0,0.0,0.0,0.0,0.0,-0.8917,-0.9201,-0.9631,-1.0025,0.0,0.0,0.0,0.0,0.0,-0.942,-0.931,-0.928,-0.9182,-0.9313,-0.9405,-0.9204,-0.9133,-0.9008,-0.89,-0.8884,-0.8922,-0.9041,-0.9133,-0.9204,-0.9421,-1.0013,-1.0556,-1.0984,-1.1029,-1.1107,-1.1107,-1.0719,-1.0486,-1.0486,-1.0175,-1.0019,-1.0019,-0.9927,-0.9856,-0.984,-0.965,-0.9525,-0.9487,-0.8139,-0.7366,-0.7366,-0.7349,-0.6688,-0.5383,-0.5383,-0.531,-0.5093,-0.531,-0.5963,-0.6974,-0.7111,-0.7931,-0.9128,-0.8954,-0.891,-0.8933,-0.9183,-0.9311,-0.9346,-1.0,-1.0259,-1.0326,0.0,0.0,0.0,0.0,0.0,0.0,0.0,0.0,0.0,0.0,0.0,0.0,0.0,0.0,0.0,0.0,0.0,0.0,0.0,0.0,-0.9856,-0.9677,-0.9617,-0.953,-0.9405,-0.9525,-0.9644,-0.9758,-0.9878,-0.9965,-0.9936,-0.8063,-0.5879,-0.3411,-0.1782,-0.0667,0.0,0.0,0.0,0.0,0.0,0.0,0.0,0.0,0.0,0.0,0.0,0.0,0.0,0.0,-0.9308,-0.9838,-0.9904,0.0,0.0,0.0,0.0,0.0,-0.9259,-0.9209,-0.9198,-0.915,-0.9362,-0.9541,-0.9362,-0.9226,-0.9079,-0.8894,-0.8856,-0.8889,-0.8944,-0.8965,-0.9297,-1.0116,-1.0561,-1.1015,-1.1472,-1.138,-1.1262,-1.1262,-1.0886,-1.0537,-1.0537,-1.0097,-0.9829,-0.9829,-0.978,-0.972,-0.965,-0.9546,-0.9087,-0.8144,-0.7438,-0.6177,-0.4509,-0.4436,-0.4509,-0.4729,-0.4729,-0.4221,-0.3421,-0.4293,-0.4584,-0.4579,-0.6094,-0.7168,-0.7823,-0.8554,-0.878,-0.8738,-0.8873,-0.8968,-0.9183,-0.9921,-1.0326,-1.0518,0.0,0.0,0.0,0.0,0.0,0.0,0.0,0.0,0.0,0.0,0.0,0.0,0.0,0.0,0.0,0.0,0.0,0.0,0.0,0.0,-0.9326,-0.9182,-0.9532,-0.9601,-0.9449,-0.9563,-0.9699,-0.9835,-0.9932,-0.9744,-0.9273,-0.5982,-0.3623,-0.2226,-0.0671,0.0,0.0,0.0,0.0,0.0,0.0,0.0,0.0,0.0,0.0,0.0,0.0,0.0,0.0,0.0,0.0,0.0,0.0,0.0,0.0,-1.0358,-0.9994,-0.9601,-0.9224,-0.9131,-0.9025,-0.9128,-0.9362,-0.9568,-0.9503,-0.928,-0.9046,-0.8889,-0.8834,-0.8851,-0.89,-0.9111,-0.9561,-1.0717,-1.1057,-1.1421,-1.194,-1.1805,-1.1572,-1.1417,-1.0986,-1.0603,-1.0527,-1.0039,-0.9671,-0.9671,-0.9644,-0.9584,-0.9492,-0.9459,-0.8664,-0.7055,-0.6669,-0.5138,-0.2319,-0.1951,-0.2389,-0.3567,-0.3567,-0.2985,-0.182,-0.3057,-0.3125,-0.2461,-0.4712,-0.6056,-0.6668,-0.7815,-0.8402,-0.859,-0.859,-0.8784,-0.9183,-0.9854,-1.0326,-1.0585,0.0,0.0,0.0,0.0,0.0,0.0,0.0,0.0,0.0,0.0,0.0,0.0,0.0,0.0,0.0,0.0,0.0,0.0,0.0,0.0,-0.7599,-0.7442,-0.889,-0.9557,-0.9323,-0.9438,-0.9612,-0.9835,-0.9845,-0.9004,-0.739,-0.4199,-0.2532,-0.2228,-0.0676,0.0,0.0,0.0,0.0,0.0,0.0,0.0,0.0,0.0,0.0,0.0,0.0,0.0,0.0,0.0,0.0,0.0,0.0,0.0,-1.0664,-1.0326,-0.9994,-0.9625,-0.9335,-0.9131,-0.8922,-0.9035,-0.9231,-0.9356,-0.9465,-0.9215,-0.8922,-0.909,-0.8949,-0.8906,-0.903,-0.959,-1.0234,-1.0766,-1.1359,-1.1804,-1.2404,-1.2424,-1.2269,-1.1882,-1.1376,-1.0914,-1.0527,-1.0039,-0.9671,-0.9671,-0.9563,-0.9497,-0.9487,-0.9378,-0.8584,-0.705,-0.5607,-0.4073,-0.2288,-0.0848,-0.0214,-0.0365,-0.0365,-0.0292,-0.0146,-0.0292,-0.1086,-0.2286,-0.2397,-0.4033,-0.6582,-0.6555,-0.7388,-0.859,-0.859,-0.8784,-0.9183,-0.9588,-0.9927,-1.0259,0.0,0.0,0.0,0.0,0.0,0.0,0.0,0.0,0.0,0.0,0.0,0.0,0.0,0.0,0.0,0.0,0.0,0.0,0.0,-0.5944,-0.7435,-0.7207,-0.8785,-0.9552,-0.9307,-0.9497,-0.9644,-0.9731,-0.8799,-0.7541,-0.5832,-0.357,-0.1917,-0.0827,-0.0227,0.0,0.0,0.0,0.0,0.0,0.0,0.0,0.0,0.0,0.0,0.0,0.0,0.0,0.0,0.0,-0.8923,-0.9389,-0.9594,-0.9994,-1.0392,-1.0518,-1.0127,-0.9673,-0.9588,-0.9211,-0.8895,-0.8938,-0.9111,-0.9247,-0.9443,-0.9383,-0.9275,-0.9247,-0.9204,-0.9231,-0.9422,-1.0047,-1.0602,-1.11,-1.1678,-1.2159,-1.2359,-1.2447,-1.2313,-1.1843,-1.1327,-1.0757,-1.03,-0.9735,-0.9443,-0.9443,-0.94,-0.9372,-0.9372,-0.8454,-0.717,-0.5607,-0.4006,-0.2488,-0.0918,-0.0281,0.0,0.0,0.0,0.0,0.0,0.0,-0.0288,-0.0928,-0.1746,-0.3239,-0.5201,-0.6076,-0.7245,-0.859,-0.859,-0.8784,-0.9117,-0.9528,-0.9927,-1.0259,0.0,0.0,0.0,0.0,0.0,0.0,0.0,0.0,0.0,0.0,0.0,0.0,0.0,0.0,0.0,0.0,0.0,0.0,-0.2339,-0.4576,-0.6114,-0.6477,-0.8021,-0.905,-0.9362,-0.9525,-0.965,-0.972,-0.7778,-0.5893,-0.4151,-0.2488,-0.1079,0.0,0.0,0.0,0.0,0.0,0.0,0.0,0.0,0.0,0.0,0.0,0.0,0.0,0.0,0.0,0.0,0.0,-0.8851,-0.9117,-0.9455,-0.9854,-1.0193,-1.0326,-1.006,-0.9661,-0.9528,-0.9182,-0.8845,-0.8883,-0.8959,-0.909,-0.9367,-0.94,-0.9383,-0.9416,-0.9389,-0.9468,-0.9709,-1.0257,-1.0754,-1.1237,-1.1783,-1.2162,-1.221,-1.2228,-1.202,-1.1473,-1.0958,-1.0464,-0.9934,-0.9518,-0.9302,-0.9302,-0.9302,-0.9302,-0.9302,-0.7819,-0.6263,-0.4781,-0.3115,-0.1546,0.0,0.0,0.0,0.0,0.0,0.0,0.0,0.0,0.0,-0.0071,-0.1039,-0.2531,-0.4352,-0.5322,-0.6844,-0.859,-0.859,-0.8717,-0.8984,-0.9389,-0.9728,-1.006,0.0,0.0,0.0,0.0,0.0,0.0,0.0,0.0,0.0,0.0,0.0,0.0,0.0,0.0,0.0,0.0,0.0,0.0,-0.1958,-0.231,-0.3222,-0.4895,-0.6411,-0.7902,-0.9481,-0.9487,-0.9601,-0.9758,-0.6687,-0.4275,-0.2429,-0.0784,0.0,0.0,0.0,0.0,0.0,0.0,0.0,0.0,0.0,0.0,-0.0286,0.0,0.0,0.0,0.0,0.0,0.0,0.0,-0.8851,-0.9117,-0.9117,-0.9588,-1.0127,-0.9794,-0.9728,-0.9594,-0.9183,-0.8851,-0.8617,-0.8742,-0.8774,-0.8867,-0.922,-0.9215,-0.9237,-0.9595,-0.9568,-0.9595,-0.983,-1.0239,-1.0715,-1.1225,-1.161,-1.1884,-1.204,-1.1762,-1.1314,-1.094,-1.0447,-0.9928,-0.956,-0.9378,-0.9302,-0.9302,-0.9302,-0.9302,-0.9302,-0.7822,-0.6275,-0.4707,-0.313,-0.1579,0.0,0.0,0.0,0.0,0.0,0.0,0.0,0.0,0.0,0.0,0.0,-0.1633,-0.4294,-0.4294,-0.6034,-0.859,-0.859,-0.859,-0.8651,-0.8984,-0.9389,-0.9728,0.0,0.0,0.0,0.0,0.0,0.0,0.0,0.0,0.0,0.0,0.0,0.0,0.0,0.0,0.0,0.0,0.0,0.0,-0.0614,-0.1801,-0.317,-0.4721,-0.6361,-0.7865,-0.9356,-0.953,-0.9081,-0.8067,-0.5912,-0.4079,-0.2477,-0.0768,0.0,0.0,0.0,0.0,0.0,0.0,0.0,0.0,0.0,0.0,-0.0214,0.0,0.0,0.0,0.0,0.0,0.0,0.0,0.0,0.0,-0.905,-0.9314,-0.9575,-0.9685,-0.9594,-0.9373,-0.914,-0.8918,-0.8725,-0.8764,-0.8899,-0.9057,-0.916,-0.922,-0.9307,-0.9503,-0.9443,-0.9563,-1.0173,-1.0455,-1.0684,-1.1385,-1.1689,-1.1843,-1.1891,-1.1696,-1.135,-1.0804,-1.0393,-0.9894,-0.944,-0.9323,-0.9302,-0.9302,-0.9231,-0.8754,-0.7741,-0.6163,-0.4552,-0.3057,-0.1517,-0.0479,0.0,0.0,0.0,0.0,0.0,0.0,0.0,0.0,0.0,0.0,0.0,-0.108,-0.2888,-0.4967,-0.6911,-0.859,-0.859,-0.859,-0.8656,-0.9322,-0.9594,-0.9794,0.0,0.0,0.0,0.0,0.0,0.0,0.0,0.0,0.0,0.0,0.0,0.0,0.0,0.0,0.0,0.0,0.0,0.0,0.0,-0.0956,-0.2214,-0.3774,-0.5299,-0.7153,-0.923,-0.9449,-0.8477,-0.6333,-0.5331,-0.3733,-0.1453,-0.0456,0.0,0.0,0.0,0.0,0.0,0.0,0.0,0.0,0.0,0.0,-0.0142,0.0,0.0,0.0,0.0,0.0,0.0,0.0,0.0,0.0,-0.8851,-0.9035,-0.9221,-0.9279,-0.9242,-0.9148,-0.894,-0.8879,-0.878,-0.8829,-0.8992,-0.9144,-0.9193,-0.9291,-0.9383,-0.941,-0.9394,-0.9579,-1.0396,-1.0527,-1.0743,-1.1476,-1.1694,-1.1748,-1.1748,-1.1384,-1.0963,-1.0663,-1.014,-0.9675,-0.9313,-0.9302,-0.9302,-0.9302,-0.9198,-0.849,-0.7056,-0.5394,-0.3801,-0.2335,-0.082,0.0,0.0,0.0,0.0,0.0,0.0,0.0,0.0,0.0,0.0,0.0,-0.0608,-0.1681,-0.3157,-0.5436,-0.7245,-0.859,-0.859,-0.859,-0.8656,-0.9256,-0.9594,-0.9794,0.0,0.0,0.0,0.0,0.0,0.0,0.0,0.0,0.0,0.0,0.0,0.0,0.0,0.0,0.0,0.0,0.0,0.0,0.0,0.0,-0.0749,-0.2442,-0.3942,-0.6163,-0.924,-0.9334,-0.7815,-0.4823,-0.4956,-0.3277,0.0,0.0,0.0,0.0,0.0,0.0,0.0,0.0,0.0,0.0,0.0,0.0,-0.014,-0.1448,0.0,0.0,0.0,0.0,0.0,0.0,0.0,0.0,-0.859,-0.8795,-0.9001,-0.8723,-0.8795,-0.9001,-0.8667,-0.8687,-0.8802,-0.8868,-0.8992,-0.9177,-0.928,-0.9389,-0.9438,-0.9329,-0.9394,-0.9657,-1.0335,-1.0455,-1.0671,-1.1404,-1.1548,-1.1548,-1.1548,-1.0966,-1.0455,-1.0455,-0.9735,-0.9302,-0.9302,-0.9296,-0.9291,-0.9291,-0.9171,-0.8389,-0.689,-0.5338,-0.3764,-0.2124,-0.0745,0.0,0.0,0.0,0.0,0.0,0.0,0.0,0.0,0.0,0.0,-0.0067,-0.1345,-0.2821,-0.4428,-0.5704,-0.7178,-0.859,-0.859,-0.859,-0.8651,-0.905,-0.9389,-0.9728,0.0,0.0,0.0,0.0,0.0,0.0,0.0,0.0,0.0,0.0,0.0,0.0,0.0,0.0,0.0,0.0,0.0,0.0,0.0,0.0,-0.0678,-0.2273,-0.4972,-0.738,-0.9443,-0.9541,-0.7997,-0.4686,-0.4774,-0.3194,0.0,0.0,0.0,0.0,0.0,0.0,0.0,0.0,0.0,0.0,0.0,0.0,0.0,-0.0341,-0.1156,0.0,0.0,0.0,0.0,0.0,0.0,0.0,-0.859,-0.8722,-0.8844,-0.8684,-0.8722,-0.8866,-0.8799,-0.8753,-0.8823,-0.9041,-0.9182,-0.9275,-0.9296,-0.9323,-0.9334,-0.9307,-0.9323,-0.9479,-0.9957,-1.0023,-1.0239,-1.1044,-1.1116,-1.1116,-1.1116,-1.075,-1.0383,-1.0095,-0.959,-0.9302,-0.9302,-0.9226,-0.9171,-0.9171,-0.897,-0.7741,-0.5184,-0.4626,-0.3169,-0.0608,-0.0202,0.0,0.0,0.0,0.0,0.0,0.0,0.0,0.0,0.0,0.0,0.0,-0.0336,-0.1948,-0.4294,-0.4629,-0.6305,-0.859,-0.859,-0.859,-0.8656,-0.9322,-0.9594,-0.9794,0.0,0.0,0.0,0.0,0.0,0.0,0.0,0.0,0.0,0.0,0.0,0.0,0.0,0.0,0.0,0.0,0.0,0.0,0.0,0.0,-0.0677,-0.2126,-0.4544,-0.663,-0.8145,-0.9061,-0.7911,-0.47,-0.4746,-0.313,0.0,0.0,0.0,0.0,0.0,0.0,0.0,0.0,0.0,0.0,0.0,0.0,0.0,0.0,-0.0473,-0.129,-0.2761,0.0,0.0,0.0,0.0,0.0,0.0,0.0,-0.8671,-0.8606,-0.8633,-0.8682,-0.8682,-0.8769,-0.8916,-0.9155,-0.9258,-0.9302,-0.9302,-0.9302,-0.9302,-0.9302,-0.9302,-0.9446,-0.9807,-0.9879,-1.0095,-1.0678,-1.075,-1.075,-1.075,-1.0455,-1.0095,-0.9951,-0.9518,-0.928,-0.9226,-0.9171,-0.9041,-0.8981,-0.8878,-0.7533,-0.4658,-0.4395,-0.2954,-0.0067,0.0,0.0,0.0,0.0,0.0,0.0,0.0,0.0,0.0,0.0,0.0,0.0,0.0,-0.1613,-0.4294,-0.4294,-0.5967,-0.859,-0.859,-0.859,-0.8723,-0.9461,-0.9728,-0.9794,0.0,0.0,0.0,0.0,0.0,0.0,0.0,0.0,0.0,0.0,0.0,0.0,0.0,0.0,0.0,0.0,0.0,0.0,0.0,0.0,-0.0677,-0.2133,-0.3746,-0.5334,-0.6768,-0.8427,-0.7751,-0.4643,-0.4663,-0.3095,0.0,0.0,0.0,0.0,0.0,0.0,0.0,0.0,0.0,0.0,0.0,0.0,0.0,0.0,0.0,-0.0202,-0.1614,-0.2888,-0.416,-0.5837,0.0,0.0,0.0,0.0,-0.859,-0.859,-0.859,-0.859,-0.8611,-0.8796,-0.896,-0.9226,-0.9291,-0.9302,-0.9302,-0.9302,-0.9296,-0.928,-0.9291,-0.9374,-0.9735,-0.9807,-0.9951,-1.0311,-1.0383,-1.0383,-1.0383,-1.0095,-0.9879,-0.9807,-0.9518,-0.9258,-0.9144,-0.9046,-0.8981,-0.8857,-0.8807,-0.7505,-0.464,-0.4389,-0.2954,-0.0067,0.0,0.0,0.0,0.0,0.0,0.0,0.0,0.0,0.0,0.0,0.0,0.0,-0.0269,-0.1881,-0.4294,-0.4562,-0.6239,-0.859,-0.859,-0.8651,-0.879,-0.9389,-0.9661,-0.9861,0.0,0.0,0.0,0.0,0.0,0.0,0.0,0.0,0.0,0.0,0.0,0.0,0.0,0.0,0.0,0.0,0.0,0.0,0.0,0.0,0.0,-0.237,-0.3799,-0.5282,-0.691,-0.8358,-0.7651,-0.4506,-0.4641,-0.311,0.0,0.0,0.0,0.0,0.0,0.0,0.0,0.0,0.0,0.0,0.0,0.0,0.0,0.0,0.0,-0.0202,-0.1614,-0.2218,-0.2821,-0.5503,-0.651,0.0,0.0,0.0,-0.859,-0.859,-0.859,-0.8611,-0.8715,-0.8927,-0.9046,-0.915,-0.9231,-0.9302,-0.9302,-0.9302,-0.9275,-0.9177,-0.9237,-0.9302,-0.9374,-0.9374,-0.9518,-0.9879,-0.9951,-0.9951,-0.9951,-0.9951,-0.9735,-0.9446,-0.9302,-0.9258,-0.9144,-0.8971,-0.8927,-0.8802,-0.8682,-0.7397,-0.4507,-0.4297,-0.2954,-0.0067,0.0,0.0,0.0,0.0,0.0,0.0,0.0,0.0,0.0,0.0,0.0,-0.0067,-0.1277,-0.2754,-0.4428,-0.5637,-0.7111,-0.859,-0.859,-0.8784,-0.905,-0.9117,-0.9588,-1.0127,0.0,0.0,0.0,0.0,0.0,0.0,0.0,0.0,0.0,0.0,0.0,0.0,0.0,0.0,0.0,0.0,0.0,0.0,0.0,0.0,0.0,0.0,-0.2477,-0.3999,-0.5438,-0.6905,-0.6979,-0.558,-0.4845,-0.3327,-0.1188,-0.0367,0.0,0.0,0.0,0.0,0.0,0.0,0.0,0.0,0.0,0.0,0.0,0.0,0.0,-0.0067,-0.0673,-0.1412,-0.242,-0.4495,-0.577,-0.6644,-0.8117,0.0,0.0,0.0,-0.859,-0.8611,-0.8736,-0.8851,-0.8965,-0.9101,-0.9171,-0.9226,-0.9291,-0.9253,-0.9193,-0.9144,-0.9117,-0.9106,-0.9106,-0.916,-0.9281,-0.9424,-0.9551,-0.959,-0.959,-0.959,-0.9518,-0.9302,-0.9302,-0.9231,-0.8981,-0.8911,-0.8872,-0.8682,-0.8617,-0.7312,-0.4428,-0.4294,-0.2954,-0.0067,0.0,0.0,0.0,0.0,0.0,0.0,0.0,0.0,0.0,0.0,0.0,-0.0067,-0.0673,-0.2217,-0.4361,-0.4964,-0.6573,-0.859,-0.859,-0.8717,-0.8851,-0.9256,-0.9522,-0.9655,0.0,0.0,0.0,0.0,0.0,0.0,0.0,0.0,0.0,0.0,0.0,0.0,0.0,0.0,0.0,0.0,0.0,0.0,0.0,0.0,0.0,0.0,0.0,-0.2923,-0.4292,-0.5794,-0.6489,-0.6373,-0.5336,-0.3892,-0.2077,-0.103,-0.0372,0.0,0.0,0.0,0.0,0.0,0.0,0.0,0.0,0.0,0.0,0.0,0.0,0.0,0.0,-0.0673,-0.1815,-0.3222,-0.4696,-0.6105,-0.7579,-0.8318,0.0,0.0,0.0,-0.8606,-0.8698,-0.8747,-0.8812,-0.8997,-0.9068,-0.9117,-0.9237,-0.9171,-0.9019,-0.9019,-0.8922,-0.8894,-0.8798,-0.8917,-0.9025,-0.9128,-0.9204,-0.9269,-0.9302,-0.9302,-0.9302,-0.9302,-0.9302,-0.9209,-0.8906,-0.8884,-0.8851,-0.8606,-0.859,-0.7512,-0.4964,-0.4495,-0.3155,-0.0606,-0.0202,0.0,0.0,0.0,0.0,0.0,0.0,0.0,0.0,0.0,0.0,-0.0067,-0.0807,-0.2284,-0.4361,-0.5098,-0.664,-0.859,-0.859,-0.8723,-0.8923,-0.9262,-0.9455,-0.9516,0.0,0.0,0.0,0.0,0.0,0.0,0.0,0.0,0.0,0.0,0.0,0.0,0.0,0.0,0.0,0.0,0.0,0.0,0.0,0.0,0.0,0.0,0.0,0.0,-0.4297,-0.5711,-0.6425,-0.6373,-0.6353,-0.4866,-0.2078,-0.2003,-0.1278,0.0,0.0,0.0,0.0,0.0,0.0,0.0,0.0,0.0,0.0,0.0,0.0,0.0,0.0,-0.0067,-0.0336,-0.1748,-0.3224,-0.4629,-0.6038,-0.7445,-0.859,0.0,0.0,0.0,-0.8595,-0.8682,-0.8774,-0.8785,-0.8878,-0.8922,-0.9117,-0.8976,-0.889,-0.889,-0.8861,-0.8747,-0.8628,-0.8802,-0.8927,-0.9046,-0.9139,-0.9182,-0.9291,-0.9302,-0.9302,-0.9302,-0.9302,-0.9209,-0.8906,-0.8884,-0.8851,-0.8606,-0.859,-0.7917,-0.6376,-0.5031,-0.3557,-0.2017,-0.0673,0.0,0.0,0.0,0.0,0.0,0.0,0.0,0.0,0.0,0.0,-0.0135,-0.2887,-0.416,-0.4495,-0.724,-0.8451,-0.859,-0.859,-0.9056,-0.9594,-0.8923,-0.9522,-1.0452,0.0,0.0,0.0,0.0,0.0,0.0,0.0,0.0,0.0,0.0,0.0,0.0,0.0,0.0,0.0,0.0,0.0,0.0,0.0,0.0,0.0,0.0,0.0,0.0,-0.2888,-0.4294,-0.5517,-0.6425,-0.6392,-0.542,-0.35,-0.2575,-0.1373,0.0,0.0,0.0,0.0,0.0,0.0,0.0,0.0,0.0,0.0,0.0,0.0,0.0,0.0,0.0,-0.0202,-0.1614,-0.309,-0.4554,-0.5907,-0.7351,-0.8465,-0.8383,-0.8361,-0.8361,-0.8361,-0.8448,-0.8562,-0.8633,-0.8747,-0.8867,-0.8922,-0.8921,-0.8834,-0.8834,-0.8736,-0.8638,-0.8595,-0.8725,-0.8872,-0.8927,-0.9014,-0.9171,-0.9291,-0.9302,-0.9302,-0.9302,-0.9302,-0.9209,-0.8906,-0.8884,-0.8851,-0.8606,-0.859,-0.7579,-0.5165,-0.4562,-0.3222,-0.0807,-0.0269,0.0,0.0,0.0,0.0,0.0,0.0,0.0,0.0,0.0,0.0,-0.0135,-0.2016,-0.3423,-0.4361,-0.5432,-0.6907,-0.859,-0.859,-0.879,-0.8989,-0.8917,-0.9117,-0.9316,0.0,0.0,0.0,0.0,0.0,0.0,0.0,0.0,0.0,0.0,0.0,0.0,0.0,0.0,0.0,0.0,0.0,0.0,0.0,0.0,0.0,0.0,0.0,0.0,-0.2084,-0.3074,-0.4275,-0.5704,-0.5675,-0.4947,-0.3569,-0.2591,-0.1345,0.0,0.0,0.0,0.0,0.0,0.0,0.0,0.0,0.0,0.0,0.0,0.0,0.0,0.0,0.0,-0.0135,-0.1076,-0.2351,-0.3816,-0.5149,-0.6814,-0.8339,-0.8194,-0.8172,-0.8172,-0.8172,-0.8323,-0.8437,-0.8513,-0.8622,-0.8742,-0.8861,-0.8796,-0.872,-0.8764,-0.8671,-0.859,-0.859,-0.8655,-0.8747,-0.8872,-0.8992,-0.9111,-0.9231,-0.928,-0.9302,-0.9302,-0.9302,-0.9226,-0.896,-0.8906,-0.8867,-0.8666,-0.8611,-0.7579,-0.5165,-0.4562,-0.2954,-0.0067,0.0,0.0,0.0,0.0,0.0,0.0,0.0,0.0,0.0,0.0,0.0,-0.0067,-0.1009,-0.2486,-0.4361,-0.483,-0.6439,-0.859,-0.859,-0.8656,-0.8784,-0.8917,-0.8923,-0.8989,0.0,0.0,0.0,0.0,0.0,0.0,0.0,0.0,0.0,0.0,0.0,0.0,0.0,0.0,0.0,0.0,0.0,0.0,0.0,0.0,0.0,0.0,0.0,0.0,-0.2017,-0.2056,-0.2782,-0.4227,-0.43,-0.3559,-0.2099,-0.2099,-0.1349,0.0,0.0,0.0,0.0,0.0,0.0,0.0,0.0,0.0,0.0,0.0,0.0,0.0,0.0,0.0,0.0,0.0,-0.0941,-0.2345,-0.3696,-0.5915,-0.8098,-0.8098,-0.8161,-0.8161,0.0,0.0,0.0,-0.841,-0.8497,-0.8617,-0.8736,-0.8671,-0.8622,-0.8742,-0.8671,-0.859,-0.859,-0.859,-0.8628,-0.8747,-0.8867,-0.8922,-0.9046,-0.9231,-0.9302,-0.9302,-0.9302,-0.9258,-0.9144,-0.8954,-0.8905,-0.878,-0.866,-0.7922,-0.6443,-0.4964,-0.2887,-0.0067,0.0,0.0,0.0,0.0,0.0,0.0,0.0,0.0,0.0,0.0,0.0,0.0,0.0,-0.1613,-0.4361,-0.577,-0.7245,-0.859,-0.859,-0.8784,-0.905,-0.8723,-0.9056,-0.9594,0.0,0.0,0.0,0.0,0.0,0.0,0.0,0.0,0.0,0.0,0.0,0.0,0.0,0.0,0.0,0.0,0.0,0.0,0.0,0.0,0.0,0.0,0.0,-0.0201,-0.0606,-0.1607,-0.2275,-0.2687,-0.3744,-0.3559,-0.2108,-0.2108,-0.1374,0.0,0.0,0.0,0.0,0.0,0.0,0.0,0.0,0.0,0.0,0.0,0.0,0.0,0.0,0.0,0.0,0.0,-0.0935,-0.2307,-0.366,-0.4539,-0.5295,-0.623,-0.654,-0.6726,-0.7722,0.0,0.0,0.0,0.0,0.0,-0.8524,-0.8552,-0.8595,-0.8633,-0.8611,-0.859,-0.859,-0.859,-0.86,-0.8633,-0.8812,-0.8922,-0.9046,-0.9231,-0.9302,-0.9302,-0.9302,-0.9258,-0.9144,-0.9035,-0.8997,-0.8785,-0.8742,-0.7593,-0.5034,-0.2553,-0.0807,0.0,0.0,0.0,0.0,0.0,0.0,0.0,0.0,0.0,0.0,0.0,0.0,0.0,0.0,-0.1009,-0.2821,-0.4294,-0.6372,-0.859,-0.859,-0.8656,-0.8717,-0.8651,-0.8723,-0.8856,0.0,0.0,0.0,0.0227,0.0225,0.0222,0.0219,0.0142,0.0,0.0,0.0,0.0,0.0,0.0,0.0,0.0,0.0,0.0,0.0,0.0,0.0,0.0,0.0,0.0,0.0,-0.0803,-0.1203,-0.121,-0.2071,-0.2071,-0.121,-0.121,-0.0811,0.0,0.0,0.0,0.0,0.0,0.0,0.0,0.0,0.0,0.0,0.0,0.0,0.0,0.0,0.0,0.0,0.0,-0.0929,-0.221,-0.3003,-0.3506,-0.406,-0.4858,-0.5046,-0.536,-0.6751,-0.7263,-0.7522,-0.8082,0.0,0.0,-0.8443,-0.847,-0.8519,-0.8519,-0.8519,-0.853,-0.8579,-0.859,-0.859,-0.859,-0.8753,-0.8916,-0.8971,-0.916,-0.9269,-0.9367,-0.9334,-0.9296,-0.928,-0.9193,-0.9057,-0.8861,-0.825,-0.6537,-0.3562,-0.121,0.0,0.0,0.0,0.0,0.0,0.0,0.0,0.0,0.0,0.0,0.0,0.0,0.0,0.0,0.0,-0.0807,-0.2151,-0.3023,-0.5098,-0.7717,-0.7717,-0.8051,-0.859,-0.859,-0.859,-0.859,0.0,0.0,0.0684,0.0683,0.0682,0.0676,0.0588,0.0286,0.007,0.0,0.0,0.0,0.0,0.0,0.0,0.0,0.0,0.0,0.0,0.0,0.0,0.0,0.0,0.0,0.0,0.0,0.0,0.0,0.0,0.0,0.0,0.0,0.0,0.0,0.0,0.0,0.0,0.0,0.0,0.0,0.0,0.0,0.0,0.0,0.0,0.0,0.0,0.0,0.0,0.0,-0.0792,-0.1806,-0.1801,-0.2525,-0.3522,-0.3633,-0.3697,-0.4018,-0.5438,-0.5958,-0.637,-0.7567,-0.7999,0.0,-0.8175,-0.8154,-0.8225,-0.8366,-0.8437,-0.847,-0.8568,-0.859,-0.859,-0.859,-0.8677,-0.8796,-0.8863,-0.8998,-0.9237,-0.9459,-0.94,-0.9383,-0.9476,-0.9296,-0.9041,-0.8895,-0.731,-0.5101,-0.222,-0.074,0.0,0.0,0.0,0.0,0.0,0.0,0.0,0.0,0.0,0.0,0.0,0.0,0.0,0.0,0.0,-0.074,-0.1882,-0.1882,-0.3559,-0.6172,-0.6309,-0.7178,-0.8384,-0.8523,-0.859,-0.859,0.0464,0.0855,0.1166,0.1155,0.1143,0.0983,0.0677,0.0511,0.0356,0.0071,0.0,0.0,0.0,0.0,0.0,0.0,0.0,0.0,0.0,0.0,0.0,0.0,0.0,0.0,0.0,0.0,0.0,0.0,0.0,0.0,0.0,0.0,0.0,0.0,0.0,0.0,0.0,0.0,0.0,0.0,0.0,0.0,0.0,0.0,0.0,0.0,0.0,0.0,0.0,0.0,-0.0198,-0.0392,-0.0383,-0.0573,-0.0955,-0.2048,-0.236,-0.2626,-0.3965,-0.4434,-0.4554,-0.4756,-0.4942,0.0,-0.6492,-0.6767,-0.7121,-0.8331,-0.8557,-0.8562,-0.8584,-0.859,-0.859,-0.859,-0.8606,-0.8698,-0.8852,-0.9139,-0.9323,-0.947,-0.9552,-0.9568,-0.9492,-0.9443,-0.9285,-0.8906,-0.6353,-0.3972,-0.2218,-0.074,0.0,0.0,0.0,0.0,0.0,0.0,0.0,0.0,0.0,0.0,0.0,0.0,0.0,0.0,0.0,-0.0135,-0.0404,-0.0404,-0.2083,-0.483,-0.5971,-0.6577,-0.6978,-0.8184,-0.859,-0.859,0.0918,0.1223,0.1525,0.1516,0.1499,0.1415,0.1199,0.0876,0.0503,0.0291,0.0144,0.0,0.0,0.0,0.0,0.0,0.0,0.0,0.0,0.0,0.0,0.0,0.0,0.0,0.0,0.0,0.0,0.0,0.0,0.0,0.0,0.0,0.0,0.0,0.0,0.0,0.0,0.0,0.0,0.0,0.0,0.0,0.0,0.0,0.0,0.0,0.0,0.0,0.0,0.0,0.0,0.0,0.0,0.0,-0.0129,-0.0816,-0.1004,-0.1322,-0.2619,-0.3066,-0.328,-0.3939,-0.4181,0.0,0.0,-0.582,-0.657,-0.7224,-0.7994,-0.8503,-0.8503,-0.8552,-0.859,-0.859,-0.859,-0.8649,-0.8834,-0.8965,-0.9128,-0.9367,-0.9449,-0.9487,-0.9487,-0.9487,-0.8754,-0.6943,-0.5283,-0.3449,-0.1144,-0.0404,0.0,0.0,0.0,0.0,0.0,0.0,0.0,0.0,0.0,0.0,0.0,0.0,0.0,0.0,0.0,0.0,0.0,0.0,-0.0874,-0.2284,-0.3694,-0.5101,-0.651,-0.7245,-0.7984,-0.859,0.1361,0.1646,0.1931,0.1925,0.1909,0.183,0.1706,0.1166,0.0652,0.0517,0.022,0.0,0.0,0.0,0.0,0.0,0.0,0.0,0.0,0.0,0.0,0.0,0.0,0.0,0.0,0.0,0.0,0.0,0.0,0.0,0.0,0.0,0.0,0.0,0.0,0.0,0.0,0.0,0.0,0.0,0.0,0.0,0.0,0.0,0.0,0.0,0.0,0.0,0.0,0.0,0.0,0.0,0.0,0.0,0.0,0.0,0.0,-0.0254,-0.1394,-0.1705,-0.1961,-0.3153,-0.344,-0.3516,0.0,0.0,0.0,-0.5713,-0.6936,-0.7989,-0.7989,-0.8326,-0.859,-0.859,-0.8568,-0.8595,-0.872,-0.8715,-0.8845,-0.9226,-0.9291,-0.9334,-0.941,-0.9378,-0.8083,-0.4908,-0.4546,-0.3125,-0.0135,0.0,0.0,0.0,0.0,0.0,0.0,0.0,0.0,0.0,0.0,0.0,0.0,0.0,0.0,0.0,0.0,0.0,0.0,-0.0268,-0.0401,-0.0467,-0.1678,-0.3694,-0.6038,-0.6309,-0.7312,-0.859,0.1787,0.2083,0.2295,0.2269,0.2262,0.2049,0.1334,0.1175,0.0875,0.0146,0.0,0.0,0.0,0.0,0.0,0.0,0.0,0.0,0.0,0.0,0.0,0.0,0.0,0.0,0.0,0.0,0.0,0.0,0.0,0.0,0.0,0.0,0.0,0.0,0.0,0.0,0.0,0.0,0.0,0.0,0.0,0.0,0.0,0.0,0.0,0.0,0.0,0.0,0.0,0.0,0.0,0.0,0.0,0.0,0.0,0.0,0.0,-0.0065,-0.0194,-0.0255,-0.0254,-0.0457,-0.0516,-0.0833,-0.2058,0.0,-0.2969,-0.4264,0.0,-0.6627,-0.6627,0.0,0.0,-0.859,-0.8503,-0.8475,-0.859,-0.8519,-0.8633,-0.9101,-0.9242,-0.9269,-0.9182,-0.8981,-0.7695,-0.4893,-0.4439,-0.3026,-0.0135,0.0,0.0,0.0,0.0,0.0,0.0,0.0,0.0,0.0,0.0,0.0,0.0,0.0,0.0,0.0,0.0,0.0,-0.0066,-0.1254,-0.1768,-0.1817,-0.1996,-0.309,-0.4696,-0.5971,-0.7312,-0.859,0.2086,0.2157,0.2297,0.2212,0.2267,0.2129,0.1885,0.1475,0.0893,0.0074,0.0,0.0,0.0,0.0,0.0,0.0,0.0215,0.028,0.0,0.0411,0.0475,0.0,0.0202,0.0202,0.0,0.0,0.0,0.0,0.0,0.0,0.0,0.0,0.0,0.0,0.0,0.0,0.0,0.0,0.0,0.0,0.0,0.0,0.0,0.0,0.0,0.0,0.0,0.0,0.0,0.0,0.0,0.0,0.0,0.0,0.0,0.0,0.0,0.0,0.0,0.0,0.0,0.0,0.0,-0.0129,-0.0726,-0.1531,-0.2264,-0.2854,0.0,0.0,0.0,0.0,0.0,0.0,-0.8546,-0.853,-0.8579,-0.8546,-0.8617,-0.8889,-0.903,-0.9111,-0.9133,-0.8976,-0.7686,-0.477,-0.4513,-0.3115,-0.0135,0.0,0.0,0.0,0.0,0.0,0.0,0.0,0.0,0.0,0.0,0.0,0.0,0.0,0.0,0.0,0.0,0.0,-0.013,-0.143,-0.2007,-0.2063,-0.2871,-0.4081,-0.5496,-0.6043,-0.7173,-0.8481,0.2223,0.2228,0.223,0.2222,0.2208,0.2151,0.2138,0.147,0.0823,0.0223,0.0075,0.0,0.0,0.0,0.0074,0.0149,0.0439,0.0502,0.0352,0.0834,0.0895,0.034,0.0541,0.0539,0.0203,0.0135,0.0067,0.0,0.0,0.0,0.0,0.0,0.0,0.0,0.0,0.0,0.0,0.0,0.0,0.0,0.0,0.0,0.0,0.0,0.0,0.0,0.0,0.0,0.0,0.0,0.0,0.0,0.0,0.0,0.0,0.0,0.0,0.0,0.0,0.0,0.0,0.0,0.0,0.0,0.0,-0.0801,-0.1542,-0.1459,-0.2667,0.0,0.0,0.0,-0.6305,-0.7784,0.0,-0.8148,-0.8518,-0.8562,-0.8584,-0.8704,-0.8796,-0.8899,-0.9024,-0.8921,-0.7584,-0.4729,-0.4439,-0.3121,-0.0135,0.0,0.0,0.0,0.0,0.0,0.0,0.0,0.0,0.0,0.0,0.0,0.0,0.0,0.0,0.0,0.0,0.0,-0.0128,-0.1473,-0.2234,-0.2671,-0.3941,-0.5386,-0.6748,-0.625,-0.7057,-0.8356,0.2169,0.2181,0.2192,0.223,0.2181,0.2082,0.1782,0.1014,0.0514,0.0594,0.0221,0.0,0.0,0.0,0.0151,0.0547,0.0607,0.0743,0.1112,0.1217,0.1192,0.1191,0.1093,0.0948,0.0618,0.0542,0.0337,0.0,0.0,0.0,0.0,0.0,0.0,0.0,0.0,0.0,0.0,0.0,0.0,0.0,0.0,0.0,0.0,0.0,0.0,0.0,0.0,0.0,0.0,0.0,0.0,0.0,0.0,0.0,0.0,0.0,0.0,0.0,0.0,0.0,0.0,0.0,0.0,0.0,0.0,-0.0067,-0.0067,-0.0067,-0.121,-0.215,-0.2217,-0.3423,-0.483,-0.6239,-0.6436,0.0,0.0,-0.8492,-0.8465,-0.8579,-0.8595,-0.8649,-0.8769,-0.8671,-0.7497,-0.4723,-0.4397,-0.3023,-0.0135,0.0,0.0,0.0,0.0,0.0,0.0,0.0,0.0,0.0,0.0,0.0,0.0,0.0,0.0,0.0,0.0,0.0,-0.0126,-0.145,-0.2747,-0.3943,-0.5298,-0.6717,-0.789,-0.6587,-0.7011,-0.8178,0.223,0.2231,0.2166,0.2224,0.2231,0.2054,0.1759,0.1438,0.1249,0.105,0.09,0.0832,0.0856,0.0846,0.0919,0.1085,0.1228,0.1357,0.1177,0.1668,0.1714,0.1194,0.1379,0.1299,0.0962,0.0678,0.0471,0.0337,0.0135,0.0,0.0,0.0,0.0,0.0,0.0,0.0,0.0,0.0,0.0,0.0,0.0,0.0,0.0,0.0,0.0,0.0,0.0,0.0,0.0,0.0,0.0,0.0,0.0,0.0,0.0,0.0,0.0,0.0,0.0,0.0,0.0,0.0,0.0,0.0,0.0,0.0,0.0,0.0,-0.0404,-0.1009,-0.195,-0.2486,-0.3291,-0.4763,-0.5012,-0.5135,0.0,-0.6548,-0.7075,-0.7107,-0.7984,-0.8606,-0.8644,-0.8611,-0.7393,-0.4591,-0.4305,-0.3021,-0.0135,0.0,0.0,0.0,0.0,0.0,0.0,0.0,0.0,0.0,0.0,0.0,0.0,0.0,0.0,0.0,0.0,0.0,-0.0124,-0.1429,-0.2721,-0.406,-0.5352,-0.6728,-0.7937,-0.748,-0.7666,-0.8106,0.2178,0.217,0.2168,0.2224,0.2231,0.212,0.1888,0.1793,0.1692,0.1434,0.1287,0.1223,0.1332,0.1321,0.139,0.1475,0.1708,0.1762,0.1631,0.207,0.2119,0.1637,0.1827,0.1739,0.1316,0.0888,0.0677,0.0471,0.0135,0.0,0.0,0.0,0.0,0.0,0.0,0.0,0.0,0.0,0.0,0.0,0.0,0.0,0.0,0.0135,0.0135,0.0,0.0135,0.0202,0.0202,0.0337,0.0401,0.0398,0.0198,0.0195,0.0127,0.0063,0.0,0.0,0.0,0.0,0.0,0.0,0.0,0.0,0.0,0.0,0.0,0.0,0.0,-0.0269,-0.121,-0.1345,-0.1815,-0.3289,-0.349,-0.3691,0.0,-0.5098,-0.5837,-0.6309,-0.7717,-0.859,-0.859,-0.8117,-0.684,-0.4495,-0.3825,-0.2486,-0.0135,0.0,0.0,0.0,0.0,0.0,0.0,0.0,0.0,0.0,0.0,0.0,0.0,0.0,0.0,0.0,0.0,0.0,-0.0062,-0.0925,-0.2341,-0.3937,-0.437,-0.5904,-0.7872,-0.7872,-0.7675,-0.7232,0.2352,0.227,0.2193,0.2231,0.2181,0.2211,0.2173,0.2009,0.1839,0.1813,0.1594,0.1379,0.1333,0.14,0.1553,0.1884,0.1964,0.21,0.2353,0.2425,0.2399,0.2339,0.2308,0.2137,0.1757,0.1316,0.0887,0.0539,0.0202,0.0,0.0,0.0,0.0,0.0,0.0,0.0,0.0,0.0,0.0,0.0,0.0,0.0,0.0067,0.0404,0.0337,0.0067,0.0404,0.0539,0.0606,0.0943,0.1077,0.1007,0.0595,0.0457,0.0386,0.0063,0.0,0.0,0.0,0.0,0.0,0.0,0.0,0.0,0.0,0.0,0.0,0.0,0.0,0.0,0.0,0.0,-0.047,-0.1746,-0.2016,-0.2486,-0.3892,-0.416,-0.4696,-0.6105,-0.7512,-0.8384,-0.8451,-0.7245,-0.577,-0.4294,-0.2888,-0.1479,-0.0067,0.0,0.0,0.0,0.0,0.0,0.0,0.0,0.0,0.0,0.0,0.0,0.0,0.0,0.0,0.0,0.0,0.0,0.0,0.0,-0.148,-0.3692,-0.2466,-0.4309,-0.7683,-0.775,-0.695,-0.5598,0.3983,0.2998,0.2232,0.2223,0.221,0.2218,0.2271,0.2237,0.2215,0.2293,0.2262,0.2293,0.2228,0.2303,0.2293,0.2358,0.2357,0.2419,0.2459,0.2458,0.244,0.2402,0.235,0.2246,0.2166,0.1468,0.1029,0.0957,0.0338,0.0,0.0,0.0,0.0,0.0,0.0,0.0,0.0,0.0,0.0,0.0,0.0269,0.0404,0.0404,0.0808,0.0875,0.0808,0.0943,0.0943,0.0943,0.0741,0.0673,0.0603,0.0262,0.013,0.0129,0.0,0.0,0.0,0.0,0.0,0.0,0.0,0.0,0.0,0.0,0.0,0.0,0.0,0.0,0.0,0.0,0.0,-0.0133,-0.0464,-0.0534,-0.0673,-0.1076,-0.2016,-0.3224,-0.4696,-0.5165,-0.5834,-0.6844,-0.6644,-0.5369,-0.2821,-0.2286,-0.1479,-0.0067,0.0,0.0,0.0,0.0,0.0,0.0,0.0,0.0,0.0,0.0,0.0,0.0,0.0,0.0,0.0,0.0,0.0,0.0,0.0,-0.0987,-0.2464,-0.2157,-0.3202,-0.5042,-0.6027,-0.5536,-0.4367,0.4781,0.3365,0.2304,0.2304,0.23,0.2305,0.2326,0.2331,0.2361,0.2439,0.2491,0.2519,0.2519,0.2544,0.2553,0.2536,0.2522,0.2502,0.2472,0.2481,0.2469,0.2425,0.2403,0.2373,0.2334,0.1713,0.1329,0.11,0.0545,0.0202,0.0,0.0,0.0066,0.0197,0.0064,0.0064,0.0197,0.0196,0.0198,0.0269,0.0606,0.0741,0.0,0.1144,0.1346,0.1346,0.1548,0.1481,0.1279,0.1279,0.1144,0.0938,0.0586,0.0387,0.0193,0.0062,0.0,0.0,0.0,0.0,0.0,0.0,0.0,0.0,0.0,0.0,0.0,0.0,0.0,0.0,0.0,0.0,0.0,0.0,0.0,0.0,0.0,-0.0673,-0.1748,-0.3155,-0.3356,-0.3624,-0.4431,-0.4498,-0.3828,-0.2218,-0.1546,-0.0807,-0.0067,0.0,0.0,0.0,0.0,0.0,0.0,0.0,0.0,0.0,0.0,0.0,0.0,0.0,0.0,0.0,0.0,0.0,0.0,0.0,-0.0802,-0.2034,-0.2587,-0.2587,-0.2341,-0.3694,-0.3694,-0.2956,0.514,0.3479,0.2387,0.2379,0.2406,0.2421,0.2399,0.2376,0.2383,0.2439,0.2477,0.2495,0.2487,0.2533,0.2562,0.2555,0.253,0.2503,0.2477,0.25,0.2491,0.2438,0.2457,0.2429,0.2346,0.1972,0.1575,0.1171,0.0825,0.0474,0.0132,0.0131,0.0262,0.0524,0.0255,0.032,0.0591,0.0592,0.0598,0.0606,0.101,0.1144,0.1212,0.1548,0.1683,0.175,0.2087,0.1952,0.175,0.2019,0.1885,0.1474,0.1109,0.0776,0.0385,0.0062,0.0,0.0,0.0,0.0,0.0,0.0,0.0,0.0,0.0,0.0,0.0,0.0,0.0,0.0,0.0,0.0,0.0,0.0,0.0,0.0,0.0,0.0,-0.0537,-0.1945,-0.1945,0.0,-0.2084,-0.2084,-0.2017,-0.1815,-0.0673,0.0,0.0,0.0,0.0,0.0,0.0,0.0,0.0,0.0,0.0,0.0,0.0,0.0,0.0,0.0,0.0,0.0,0.0,0.0,0.0,0.0,-0.0679,-0.1849,-0.2954,-0.1971,-0.0123,-0.1296,-0.1726,-0.1541,0.5638,0.367,0.2438,0.2387,0.2424,0.2467,0.2488,0.2507,0.2532,0.2566,0.2619,0.2634,0.2583,0.2587,0.2575,0.2526,0.2518,0.2512,0.2507,0.2511,0.251,0.2499,0.248,0.245,0.2409,0.199,0.1726,0.1608,0.1175,0.0948,0.0856,0.0846,0.0836,0.089,0.0875,0.0882,0.0907,0.0917,0.093,0.101,0.1346,0.1481,0.1548,0.1952,0.2087,0.2087,0.2155,0.2154,0.2087,0.1818,0.1481,0.1141,0.0726,0.0391,0.0064,0.0,0.0,0.0,0.0,0.0,0.0,0.0,0.0,0.0,0.0,0.0,0.0,0.0,0.0,0.0,0.0,0.0,0.0,0.0,0.0,0.0,0.0,0.0,-0.0529,-0.1916,-0.1057,-0.0797,-0.2014,-0.2084,-0.1614,-0.0471,-0.0135,0.0,0.0,0.0,0.0,0.0,0.0,0.0,0.0,0.0,0.0,0.0,0.0,0.0,0.0,0.0,0.0,0.0,0.0,0.0,0.0,0.0,-0.0123,-0.037,-0.0617,-0.0432,0.0,-0.0247,-0.037,-0.0308,0.6945,0.5092,0.3572,0.2629,0.2496,0.2526,0.2555,0.2598,0.2617,0.2585,0.2605,0.2607,0.2562,0.2583,0.2585,0.2541,0.2523,0.2514,0.2514,0.2514,0.2514,0.2514,0.25,0.2478,0.2447,0.2252,0.1977,0.1772,0.1538,0.1297,0.1054,0.1039,0.1092,0.134,0.133,0.1209,0.1033,0.1244,0.1328,0.1414,0.175,0.1885,0.1952,0.2154,0.2223,0.2223,0.2223,0.2223,0.2154,0.1952,0.1548,0.1074,0.086,0.0457,0.0,0.0,0.0,0.0,0.0,0.0,0.0,0.0,0.0,0.0,0.0,0.0,0.0,0.0,0.0,0.0,0.0,0.0,0.0,0.0,0.0,0.0,0.0,0.0,-0.0261,-0.0921,-0.0395,-0.0265,-0.094,-0.1009,-0.074,-0.0067,0.0,0.0,0.0,0.0,0.0,0.0,0.0,0.0,0.0,0.0,0.0,0.0,0.0,0.0,0.0,0.0,0.0,0.0,0.0,0.0,0.0,0.0,0.0,0.0,0.0,0.0,0.0,0.0,0.0,0.0,0.8118,0.6097,0.4209,0.2877,0.257,0.2583,0.26,0.2653,0.2833,0.3163,0.3232,0.3299,0.3656,0.3388,0.3165,0.3122,0.2775,0.2521,0.2515,0.2514,0.2514,0.2514,0.2514,0.25,0.247,0.2439,0.2232,0.1933,0.1837,0.1648,0.1317,0.1238,0.1423,0.1677,0.1677,0.155,0.1231,0.1574,0.1728,0.175,0.2087,0.2223,0.2223,0.2223,0.2223,0.2223,0.2223,0.2223,0.2155,0.2087,0.1616,0.1075,0.0996,0.0525,0.0,0.0,0.0,0.0,0.0,0.0,0.0,0.0,0.0,0.0,0.0,0.0,0.0,0.0,0.0,0.0,0.0,0.0,0.0,0.0,0.0,0.0,0.0,0.0,0.0,0.0,0.0,0.0,0.0,0.0,0.0,0.0,0.0,0.0,0.0,0.0,0.0,0.0,0.0,0.0,0.0,0.0,0.0,0.0,0.0,0.0,0.0,0.0,0.0,0.0,0.0,0.0,0.0,0.0,0.0,0.0,0.0,0.0,0.0,0.0,0.0,0.0,0.7983,0.5185,0.2782,0.2649,0.2604,0.263,0.2605,0.2653,0.3276,0.4932,0.5179,0.5737,0.7315,0.6009,0.4987,0.4955,0.3512,0.2544,0.2517,0.2514,0.2514,0.2514,0.2514,0.25,0.247,0.2439,0.238,0.2219,0.219,0.213,0.1977,0.1975,0.2025,0.2064,0.2064,0.2014,0.1973,0.2042,0.206,0.2154,0.2155,0.2223,0.2223,0.2223,0.2223,0.2223,0.2223,0.2223,0.2154,0.175,0.1414,0.1009,0.0672,0.0333,0.0,0.0,0.0,0.0,0.0,0.0,0.0,0.0,0.0,0.0,0.0,0.0,0.0,0.0,0.0,0.0,0.0,0.0,0.0,0.0,0.0,0.0,0.0,0.0,0.0,0.0,0.0,0.0,0.0,0.0,0.0,0.0,0.0,0.0,0.0,0.0,0.0,0.0,0.0,0.0,0.0,0.0,0.0,0.0,0.0,0.0,0.0,0.0,0.0,0.0,0.0,0.0,0.0,0.0,0.0,0.0,0.0,0.0,0.0,0.0,0.0,0.0,0.841,0.6841,0.5155,0.3048,0.2628,0.2628,0.2653,0.3594,0.4954,0.671,0.6041,0.61,0.7843,0.7342,0.6884,0.6854,0.5205,0.4143,0.4124,0.3075,0.2514,0.2514,0.2514,0.2508,0.2496,0.2466,0.2416,0.2343,0.2296,0.2236,0.2163,0.2127,0.2093,0.2128,0.2083,0.2098,0.211,0.2129,0.2143,0.2223,0.2223,0.2223,0.2223,0.2223,0.2223,0.2223,0.2223,0.2223,0.2087,0.1481,0.1212,0.101,0.0606,0.0267,0.0,0.0,0.0,0.0,0.0,0.0,0.0,0.0,0.0,0.0,0.0,0.0,0.0,0.0,0.0,0.0,0.0,0.0,0.0,0.0,0.0,0.0,0.0,0.0,0.0,0.0,0.0,0.0,0.0,0.0,0.0,0.0,0.0,0.0,0.0,0.0,0.0,0.0,0.0,0.0,0.0,0.0,0.0,0.0,0.0,0.0,0.0,0.0,0.0,0.0,0.0,0.0,0.0,0.0,0.0,0.0,0.0,0.0,0.0,0.0,0.0,0.0,0.8637,0.7616,0.6256,0.3271,0.2657,0.2807,0.3439,0.4619,0.6208,0.8465,0.7714,0.7607,0.9365,0.9109,0.882,0.8802,0.6612,0.5203,0.5186,0.3477,0.2514,0.2514,0.2514,0.2514,0.2514,0.2485,0.2439,0.2378,0.2328,0.2273,0.2213,0.2169,0.2138,0.2119,0.2139,0.215,0.2151,0.2172,0.2181,0.2181,0.2181,0.2181,0.218,0.2172,0.2168,0.2166,0.2225,0.2223,0.2087,0.1481,0.1279,0.1144,0.0539,0.0201,0.0,0.0,0.0,0.0,0.0,0.0,0.0,0.0,0.0,0.0,0.0,0.0,0.0,0.0,0.0062,0.0123,0.0,0.0,0.0,0.0,0.0,0.0,0.0,0.0,0.0,0.0,0.0,0.0,0.0,0.0,0.0,0.0,0.0,0.0,0.0,0.0,0.0,0.0,0.0,0.0,0.0,0.0,0.0,0.0,0.0,0.0,0.0,0.0,0.0,0.0,0.0,0.0,0.0,0.0,0.0,0.0,0.0,0.0,0.0,0.0,0.0,0.0,0.8386,0.6627,0.4868,0.3027,0.2691,0.3278,0.5119,0.5371,0.6707,1.0221,1.0637,1.1309,1.3148,1.1724,1.0672,1.0634,0.7344,0.525,0.5189,0.3477,0.2514,0.2514,0.2514,0.2514,0.2514,0.2485,0.2439,0.2378,0.2348,0.2231,0.2175,0.2174,0.2174,0.2174,0.2174,0.2174,0.2174,0.2174,0.2174,0.2174,0.2174,0.2174,0.2171,0.2211,0.2199,0.2195,0.2232,0.2223,0.2154,0.175,0.1616,0.1414,0.0337,0.0,0.0,0.0,0.0,0.0,0.0,0.0,0.0,0.0,0.0,0.0,0.0,0.0,0.0,0.0,0.0247,0.037,0.0062,0.0,0.0,0.0,0.0,0.0,0.0,0.0,0.0,0.0,0.0,0.0,0.0,0.0,0.0,0.0,0.0,0.0,0.0,0.0,0.0,0.0,0.0,0.0,0.0,0.0,0.0,0.0,0.0,0.0,0.0,0.0,0.0,0.0,0.0,0.0,0.0,0.0,0.0,0.0,0.0,0.0,0.0,0.0,0.0,0.0,1.0221,0.9383,0.8465,0.6627,0.6295,0.6546,0.7045,0.8215,0.9383,1.0554,1.1807,1.2733,1.3321,1.2899,1.2542,1.2503,0.9255,0.7125,0.7095,0.4203,0.2514,0.2514,0.2514,0.2514,0.2514,0.2504,0.247,0.2409,0.2379,0.2323,0.2175,0.2175,0.2175,0.2175,0.2175,0.2175,0.2175,0.2175,0.2175,0.2175,0.2175,0.2175,0.2174,0.2234,0.2218,0.2199,0.2189,0.2172,0.2154,0.175,0.1616,0.1481,0.0943,0.0539,0.0269,0.0067,0.0,0.0,0.0,0.0,0.0,0.0,0.0,0.0063,0.0314,0.0498,0.0679,0.0679,0.0556,0.0494,0.037,0.0123,0.0,0.0,0.0,0.0,0.0,0.0,0.0,0.0,0.0,0.0,0.0,0.0,0.0,0.0,0.0,0.0,0.0,0.0,0.0,0.0,0.0,0.0,0.0,0.0,0.0,0.0,0.0,0.0,0.0,0.0,0.0,0.0,0.0,0.0,0.0,0.0,0.0,0.0,0.0,0.0,0.0,0.0,0.0,0.0,1.1059,1.0721,1.0138,0.8298,0.7968,0.8215,0.8887,0.9971,1.097,1.1641,1.2733,1.3403,1.3403,1.3403,1.3403,1.3403,1.0666,0.8666,0.8025,0.5161,0.314,0.2514,0.2514,0.2514,0.2514,0.2514,0.2491,0.244,0.2399,0.2343,0.2207,0.2207,0.2207,0.2207,0.2207,0.2207,0.2207,0.2207,0.2207,0.2207,0.2207,0.2207,0.2206,0.2266,0.2251,0.2233,0.2221,0.2198,0.2172,0.19,0.1826,0.175,0.1414,0.101,0.0673,0.0269,0.0067,0.0,0.0,0.0,0.0,0.0,0.0,0.0064,0.0443,0.0874,0.1173,0.105,0.0803,0.0679,0.0494,0.0248,0.0,0.0,0.0,0.0,0.0,0.0,0.0,0.0,0.0,0.0,0.0,0.0,0.0,0.0,0.0,0.0,0.0,0.0,0.0,0.0,0.0,0.0,0.0,0.0,0.0,0.0,0.0,0.0,0.0,0.0,0.0,0.0,0.0,0.0,0.0,0.0,0.0,0.0,0.0,0.0,0.0,0.0,0.0,0.0,1.1225,1.0893,1.0388,0.8637,0.8386,0.8971,1.0637,1.0893,1.1475,1.3148,1.3403,1.3403,1.3403,1.339,1.3383,1.3383,1.1643,0.9793,0.8093,0.6105,0.4234,0.2592,0.2514,0.2514,0.2514,0.2514,0.2499,0.2469,0.2408,0.2364,0.2335,0.2334,0.2333,0.2333,0.2333,0.2333,0.2333,0.2333,0.2333,0.2333,0.2333,0.2333,0.233,0.2304,0.2293,0.2288,0.2259,0.2229,0.2203,0.2203,0.2184,0.2161,0.1754,0.1415,0.1079,0.0606,0.0269,0.0,0.0,0.0,0.0,0.0,0.0066,0.0131,0.0509,0.1063,0.1422,0.1113,0.105,0.0926,0.0617,0.025,0.0063,0.0063,0.0,0.0,0.0,0.0,0.0,0.0,0.0,0.0,0.0,0.0,0.0,0.0,0.0,0.0,0.0,0.0,0.0,0.0,0.0,0.0,0.0,0.0,0.0,0.0,0.0,0.0,0.0,0.0,0.0,0.0,0.0,0.0,0.0,0.0,0.0,0.0,0.0,0.0,0.0,0.0,0.0,0.0,1.2816,1.2733,1.265,1.2229,1.2146,1.2229,1.2733,1.2733,1.2899,1.3321,1.3403,1.3403,1.3403,1.3295,1.3227,1.3227,1.1589,0.9757,0.7919,0.6,0.4234,0.2592,0.2514,0.2514,0.2514,0.2514,0.2499,0.2469,0.2408,0.2375,0.2367,0.2343,0.2333,0.2333,0.2333,0.2333,0.2333,0.2333,0.2333,0.2333,0.2333,0.2333,0.2333,0.2326,0.2309,0.229,0.2282,0.226,0.2234,0.2234,0.223,0.215,0.2059,0.1847,0.1433,0.0675,0.0269,0.0,0.0,0.0,0.0,0.0,0.0399,0.0852,0.1224,0.1649,0.1883,0.1757,0.1556,0.1358,0.1296,0.075,0.038,0.0385,0.0195,0.0,0.0,0.0,0.0,0.0,0.0,0.0,0.0,0.0,0.0,0.0,0.0,0.0,0.0,0.0,0.0,0.0,0.0,0.0,0.0,0.0,0.0,0.0,0.0,0.0,0.0,0.0,0.0,0.0,0.0,0.0,0.0,0.0,0.0,0.0,0.0,0.0,0.0,0.0,0.0,0.0,1.3403,1.3403,1.3403,1.3403,1.3403,1.3403,1.3403,1.3403,1.3403,1.3403,1.3403,1.3403,1.3403,1.3329,1.3247,1.318,1.216,1.073,0.8996,0.7169,0.5405,0.3687,0.2905,0.2514,0.2514,0.2514,0.2889,0.3621,0.3551,0.3509,0.3489,0.2713,0.2333,0.2333,0.2333,0.2333,0.2333,0.2333,0.2333,0.2333,0.2333,0.2333,0.2333,0.2333,0.2323,0.2309,0.2309,0.2292,0.2266,0.2266,0.2258,0.217,0.221,0.1994,0.1577,0.1149,0.0741,0.0471,0.0471,0.0471,0.0471,0.0471,0.0866,0.1316,0.1566,0.1804,0.2039,0.2039,0.1774,0.1575,0.1575,0.1148,0.0775,0.0781,0.059,0.0394,0.0261,0.0258,0.0191,0.0,0.0,0.0,0.0,0.0,0.0,0.0,0.0,0.0,0.0,0.0,0.0,0.0,0.0,0.0,0.0,0.0,0.0,0.0,0.0,0.0,0.0,0.0,0.0,0.0,0.0,0.0,0.0,0.0,0.0,0.0,0.0,0.0,0.0,0.0,0.0,0.0,1.3403,1.3403,1.3403,1.3403,1.3403,1.3403,1.3403,1.3403,1.3403,1.3403,1.3403,1.3403,1.3403,1.3376,1.3315,1.3186,1.2901,1.1852,0.9951,0.8351,0.6733,0.5092,0.3609,0.2985,0.3219,0.3219,0.3981,0.5399,0.5094,0.4882,0.4835,0.3081,0.2333,0.2333,0.2333,0.2333,0.2333,0.2333,0.2333,0.2333,0.2333,0.2333,0.2333,0.2333,0.2333,0.2333,0.2333,0.2318,0.2297,0.2297,0.2279,0.2183,0.2223,0.2006,0.1793,0.1697,0.1486,0.1215,0.1145,0.1077,0.1144,0.1144,0.1401,0.1587,0.1653,0.1896,0.2071,0.2071,0.1873,0.1677,0.1677,0.1371,0.1186,0.1186,0.1054,0.0918,0.0647,0.051,0.0377,0.0124,0.0,0.0,0.0,0.0,0.0,0.0,0.0,0.0,0.0,0.0,0.0,0.0,0.0,0.0,0.0,0.0,0.0,0.0,0.0,0.0,0.0,0.0,0.0,0.0,0.0,0.0,0.0,0.0,0.0,0.0,0.0,0.0,0.0,0.0,0.0,0.0,1.3403,1.3403,1.3403,1.3403,1.3403,1.3403,1.3403,1.3403,1.3403,1.3403,1.3403,1.3403,1.3403,1.3288,1.32,1.3173,1.2901,1.1373,0.8278,0.7719,0.6733,0.5092,0.4779,0.5248,0.6655,0.6736,0.6885,0.7104,0.5648,0.4904,0.4893,0.3093,0.2333,0.2333,0.2333,0.2333,0.2333,0.2333,0.2333,0.2333,0.2333,0.2333,0.2333,0.2333,0.2333,0.2333,0.2333,0.233,0.2326,0.2326,0.2323,0.2315,0.2286,0.2277,0.2195,0.2141,0.2056,0.1913,0.1283,0.1077,0.1144,0.1481,0.1545,0.1678,0.2013,0.2124,0.2102,0.2102,0.2082,0.1999,0.1999,0.1762,0.1516,0.1516,0.1252,0.0984,0.0905,0.0701,0.0502,0.0433,0.0185,0.0,0.0,0.0,0.0,0.0,0.0,0.0,0.0,0.0,0.0,0.0,0.0,0.0,0.0,0.0,0.0,0.0,0.0,0.0,0.0,0.0,0.0,0.0,0.0,0.0,0.0,0.0,0.0,0.0,0.0,0.0,0.0,0.0,0.0,0.0,1.3403,1.3403,1.3403,1.3403,1.3403,1.3403,1.3403,1.3403,1.3403,1.3403,1.3403,1.3403,1.3403,1.3336,1.3295,1.3295,1.3024,1.1807,0.9397,0.8142,0.7123,0.6342,0.5483,0.5796,0.7435,0.837,0.8837,0.8837,0.8067,0.7587,0.7461,0.4892,0.3665,0.3569,0.2697,0.2333,0.2333,0.2333,0.2333,0.2333,0.2333,0.2333,0.2333,0.2333,0.2333,0.2333,0.2333,0.2333,0.2333,0.2333,0.2333,0.2328,0.23,0.229,0.2282,0.2237,0.2202,0.2105,0.1754,0.1683,0.175,0.1885,0.1952,0.1952,0.2154,0.2144,0.2133,0.2133,0.2123,0.2179,0.2179,0.2058,0.1934,0.1934,0.1711,0.1559,0.1356,0.1139,0.0996,0.0803,0.0494,0.0247,0.0247,0.0123,0.0,0.0,0.0,0.0,0.0,0.0,0.0,0.0,0.0,0.0,0.0,0.0,0.0,0.0,0.0,0.0,0.0,0.0,0.0,0.0,0.0,0.0,0.0,0.0,0.0,0.0,0.0,0.0,0.0,0.0,0.0,0.0,1.3403,1.3403,1.3403,1.3403,1.3403,1.3403,1.3403,1.3403,1.3403,1.3403,1.3403,1.3403,1.3403,1.3403,1.3403,1.3403,1.3159,1.234,1.0603,0.8981,0.8085,0.8063,0.7197,0.7353,0.8604,0.9931,1.0552,1.0552,1.019,0.9915,0.9639,0.6778,0.5164,0.4679,0.3439,0.2635,0.2343,0.2343,0.2339,0.2333,0.2333,0.2333,0.2333,0.2333,0.2333,0.2333,0.2333,0.2333,0.2333,0.2333,0.2333,0.2328,0.2307,0.2301,0.2294,0.2264,0.2213,0.2231,0.2224,0.2223,0.2223,0.2223,0.2223,0.2223,0.2223,0.2223,0.2223,0.2223,0.2223,0.2223,0.2223,0.2223,0.2223,0.2223,0.2169,0.1999,0.1742,0.1573,0.142,0.1173,0.0803,0.0556,0.0494,0.0247,0.0062,0.0,0.0,0.0,0.0,0.0,0.0,0.0,0.0,0.0,0.0,0.0,0.0,0.0,0.0,0.0,0.0,0.0,0.0,0.0,0.0,0.0,0.0,0.0,0.0,0.0,0.0,0.0,0.0,0.0,0.0,0.0,1.3403,1.3403,1.3403,1.3403,1.3403,1.3403,1.3403,1.3403,1.3403,1.3403,1.3403,1.3403,1.3403,1.3403,1.3403,1.3403,1.3254,1.2443,1.0609,1.0163,0.9965,0.9853,1.1172,1.203,1.2108,1.2269,1.2347,1.2347,1.0732,0.9915,0.9639,0.7891,0.6219,0.4667,0.4593,0.3707,0.2375,0.2375,0.2358,0.2333,0.2333,0.2333,0.2333,0.2333,0.2333,0.2333,0.2333,0.2333,0.2333,0.2333,0.2333,0.2333,0.233,0.233,0.2324,0.2296,0.2244,0.2191,0.223,0.2223,0.2223,0.2223,0.2223,0.2223,0.2223,0.2223,0.2223,0.2223,0.2223,0.2223,0.2223,0.2223,0.2223,0.2223,0.2169,0.2064,0.2064,0.1762,0.1482,0.1482,0.1173,0.0864,0.0556,0.0494,0.0309,0.0,0.0,0.0,0.0,0.0,0.0,0.0,0.0,0.0,0.0,0.0,0.0,0.0,0.0,0.0,0.0,0.0,0.0,0.0,0.0,0.0,0.0,0.0,0.0,0.0,0.0,0.0,0.0,0.0,0.0,0.0,1.3403,1.3403,1.3403,1.3403,1.3403,1.3403,1.3403,1.3403,1.3403,1.3403,1.3403,1.3403,1.3403,1.3403,1.3403,1.3403,1.3261,1.2862,1.2073,1.1855,1.1239,1.0014,1.1643,1.2501,1.2501,1.2501,1.2501,1.2501,1.1824,1.1492,1.1283,0.9709,0.7995,0.622,0.525,0.3904,0.2406,0.2406,0.2399,0.2388,0.2388,0.2378,0.2361,0.2361,0.2349,0.2405,0.3423,0.3787,0.393,0.4872,0.4581,0.3787,0.3787,0.3132,0.2327,0.23,0.2262,0.2222,0.2191,0.2169,0.2223,0.2223,0.2223,0.2223,0.2223,0.2223,0.2223,0.2223,0.2223,0.2223,0.2223,0.2223,0.2223,0.2223,0.212,0.2093,0.2093,0.1992,0.1833,0.1816,0.1501,0.1247,0.1113,0.0741,0.0432,0.0309,0.0123,0.0,0.0,0.0,0.0,0.0,0.0,0.0,0.0,0.0,0.0,0.0,0.0,0.0,0.0,0.0,0.0,0.0,0.0,0.0,0.0,0.0,0.0,0.0,0.0,0.0,0.0,0.0,0.0,0.0,1.3403,1.3403,1.3403,1.3403,1.3403,1.3403,1.3403,1.3403,1.3403,1.3403,1.3403,1.3403,1.3403,1.3403,1.3403,1.3403,1.3302,1.3166,1.2976,1.2773,1.2063,1.0868,1.1876,1.2501,1.2501,1.2501,1.2501,1.2501,1.2501,1.2427,1.2291,1.1213,0.9476,0.7209,0.6149,0.4484,0.2438,0.2438,0.2432,0.2424,0.2424,0.241,0.2391,0.2382,0.2365,0.2565,0.4155,0.4729,0.4947,0.6463,0.6319,0.5452,0.5452,0.4654,0.3703,0.3158,0.2984,0.2952,0.29,0.2525,0.2166,0.2224,0.2223,0.2223,0.2223,0.2223,0.2223,0.2223,0.2223,0.2223,0.2223,0.2223,0.2223,0.2223,0.2129,0.2109,0.2109,0.2083,0.2053,0.2022,0.1766,0.1631,0.1485,0.0988,0.0617,0.0494,0.0185,0.0,0.0,0.0,0.0,0.0,0.0,0.0,0.0,0.0,0.0,0.0,0.0,0.0,0.0,0.0,0.0,0.0,0.0,0.0,0.0,0.0,0.0,0.0,0.0,0.0,0.0,0.0,0.0,0.0,1.3403,1.3403,1.3403,1.3403,1.3403,1.3403,1.3403,1.3403,1.3403,1.3403,1.3403,1.3403,1.3403,1.3403,1.3403,1.3403,1.3403,1.3275,1.2983,1.2671,1.2501,1.2501,1.2501,1.2501,1.2501,1.2501,1.2501,1.2501,1.2501,1.2427,1.2291,1.2291,1.0521,0.7302,0.7302,0.5541,0.2546,0.2469,0.2451,0.2424,0.2424,0.2424,0.2421,0.239,0.2379,0.2596,0.417,0.4729,0.4947,0.6536,0.7042,0.7042,0.697,0.697,0.6665,0.5084,0.4638,0.454,0.4353,0.3296,0.2261,0.223,0.2223,0.2223,0.2223,0.2223,0.2223,0.2223,0.2223,0.2223,0.2223,0.2223,0.2223,0.2223,0.2129,0.2109,0.2109,0.2083,0.2053,0.2023,0.2019,0.1883,0.1547,0.1173,0.0864,0.0556,0.0185,0.0,0.0,0.0,0.0,0.0,0.0,0.0,0.0,0.0,0.0,0.0,0.0,0.0,0.0,0.0,0.0,0.0,0.0,0.0,0.0,0.0,0.0,0.0,0.0,0.0,0.0,0.0,0.0,0.0,1.3403,1.3403,1.3403,1.3403,1.3403,1.3403,1.3403,1.3403,1.3403,1.3403,1.3403,1.3403,1.3403,1.3403,1.3403,1.3403,1.3403,1.3275,1.2983,1.2671,1.2501,1.2501,1.2501,1.2501,1.2501,1.2501,1.2501,1.2501,1.2501,1.2481,1.244,1.244,1.1272,0.9176,0.7937,0.623,0.4211,0.2967,0.2495,0.2487,0.2487,0.2474,0.2454,0.2446,0.3093,0.4228,0.5753,0.7027,0.8131,0.9729,0.9507,0.842,0.7331,0.697,0.6889,0.6433,0.6245,0.6178,0.6005,0.5656,0.5055,0.3979,0.2961,0.2223,0.2223,0.2223,0.2223,0.2223,0.2223,0.2223,0.2223,0.2223,0.2223,0.2223,0.2214,0.2142,0.2142,0.22,0.2116,0.2086,0.2063,0.2038,0.1883,0.1553,0.1235,0.0864,0.0309,0.0,0.0,0.0,0.0,0.0,0.0,0.0,0.0,0.0,0.0,0.0,0.0,0.0,0.0,0.0,0.0,0.0,0.0,0.0,0.0,0.0,0.0,0.0,0.0,0.0,0.0,0.0,0.0,0.0,1.3403,1.3403,1.3403,1.3403,1.3403,1.3403,1.3403,1.3403,1.3403,1.3403,1.3403,1.3403,1.3403,1.3403,1.3403,1.3403,1.3342,1.3214,1.2976,1.2732,1.2562,1.2508,1.2501,1.2501,1.2501,1.2501,1.2501,1.2501,1.2501,1.2501,1.2501,1.2501,1.1643,0.9931,0.8915,0.7201,0.4936,0.3922,0.314,0.2514,0.2514,0.2892,0.349,0.3473,0.4426,0.6009,0.7429,0.8616,0.9574,1.1129,1.0966,1.0017,0.9147,0.8853,0.8709,0.8059,0.7872,0.7803,0.7696,0.7178,0.6602,0.6178,0.4518,0.3026,0.3026,0.3026,0.2894,0.2289,0.2625,0.2894,0.2289,0.2223,0.2223,0.2223,0.2223,0.2223,0.2223,0.2223,0.2143,0.2113,0.2082,0.2052,0.2022,0.1682,0.1296,0.0864,0.0432,0.0123,0.0,0.0,0.0,0.0,0.0,0.0,0.0,0.0,0.0,0.0,0.0,0.0,0.0,0.0,0.0,0.0,0.0,0.0,0.0,0.0,0.0,0.0,0.0,0.0,0.0,0.0,0.0,0.0,1.3403,1.3403,1.3403,1.3403,1.3403,1.3403,1.3403,1.3403,1.3403,1.3403,1.3403,1.3403,1.3403,1.3403,1.3403,1.3403,1.3261,1.3119,1.307,1.2834,1.2691,1.2549,1.2542,1.2535,1.2522,1.2508,1.2501,1.2501,1.2501,1.2501,1.2501,1.2501,1.1721,1.0241,1.0086,0.8288,0.5405,0.5327,0.4312,0.2985,0.2985,0.3844,0.5243,0.526,0.6232,0.7892,0.9058,0.9639,0.9894,1.1155,1.1619,1.1619,1.1619,1.1619,1.1325,0.9945,0.9507,0.9479,0.9357,0.8248,0.7377,0.8649,0.6842,0.4635,0.4501,0.4501,0.4099,0.2825,0.3497,0.39,0.2625,0.2289,0.2223,0.2223,0.2223,0.2223,0.2223,0.2223,0.2144,0.2117,0.2084,0.2053,0.2024,0.1683,0.1235,0.0556,0.0494,0.037,0.0,0.0,0.0,0.0,0.0,0.0,0.0,0.0,0.0,0.0,0.0,0.0,0.0,0.0,0.0,0.0,0.0,0.0,0.0,0.0,0.0,0.0,0.0,0.0,0.0,0.0,0.0,0.0,1.3403,1.3403,1.3403,1.3403,1.3403,1.3403,1.3403,1.3403,1.3403,1.3403,1.3403,1.3403,1.3403,1.3403,1.3403,1.3403,1.3261,1.3159,1.3125,1.299,1.2895,1.2861,1.2861,1.2807,1.2684,1.2562,1.2501,1.2501,1.2501,1.2501,1.2501,1.2501,1.2347,1.1876,1.0552,0.9615,0.8837,0.7513,0.6733,0.6424,0.6424,0.6655,0.6967,0.6948,0.7903,0.9361,0.9612,1.0375,1.1298,1.1523,1.1619,1.1619,1.1619,1.1619,1.1548,1.1181,1.1109,1.1077,1.0928,1.0575,1.0291,1.0438,0.9069,0.7369,0.6235,0.5967,0.5834,0.5566,0.4833,0.4233,0.39,0.2961,0.2223,0.2223,0.2223,0.2223,0.2223,0.2223,0.222,0.2213,0.2162,0.2126,0.2054,0.1756,0.1235,0.0556,0.0494,0.037,0.0,0.0,0.0,0.0,0.0,0.0,0.0,0.0,0.0,0.0,0.0,0.0,0.0,0.0,0.0,0.0,0.0,0.0,0.0,0.0,0.0,0.0,0.0,0.0,0.0,0.0,0.0,0.0,1.3403,1.3403,1.3403,1.3403,1.3403,1.3403,1.3403,1.3403,1.3403,1.3403,1.3403,1.3403,1.3403,1.3403,1.3403,1.3403,1.3329,1.3247,1.318,1.3105,1.303,1.2963,1.2963,1.2922,1.284,1.2759,1.2651,1.2501,1.2501,1.2501,1.2501,1.2501,1.2501,1.2424,1.1566,1.0785,0.9931,0.9071,0.8214,0.7513,0.7513,0.7981,0.8682,0.8682,0.9656,1.1063,1.1002,1.1333,1.1823,1.1742,1.1674,1.1619,1.1619,1.1619,1.1619,1.1619,1.1619,1.1599,1.1518,1.1389,1.1233,1.109,1.0386,0.932,0.7784,0.7436,0.7236,0.6564,0.5834,0.5101,0.4434,0.3161,0.2223,0.2223,0.2223,0.2223,0.2223,0.2223,0.2223,0.2223,0.2114,0.2074,0.2045,0.169,0.1358,0.0988,0.0803,0.0617,0.0247,0.0247,0.0186,0.0,0.0,0.0,0.0,0.0,0.0,0.0,0.0,0.0,0.0,0.0,0.0,0.0,0.0,0.0,0.0,0.0,0.0,0.0,0.0,0.0,0.0,0.0,0.0,0.0,1.3403,1.3403,1.3403,1.3403,1.3403,1.3403,1.3403,1.3403,1.3403,1.3403,1.3403,1.3403,1.3403,1.3403,1.3403,1.3403,1.3403,1.3349,1.322,1.3214,1.3159,1.3044,1.3037,1.3024,1.2996,1.2996,1.2847,1.2542,1.2542,1.2528,1.2501,1.2501,1.2501,1.2501,1.2501,1.1721,1.0397,1.0397,0.9615,0.837,0.837,0.9148,1.0397,1.0397,1.1256,1.2488,1.2366,1.2149,1.1904,1.1877,1.1775,1.1653,1.1653,1.164,1.1619,1.1619,1.1619,1.1619,1.1619,1.1504,1.1362,1.1233,1.1077,1.0576,0.9303,0.8989,0.864,0.7369,0.6965,0.6368,0.49,0.3497,0.249,0.2223,0.2223,0.2223,0.2223,0.2223,0.2223,0.2223,0.2128,0.2021,0.1898,0.1685,0.1548,0.1421,0.1235,0.0926,0.0617,0.0556,0.0373,0.0063,0.0,0.0,0.0,0.0,0.0,0.0,0.0,0.0,0.0,0.0,0.0,0.0,0.0,0.0,0.0,0.0,0.0,0.0,0.0,0.0,0.0,0.0,0.0,0.0,1.3403,1.3403,1.3403,1.3403,1.3403,1.3403,1.3403,1.3403,1.3403,1.3403,1.3403,1.3403,1.3403,1.3403,1.3403,1.3403,1.3403,1.339,1.337,1.337,1.3363,1.3342,1.3342,1.3281,1.3146,1.3146,1.2996,1.2698,1.2698,1.263,1.2501,1.2501,1.2501,1.2501,1.2501,1.2347,1.2192,1.2192,1.203,1.1798,1.1798,1.1953,1.2192,1.2192,1.2269,1.2501,1.2481,1.2366,1.221,1.2074,1.1932,1.1803,1.1803,1.1714,1.1619,1.1619,1.1619,1.1619,1.1619,1.1504,1.1389,1.1362,1.1151,1.0873,1.065,1.0478,1.0386,1.018,0.9178,0.7836,0.6364,0.4967,0.3631,0.2423,0.2223,0.2223,0.2223,0.2223,0.2223,0.2223,0.2128,0.1955,0.1582,0.1763,0.169,0.1113,0.1296,0.1296,0.0926,0.0679,0.0497,0.0442,0.0126,0.0,0.0,0.0,0.0,0.0,0.0,0.0,0.0,0.0,0.0,0.0,0.0,0.0,0.0,0.0,0.0,0.0,0.0,0.0,0.0,0.0,0.0,0.0,1.3403,1.3403,1.3403,1.3403,1.3403,1.3403,1.3403,1.3403,1.3403,1.3403,1.3403,1.3403,1.3403,1.3403,1.3403,1.3403,1.3403,1.3403,1.3403,1.3403,1.3403,1.3403,1.3403,1.337,1.3302,1.3302,1.3193,1.2976,1.2813,1.2651,1.2501,1.2501,1.2501,1.2501,1.2501,1.2501,1.2501,1.2501,1.2501,1.2501,1.2501,1.2501,1.2501,1.2501,1.2501,1.2501,1.2501,1.2413,1.2277,1.221,1.2088,1.1797,1.0822,1.1053,1.1504,1.0618,1.0966,1.1619,1.1619,1.1572,1.1497,1.1409,1.1294,1.1172,1.109,1.0955,1.0759,1.0738,0.9576,0.8169,0.6698,0.5235,0.383,0.2423,0.2223,0.2223,0.2223,0.2223,0.2223,0.2223,0.2128,0.2033,0.1878,0.1797,0.1714,0.1564,0.15,0.1432,0.1297,0.112,0.0881,0.0511,0.0387,0.0195,0.0,0.0,0.0,0.0,0.0,0.0,0.0,0.0,0.0,0.0,0.0,0.0,0.0,0.0,0.0,0.0,0.0,0.0,0.0,0.0,0.0,0.0]}]]